GFSNW_prec_cthk_000.txt.gz
RH
51 27 23 19 18 21 32 35 41 45 48 56 69 74 76 71 68 66 64 64 63 67 68 69 68 67 66 66 66 63 60 57 57 55 54 49 45 43 42 46 48 42 42 37
64 50 26 20 17 17 27 34 40 42 51 62 65 64 63 65 63 58 60 59 59 65 68 68 69 71 69 67 65 65 62 62 55 53 53 51 52 50 47 48 49 45 46 32
62 59 37 23 18 19 23 30 40 43 52 59 60 60 60 59 58 55 54 54 55 58 60 61 65 64 60 60 58 57 55 54 50 39 40 41 43 41 40 41 41 35 35 27
69 73 54 29 22 21 22 28 34 38 47 51 55 54 51 51 49 51 51 51 50 49 51 52 54 56 53 52 50 50 49 47 44 39 38 38 37 37 34 39 36 39 30 28
65 71 77 37 24 21 21 27 31 32 38 46 44 45 45 47 42 40 43 44 46 45 45 48 48 49 49 46 44 45 45 43 38 33 28 31 35 32 33 34 36 37 42 42
56 66 76 71 36 27 25 26 29 31 35 38 38 38 39 37 35 35 36 37 39 39 39 39 39 38 39 39 38 37 38 36 35 31 39 39 37 33 41 44 47 47 50 47
63 57 65 80 74 44 36 34 30 32 33 32 34 34 36 38 36 34 34 35 34 33 31 29 27 27 28 29 31 37 39 45 50 48 52 56 44 47 50 50 48 49 50 53
62 64 57 64 80 79 60 47 43 40 39 37 34 35 38 37 38 38 39 40 39 41 44 45 48 51 55 58 63 62 63 63 62 65 61 51 51 53 56 52 45 52 53 58
65 66 64 60 63 77 81 73 58 51 51 48 46 50 54 54 61 67 70 71 75 75 72 72 75 76 67 66 64 72 71 70 71 80 79 67 53 55 52 53 49 51 57 61
61 66 67 62 61 63 69 79 83 84 78 76 72 76 80 79 79 81 81 80 77 74 73 72 75 72 67 67 63 70 76 75 71 71 75 60 53 54 55 61 51 58 63 63
54 62 65 67 63 60 62 68 72 75 78 80 80 80 81 80 78 79 76 76 74 70 70 68 67 66 61 60 57 62 64 73 74 73 77 70 54 59 61 59 64 69 70 71
49 53 59 62 65 65 63 61 68 70 71 72 73 75 76 76 74 72 69 68 66 65 69 66 68 67 66 61 64 57 59 55 62 66 64 59 58 60 62 62 67 72 76 78
44 49 54 54 53 53 55 60 65 67 66 64 65 63 63 65 65 68 67 66 64 64 69 72 73 76 69 66 60 58 56 59 59 58 51 49 57 63 68 73 76 76 80 85
38 41 49 51 52 51 49 50 57 61 61 61 55 53 54 55 55 58 61 65 69 70 70 70 68 67 68 65 58 62 62 66 58 50 52 56 61 66 68 73 78 83 84 86
39 38 44 49 51 51 50 50 50 57 60 57 54 48 49 49 50 56 60 63 65 67 69 70 71 72 71 68 68 66 62 53 60 51 60 66 60 71 71 77 81 84 87 90
37 35 34 41 45 49 51 51 49 52 56 57 58 53 52 49 48 52 55 59 64 66 67 67 67 65 68 69 64 57 48 52 56 52 55 60 62 67 71 78 85 87 90 91
39 36 36 40 42 46 51 54 55 56 61 64 64 60 58 56 56 55 56 59 62 67 68 66 64 64 69 64 59 40 46 50 53 59 62 62 63 69 77 84 89 94 94 91
47 46 40 41 45 46 46 47 52 55 62 66 72 70 63 57 58 61 62 63 63 62 60 57 56 60 62 60 34 38 42 51 56 58 63 66 72 75 83 91 96 96 87 77
49 46 45 44 44 45 49 52 54 57 64 67 70 68 67 65 67 70 69 69 67 62 58 54 58 57 59 39 40 43 48 54 58 62 67 73 81 88 94 98 93 80 70 55
46 40 39 46 49 55 56 54 56 59 66 69 67 60 65 68 72 75 74 76 73 69 64 66 65 58 50 48 50 52 55 60 65 71 77 86 93 96 97 86 72 60 42 35
51 42 39 42 47 49 49 55 58 61 61 61 62 66 70 71 73 77 78 76 75 74 64 67 58 50 41 45 45 47 49 55 66 74 82 90 93 90 68 57 44 35 29 27
43 51 55 54 48 53 58 66 65 66 66 64 65 67 68 68 71 76 78 77 75 71 65 67 56 40 43 44 46 51 58 66 71 79 85 84 72 56 44 34 29 28 27 27
57 57 58 60 62 69 69 71 71 68 63 61 63 65 64 66 72 77 80 80 74 70 73 65 44 46 45 46 50 58 65 69 73 71 67 55 43 36 31 29 29 29 29 28
62 62 69 64 67 64 61 57 58 57 55 59 64 66 67 69 75 81 82 80 79 77 74 60 51 50 51 55 59 64 64 65 66 54 42 37 35 33 32 32 31 32 33 36
65 65 63 60 56 57 56 57 55 54 56 61 66 68 70 75 80 78 82 85 82 74 63 60 57 58 59 58 63 63 62 59 51 40 38 37 36 35 32 34 37 39 42 46
61 56 56 61 62 57 54 51 51 54 59 66 73 79 81 74 74 80 79 76 71 69 70 63 62 65 62 58 57 61 61 52 40 39 38 38 36 36 40 43 47 49 51 51
70 65 56 55 50 45 43 47 49 55 64 71 75 74 68 74 81 78 67 64 62 70 68 69 69 69 59 56 63 64 59 49 44 44 44 42 40 44 49 51 51 52 53 54

GFSNW_prec_cthk_003.txt.gz
RH
57 23 20 19 20 31 32 46 53 54 66 66 68 72 72 78 79 76 72 71 70 67 69 71 70 70 69 68 65 60 55 51 50 53 50 46 42 41 39 42 44 40 39 33
56 29 19 19 18 28 28 46 52 55 60 67 65 65 65 66 69 68 69 67 67 69 70 70 68 70 69 70 68 65 60 59 57 58 54 52 51 46 42 41 46 41 40 29
67 50 22 18 18 24 28 40 54 56 60 63 67 62 61 61 59 61 60 61 65 65 66 66 69 68 66 65 64 64 63 60 59 54 52 48 48 44 40 40 41 36 34 31
67 67 27 15 17 20 28 36 52 51 57 61 56 56 56 53 52 53 54 55 57 56 58 58 61 59 57 55 52 52 50 50 45 45 43 39 38 35 32 33 31 34 28 29
57 77 54 18 15 19 26 34 42 43 47 50 47 46 46 44 45 46 48 52 50 46 46 46 50 50 48 46 45 43 42 40 37 33 27 27 28 28 29 33 35 36 42 43
65 59 72 40 18 18 24 28 33 37 40 40 41 42 41 40 38 37 38 40 40 41 41 39 38 37 36 35 35 35 34 32 32 33 32 38 40 37 40 44 46 48 50 48
65 61 72 64 43 27 27 27 31 35 36 38 39 38 39 35 33 32 33 34 34 34 31 28 27 27 28 29 32 37 39 45 48 48 50 60 47 47 48 47 47 47 45 44
64 68 59 77 67 47 40 36 38 36 38 37 36 35 35 37 37 38 39 40 39 38 39 42 47 49 50 52 54 53 55 59 61 67 61 53 51 47 45 44 39 37 36 38
64 65 70 61 73 72 54 47 46 43 43 43 39 41 47 45 46 49 51 54 56 62 66 71 78 76 68 65 68 68 65 63 61 65 69 62 43 40 42 41 40 38 39 41
60 64 64 73 66 68 74 72 61 53 51 49 48 49 50 51 54 65 73 75 72 71 73 72 73 68 62 62 57 57 59 57 56 58 63 50 39 39 41 47 43 47 46 47
55 58 62 65 74 72 68 71 78 80 76 69 66 64 65 72 75 75 80 82 78 74 69 64 63 58 53 53 49 51 53 60 60 60 60 62 40 43 51 51 50 51 52 54
53 55 57 64 65 69 71 73 73 78 82 84 85 85 85 80 80 79 74 74 68 64 64 63 61 59 59 54 56 47 54 49 50 53 48 43 48 54 55 55 55 59 61 62
41 53 55 56 61 64 68 68 70 75 77 76 75 73 72 74 75 73 72 70 67 65 63 62 64 66 61 61 56 53 50 46 42 44 40 44 45 50 57 59 58 58 60 66
34 41 56 55 57 57 57 57 59 60 64 68 68 66 65 64 62 62 62 63 61 61 60 64 64 63 62 61 57 57 52 49 44 48 46 45 49 53 57 56 57 60 62 65
36 39 47 52 53 58 57 56 57 56 57 58 56 52 51 53 53 55 58 60 62 66 69 66 65 62 65 64 63 53 44 41 45 42 42 48 51 54 54 59 60 63 69 72
41 40 47 50 48 55 55 55 56 54 54 56 55 44 43 43 47 53 58 60 63 65 63 64 63 60 66 69 62 36 41 44 41 42 46 49 52 54 55 58 63 65 73 78
45 44 50 50 47 51 55 51 52 53 57 59 56 48 47 48 52 56 58 61 64 66 68 68 66 66 66 66 55 32 37 43 47 50 52 54 58 61 60 67 68 72 79 84
52 49 50 52 50 48 52 56 56 55 55 53 51 51 48 51 56 60 63 66 68 72 73 73 71 70 68 64 40 43 46 48 48 49 53 55 57 60 64 69 77 82 88 92
63 59 54 56 54 48 45 46 51 56 57 55 50 51 53 53 59 68 73 74 72 72 72 67 68 67 64 42 43 41 41 45 46 45 48 51 58 65 71 77 84 88 86 80
74 65 56 50 46 44 45 46 49 54 60 64 59 59 60 57 62 70 71 73 71 71 67 64 64 56 43 39 38 40 40 40 44 47 51 59 65 71 77 85 87 82 72 63
69 65 46 41 42 47 49 50 53 58 59 60 62 68 69 66 69 75 77 79 76 74 68 72 67 57 42 43 46 46 46 46 47 53 58 62 67 77 83 81 68 59 51 39
66 53 53 55 53 51 52 55 55 58 59 60 63 68 74 79 81 83 83 82 82 78 72 73 63 46 44 47 47 45 44 45 49 54 56 61 68 76 70 57 46 41 34 31
71 60 51 50 55 68 70 66 65 65 59 61 65 71 75 79 83 85 84 83 80 76 75 66 50 45 48 47 45 45 46 49 52 55 57 64 62 53 43 41 37 34 34 32
64 68 67 61 62 59 60 60 65 66 65 67 71 74 76 80 82 84 84 79 80 79 73 60 45 48 48 45 45 47 50 55 54 56 58 52 43 38 38 36 36 35 34 34
64 64 62 61 59 63 64 67 69 70 70 73 72 73 75 78 81 80 82 84 80 71 56 47 49 49 47 47 49 53 55 56 57 57 49 42 39 39 38 39 37 35 39 45
73 60 60 56 61 61 61 64 70 73 75 70 71 75 78 75 76 77 78 77 68 49 50 56 58 54 52 52 55 56 59 63 61 55 48 44 44 43 41 37 39 44 46 47
73 59 51 54 60 59 57 59 65 65 66 69 73 78 74 75 77 75 67 59 43 55 66 67 65 61 58 58 61 63 64 60 61 63 54 50 46 41 43 44 45 45 46 47

GFSNW_prec_cthk_006.txt.gz
RH
57 32 19 24 27 35 44 56 64 67 69 70 76 79 78 80 80 78 77 77 77 78 80 79 75 72 67 60 52 49 50 51 52 48 45 42 39 39 39 43 41 41 41 39
74 38 17 19 24 31 41 53 63 69 67 73 75 76 76 78 78 76 73 74 73 73 76 77 76 77 75 71 66 65 59 56 60 58 52 47 46 43 40 41 43 50 43 35
70 58 26 16 20 28 37 51 61 69 71 67 70 70 72 74 75 74 71 70 69 67 70 68 72 72 74 73 70 67 62 61 60 58 53 52 52 48 44 44 44 38 35 29
65 71 31 14 17 24 34 49 53 66 68 65 63 61 58 58 61 64 66 68 66 64 68 68 70 68 68 67 65 63 62 61 57 55 51 46 42 38 34 34 29 36 26 30
62 71 58 18 14 23 30 47 49 55 62 56 53 54 56 52 51 52 56 58 58 57 60 59 62 58 54 54 50 48 47 48 43 40 34 32 32 25 25 28 31 36 40 42
65 66 69 41 15 19 27 39 44 48 49 49 45 46 43 45 41 42 48 50 46 47 44 45 45 45 44 41 39 37 36 33 32 32 30 34 38 38 40 43 45 45 44 43
70 66 67 55 37 24 23 32 38 42 43 43 45 43 40 39 36 34 34 34 35 36 32 30 28 27 26 27 28 32 38 42 44 48 49 60 47 45 43 37 32 34 35 36
68 69 68 68 54 44 35 30 34 38 38 40 41 40 39 36 34 34 33 32 32 31 29 35 40 42 46 48 52 51 50 54 59 66 66 57 45 37 37 37 37 36 37 37
63 66 70 67 63 55 48 45 42 42 40 40 39 37 37 37 38 41 40 41 44 45 51 62 80 85 72 72 74 69 66 61 60 66 65 66 39 38 37 38 43 40 42 43
54 63 65 71 71 61 60 53 50 50 50 46 44 47 49 46 43 45 50 57 65 71 74 76 81 75 66 67 59 63 58 54 53 53 59 51 37 41 40 47 48 45 47 50
50 55 64 66 70 76 63 57 61 58 57 54 48 50 52 49 49 54 59 72 74 76 77 76 74 69 57 52 49 52 56 59 57 54 58 58 40 43 49 49 49 50 51 51
46 50 56 66 64 69 76 75 68 62 60 60 59 58 60 61 61 65 71 79 76 74 74 68 63 60 55 51 58 48 51 46 51 55 52 42 45 50 50 49 50 51 53 54
36 44 50 58 64 64 68 72 77 80 79 77 77 78 78 81 86 85 86 81 76 73 69 66 66 64 58 59 57 49 48 45 45 46 38 41 44 44 48 49 49 52 55 56
37 37 42 49 58 63 61 61 66 68 69 73 76 77 76 76 77 79 79 76 73 70 66 65 66 63 61 63 57 51 50 47 47 49 45 44 44 47 47 48 50 52 53 56
41 39 41 42 50 61 62 62 63 63 60 61 61 58 65 69 70 68 67 66 66 65 64 63 64 63 68 65 62 52 45 45 49 47 41 44 42 43 46 45 46 52 53 55
45 44 45 45 47 52 60 62 63 66 63 60 60 55 54 56 57 59 60 61 61 62 63 65 63 62 65 69 64 45 44 46 45 44 42 42 43 46 46 48 49 50 52 54
46 50 53 49 47 50 55 62 62 62 64 64 58 54 52 51 51 53 55 57 61 62 63 63 63 65 68 69 62 42 43 44 43 42 42 42 44 46 48 49 52 52 54 60
53 53 56 56 55 51 56 58 59 63 64 65 64 59 55 56 56 55 56 58 61 64 66 64 66 68 70 66 46 45 43 43 43 43 43 45 47 48 49 51 53 56 59 65
60 63 65 65 60 57 52 55 62 62 65 64 59 59 60 58 60 61 61 61 64 67 68 67 70 71 69 53 50 48 47 49 47 46 46 46 46 48 50 54 54 57 61 66
71 73 71 71 66 59 55 54 52 56 58 58 51 53 58 55 59 65 65 67 64 67 66 68 72 65 53 50 49 47 47 46 45 44 43 45 46 48 50 51 55 60 62 65
78 80 76 74 70 63 53 48 49 53 53 50 46 51 57 60 64 67 71 74 73 72 73 72 71 64 53 48 48 46 46 45 43 41 44 45 46 49 53 56 60 62 55 45
82 83 81 76 68 61 59 57 54 52 52 53 53 54 58 62 67 72 75 77 78 79 79 78 67 55 48 46 45 45 44 43 42 44 47 49 51 52 54 57 59 47 41 40
86 83 74 61 59 67 67 63 62 61 59 62 62 64 68 70 72 78 80 82 83 76 79 71 57 50 47 48 49 47 45 45 47 50 51 49 52 56 54 45 36 38 38 39
84 78 66 58 57 53 55 58 65 73 78 77 74 71 72 76 80 86 88 88 82 81 78 65 52 47 48 51 50 49 49 49 51 52 53 56 54 47 40 38 41 42 43 39
77 66 64 63 63 63 63 65 65 67 70 72 75 75 75 77 82 81 85 86 81 75 68 58 52 48 47 54 53 53 54 53 53 55 57 53 47 44 43 45 46 44 39 41
80 67 65 65 66 68 71 72 73 70 70 72 77 81 78 74 73 78 78 77 73 60 55 52 48 49 53 54 58 61 59 55 56 58 56 56 56 52 51 51 44 41 47 46
87 75 60 59 63 65 65 62 65 72 75 77 78 77 68 72 76 78 72 67 53 50 50 49 44 50 53 55 63 67 59 58 60 62 64 67 66 63 59 45 46 49 47 44

GFSNW_prec_cthk_009.txt.gz
RH
64 57 24 19 24 36 50 57 63 73 73 75 80 85 85 85 89 88 87 83 81 82 84 76 75 74 60 53 52 52 49 48 47 44 37 38 38 40 38 41 38 41 44 43
60 67 35 17 23 31 49 56 65 71 72 78 80 80 83 81 82 85 84 85 82 79 73 71 71 67 59 53 53 51 47 48 58 51 47 45 43 42 41 43 48 51 48 41
56 69 45 15 20 30 43 55 68 67 67 73 76 75 80 81 77 77 79 79 81 79 80 74 74 72 64 60 55 51 49 53 49 51 46 48 52 50 49 49 52 46 41 32
59 69 55 16 17 30 39 51 64 71 74 72 74 78 78 78 77 75 74 78 79 79 79 77 80 78 74 70 68 66 64 64 61 56 54 51 51 50 48 45 38 38 26 27
66 67 70 22 15 26 35 46 61 65 67 66 68 68 65 65 71 72 74 76 74 73 75 73 74 73 73 72 69 66 62 63 57 55 49 45 39 33 31 30 30 35 39 43
67 64 70 41 15 21 31 43 52 58 57 54 54 55 52 52 54 61 62 62 64 66 63 65 64 63 60 60 57 54 50 46 43 39 37 33 31 26 31 36 41 42 41 37
66 68 67 61 24 20 29 38 47 49 55 53 51 44 41 43 38 40 51 54 48 45 43 43 42 41 39 38 37 35 36 35 36 41 40 54 44 47 48 46 41 38 36 34
63 67 68 71 47 30 24 31 40 43 49 49 49 47 44 41 35 34 35 33 33 32 30 33 35 35 34 36 38 36 39 46 54 63 67 57 49 46 42 41 39 40 38 37
55 65 68 71 69 48 38 32 34 39 41 43 43 43 42 40 37 35 35 35 34 33 37 42 58 71 70 68 70 66 61 60 60 68 65 62 45 39 37 39 41 39 43 44
50 56 67 68 72 64 52 47 43 43 41 39 37 41 40 40 43 44 41 40 43 46 54 71 77 75 67 70 69 68 62 56 57 59 59 47 40 40 40 42 46 45 45 47
45 51 56 67 68 74 61 60 55 53 51 50 46 43 43 45 46 47 46 52 59 68 70 75 77 75 70 66 58 57 58 61 58 56 59 58 43 45 46 49 50 50 51 53
40 45 53 56 66 68 75 65 57 58 62 60 57 57 55 52 52 52 49 53 56 63 71 73 70 71 67 62 58 47 52 53 57 53 50 47 50 50 51 52 52 50 49 50
37 37 44 53 57 65 67 70 76 64 60 61 62 62 61 60 59 62 64 66 66 68 70 73 74 72 65 61 54 48 48 49 51 47 43 45 47 51 50 48 48 47 46 49
40 37 38 43 52 58 64 66 64 71 77 75 73 68 66 69 72 72 75 76 77 78 77 77 73 68 58 56 52 55 52 51 51 51 47 46 43 45 44 44 44 46 48 46
47 44 43 43 44 52 56 61 63 61 63 66 70 72 77 78 78 82 82 82 81 75 70 71 69 62 64 57 59 59 47 47 53 51 44 46 43 43 45 48 48 47 46 45
51 47 47 48 50 51 51 53 57 64 61 59 59 61 60 63 65 68 71 73 73 68 66 64 64 63 64 61 58 47 45 44 45 48 47 47 50 47 46 46 44 45 45 46
54 52 51 51 53 52 54 53 52 56 66 67 63 60 57 61 64 65 63 64 65 65 66 64 65 63 64 63 61 46 47 48 49 49 48 48 46 45 43 42 43 44 45 48
58 60 59 55 56 57 59 59 54 54 60 69 65 64 61 59 60 61 60 63 64 66 65 64 64 66 65 62 49 47 48 49 51 50 51 51 47 45 45 45 47 48 50 52
66 71 72 69 63 59 61 64 66 64 59 63 64 64 62 62 64 65 65 66 67 68 66 65 67 64 59 49 48 50 51 51 52 54 54 52 48 47 46 47 49 51 51 52
81 81 78 74 70 68 66 67 66 66 70 64 56 58 60 56 58 65 65 67 70 70 69 71 73 67 52 51 53 54 55 56 58 56 52 48 47 47 47 49 50 52 52 55
89 81 80 79 79 77 75 67 66 64 60 56 55 56 57 56 58 62 64 64 67 69 68 71 74 66 53 52 53 54 55 54 53 50 47 47 47 47 48 47 48 53 53 44
93 87 87 84 78 69 67 66 64 64 59 58 55 55 59 63 62 62 67 66 70 68 72 73 69 61 57 56 55 54 52 50 49 47 47 47 48 47 46 48 51 52 44 36
93 92 88 83 78 74 69 70 67 67 63 64 60 61 64 70 73 72 73 73 74 74 80 76 66 60 58 57 55 53 50 51 52 52 50 48 49 48 48 49 48 40 37 37
98 93 89 78 71 65 61 57 59 61 65 69 72 73 74 74 75 78 76 80 78 81 80 72 63 59 55 53 50 47 50 54 54 51 49 48 47 46 46 44 41 40 43 45
97 89 85 77 65 61 59 60 62 66 71 71 73 71 69 73 74 75 78 82 81 77 71 66 58 53 51 51 49 44 50 52 52 52 50 50 48 49 49 49 46 48 52 53
96 89 80 73 67 68 66 69 71 70 70 69 65 69 71 71 71 75 76 76 73 65 60 52 51 48 49 48 48 48 46 51 51 51 52 50 52 54 58 56 55 58 61 53
95 88 78 68 65 64 69 72 75 74 69 68 66 70 71 75 78 75 71 70 58 51 47 46 44 45 46 50 52 53 54 58 57 53 53 55 57 61 64 66 69 69 64 60

GFSNW_prec_cthk_012.txt.gz
RH
59 61 61 25 16 30 46 56 59 71 78 84 89 94 95 96 97 97 93 85 85 84 79 83 85 80 76 74 68 65 52 45 44 37 33 34 35 36 36 38 37 41 43 39
61 60 67 30 17 26 46 56 60 70 75 80 87 87 91 95 94 89 90 91 86 87 85 88 81 79 73 69 64 65 50 52 52 49 44 42 40 36 37 40 43 46 49 47
63 61 69 39 16 26 46 54 64 65 71 74 80 85 83 88 89 87 86 88 88 87 85 77 77 74 71 63 56 56 53 54 46 47 43 43 45 44 42 43 52 52 52 43
63 63 70 44 16 21 36 50 61 67 72 71 77 81 79 81 84 86 87 85 82 79 81 80 80 77 65 59 57 52 50 51 48 47 44 44 47 50 54 53 52 48 41 37
60 65 70 62 18 19 32 47 59 69 72 71 74 76 78 79 76 78 84 85 81 77 78 76 77 72 67 60 57 56 54 58 55 53 49 48 50 51 52 51 46 42 37 35
57 67 67 71 22 17 27 47 53 64 66 65 67 67 64 68 73 73 74 75 76 76 75 74 76 76 74 70 70 69 67 65 62 58 59 55 52 45 39 34 31 30 32 39
55 66 69 73 31 18 25 43 50 56 60 55 53 52 49 52 60 59 65 64 64 65 64 65 65 67 69 69 71 67 63 60 58 56 49 52 34 33 39 43 44 46 49 47
48 63 69 70 57 21 24 38 49 50 58 55 51 43 42 37 41 49 52 49 50 49 53 55 56 56 49 48 48 45 41 40 45 47 47 40 47 48 49 52 56 51 47 42
46 57 67 71 76 37 26 34 43 46 50 54 52 49 44 39 36 36 33 35 36 35 37 43 51 53 45 46 46 43 38 42 48 65 66 66 51 46 44 41 45 42 42 41
45 48 63 71 76 72 41 34 34 41 44 48 50 48 46 40 36 37 36 36 34 35 40 48 54 59 63 73 73 72 67 67 68 67 63 52 43 42 39 41 39 43 43 44
44 47 53 65 74 77 69 47 41 40 41 44 44 46 45 43 41 43 43 44 42 43 50 56 62 73 73 68 66 64 63 67 62 59 59 54 41 42 43 43 44 45 45 46
44 45 47 53 66 76 77 67 57 49 46 50 47 46 44 45 47 47 47 51 51 55 64 70 71 71 71 69 67 59 61 56 54 48 48 43 44 45 47 48 50 49 48 47
44 44 44 48 54 65 73 74 72 62 60 60 58 54 52 52 50 51 48 51 52 58 62 67 70 70 69 71 67 59 54 48 49 46 46 49 49 51 50 50 50 48 45 43
44 42 41 43 49 54 61 71 72 74 70 64 65 64 64 62 59 55 59 61 64 65 68 72 72 71 69 71 65 61 52 48 47 49 47 48 51 50 50 48 46 43 45 48
49 46 46 44 47 51 57 63 66 70 71 75 77 72 70 69 69 68 67 69 69 70 74 76 78 75 73 68 61 58 49 45 49 52 46 45 46 45 45 46 47 49 49 46
54 52 52 49 50 49 56 54 56 57 64 67 64 68 73 76 78 80 85 84 84 84 85 83 78 68 62 60 57 47 43 43 44 47 48 47 46 47 47 47 46 45 47 50
59 58 57 53 53 52 55 52 52 53 57 61 66 65 63 66 69 72 73 72 75 77 78 77 69 64 60 61 58 50 46 48 49 48 48 48 46 47 47 48 50 51 52 53
63 64 63 58 58 59 60 56 56 56 62 59 59 66 67 65 68 69 70 74 73 73 73 71 69 65 61 57 47 48 48 49 50 50 49 50 53 54 53 52 53 53 53 53
72 74 70 65 65 66 65 61 60 59 62 63 60 60 64 64 68 68 68 67 70 70 70 70 66 64 58 47 46 49 52 53 51 53 56 58 58 54 52 51 50 49 51 52
86 82 78 73 69 73 75 74 71 69 68 66 65 63 62 60 67 69 69 70 72 70 68 67 67 56 51 51 54 57 58 59 60 60 60 58 51 48 47 47 48 48 49 52
93 91 86 83 82 82 83 76 73 75 72 66 66 61 66 63 66 67 66 68 69 67 65 69 65 59 54 51 52 54 57 59 59 56 52 49 49 50 50 48 48 49 51 52
98 93 94 95 93 87 82 77 71 67 65 63 65 66 66 67 66 66 66 61 61 64 61 66 64 53 52 55 56 57 57 53 49 47 48 50 53 54 51 50 49 49 48 40
98 98 98 94 93 86 74 69 65 65 62 68 69 74 74 70 67 65 64 65 69 68 74 69 60 57 59 61 60 56 51 49 49 50 50 50 50 51 51 50 47 46 40 35
98 97 98 93 84 76 66 58 56 56 62 67 71 75 77 77 77 78 77 78 77 82 82 74 67 67 64 58 56 54 51 49 49 48 48 47 48 50 51 49 46 42 39 39
98 97 93 86 72 66 66 67 62 63 66 66 71 75 76 81 83 81 81 83 82 79 77 72 63 59 57 53 49 45 43 44 46 49 51 50 49 50 50 49 46 46 43 44
98 95 87 80 76 70 66 68 68 68 69 74 71 71 73 73 71 73 74 75 75 70 69 61 57 52 47 44 42 42 45 47 47 52 57 54 52 50 51 53 53 51 53 58
97 92 84 78 78 74 73 74 74 74 73 68 66 66 69 74 77 76 73 71 64 60 56 54 51 48 45 43 42 46 48 47 49 53 57 56 55 54 51 53 56 61 64 64

GFSNW_prec_cthk_015.txt.gz
RH
54 62 61 62 35 19 32 55 65 76 87 92 95 97 95 92 95 95 94 85 83 78 80 90 95 87 80 77 74 71 57 59 69 62 61 59 55 44 42 46 42 46 45 37
49 60 63 63 39 20 34 55 65 78 84 88 92 97 98 97 97 94 86 83 84 84 81 95 88 87 84 77 71 70 66 73 82 72 69 59 48 38 37 41 41 44 46 40
47 57 64 66 44 20 34 57 65 74 81 82 85 92 96 94 90 93 87 86 83 82 85 82 86 86 78 74 75 80 72 72 61 52 47 41 39 35 36 39 48 46 46 46
45 55 65 70 45 19 31 48 62 71 75 77 83 81 89 91 90 92 87 88 87 79 82 80 82 80 76 75 73 79 73 62 59 44 38 41 36 39 42 44 45 48 49 58
44 53 65 71 56 21 23 42 59 72 76 74 77 81 87 85 86 91 94 92 85 82 78 76 79 76 73 72 72 66 56 56 55 51 43 45 46 48 52 49 52 55 57 57
42 51 65 69 65 25 23 38 60 75 75 74 72 76 80 85 83 86 88 89 86 87 81 77 74 71 69 68 65 62 58 57 53 53 54 50 47 48 49 52 54 55 50 39
42 48 63 69 72 26 21 36 61 66 70 73 70 65 68 75 73 77 82 81 79 80 79 82 77 71 72 70 68 63 60 61 60 59 59 57 47 54 54 52 49 42 41 41
43 44 60 70 74 35 20 35 58 58 64 62 57 54 62 62 59 68 74 75 73 74 74 75 75 80 73 78 77 74 71 72 73 69 67 58 56 48 45 44 51 49 53 59
45 45 55 70 75 60 22 34 55 56 59 55 49 47 47 49 54 58 59 56 58 59 64 68 72 70 63 64 62 56 58 55 56 65 61 60 46 43 43 50 64 61 60 51
45 45 51 67 75 78 32 33 49 57 54 58 54 50 43 41 40 41 40 41 44 47 53 61 64 60 52 57 55 48 45 46 46 49 51 49 49 52 53 55 46 45 44 45
44 45 48 57 74 80 69 35 40 50 53 54 57 51 44 43 39 37 36 38 37 38 44 49 52 53 52 58 65 69 69 73 71 74 74 67 47 44 45 44 44 44 46 45
43 44 46 52 67 79 83 64 41 44 48 50 51 54 52 48 44 43 43 46 43 41 45 49 52 57 61 68 73 68 67 61 63 58 54 45 44 43 44 45 46 47 47 47
44 44 46 47 53 69 80 81 67 48 51 52 55 54 52 53 54 53 51 51 51 53 54 59 61 67 69 71 68 64 61 59 59 55 52 50 47 47 47 49 49 49 49 45
45 44 45 46 48 58 71 79 80 74 62 57 59 58 58 56 53 55 57 54 55 56 59 60 62 66 65 66 64 65 64 61 56 53 52 53 52 50 49 48 48 46 43 43
47 44 43 44 47 50 61 67 76 79 78 73 67 66 63 61 61 58 55 53 55 58 64 65 66 68 67 69 70 72 69 61 59 53 46 46 48 48 47 46 44 43 42 43
49 50 50 50 52 50 53 59 65 69 75 75 81 77 72 70 69 66 66 64 64 67 69 73 74 73 71 72 71 59 54 53 50 48 48 48 48 48 47 44 42 41 42 46
53 55 57 58 60 58 54 51 54 56 57 67 74 71 71 76 79 79 79 83 87 86 88 91 89 85 81 77 71 55 50 48 46 46 47 49 49 48 46 45 44 46 50 49
66 62 62 64 64 59 61 55 53 57 57 56 59 63 65 71 75 79 76 79 79 80 83 79 76 75 70 69 55 50 49 47 47 48 48 47 46 47 48 47 50 48 46 45
78 72 68 68 68 66 66 63 61 60 62 63 62 62 62 59 68 72 77 80 79 79 79 76 74 70 65 55 52 47 46 46 46 46 46 47 49 50 50 47 46 44 44 45
88 84 75 74 74 72 69 71 72 68 65 64 63 64 63 60 63 67 70 75 77 79 78 75 71 64 59 62 55 54 52 53 53 52 53 54 53 50 48 47 47 47 47 48
93 88 82 81 86 84 76 74 77 79 75 67 63 62 65 66 68 68 66 73 73 71 68 70 65 57 49 47 47 48 52 53 54 52 51 50 50 49 48 48 47 48 48 48
96 88 89 92 94 93 89 82 76 73 73 69 72 71 69 70 69 74 71 69 68 63 64 65 59 48 44 44 44 44 44 45 48 50 53 51 49 46 44 45 47 47 46 49
98 98 98 97 97 97 86 81 78 72 66 71 70 74 76 77 73 75 70 66 62 59 62 58 47 42 45 48 48 49 50 54 54 49 47 45 41 40 41 43 44 46 47 50
98 98 97 96 92 83 74 69 67 65 68 69 72 75 78 82 82 78 73 72 68 70 68 58 52 54 57 57 57 55 52 48 45 42 39 39 41 42 42 44 47 45 47 47
98 97 96 90 84 77 74 71 69 70 70 70 74 78 79 84 85 80 81 81 79 72 68 63 59 59 58 57 51 46 43 41 38 36 38 40 44 46 46 46 48 46 46 46
98 96 90 85 85 79 76 74 70 72 71 74 76 80 82 86 84 84 77 76 72 65 63 57 58 57 53 49 47 45 42 41 40 41 39 39 44 48 51 52 54 52 52 54
97 92 87 81 81 80 76 78 75 75 77 78 75 73 76 77 77 77 72 66 57 54 55 55 53 51 50 51 49 47 45 43 40 40 41 43 46 51 57 62 62 59 58 57

GFSNW_prec_cthk_018.txt.gz
RH
43 47 56 70 72 57 28 39 65 82 96 99 98 98 97 95 96 96 95 94 86 66 89 80 75 84 82 80 79 72 68 63 73 76 65 66 63 62 62 64 59 58 52 42
44 47 55 66 73 56 29 44 64 87 94 97 98 98 97 96 97 96 94 89 83 69 77 83 89 83 83 80 78 73 63 66 77 75 74 71 63 58 60 60 58 54 49 42
45 47 54 63 74 58 30 44 67 83 92 94 95 96 97 97 96 96 86 80 74 70 84 82 86 86 86 82 78 75 67 69 63 64 57 62 64 59 60 60 57 48 44 35
46 46 53 62 74 62 29 42 57 75 83 85 90 91 94 94 96 91 86 82 79 74 78 86 91 87 84 84 80 80 76 77 68 59 61 66 59 65 58 41 35 40 37 45
46 47 53 63 72 72 32 32 53 69 79 82 84 89 90 93 91 88 89 86 80 73 74 74 85 84 84 81 82 79 79 77 68 67 63 54 46 45 37 36 37 39 44 47
47 46 51 62 70 76 39 25 49 70 78 82 81 84 91 89 87 92 91 88 87 81 81 79 81 79 78 75 77 80 81 76 67 71 64 51 45 41 50 49 49 50 53 53
48 46 49 61 69 78 43 24 50 73 77 81 82 79 85 87 86 93 90 90 87 85 82 81 80 78 78 77 75 69 71 69 66 64 60 59 43 46 45 51 53 52 52 54
47 46 48 58 70 78 51 23 49 72 75 79 79 77 80 80 81 88 91 87 86 89 84 90 88 87 80 76 78 74 71 67 65 61 57 50 49 50 52 51 56 54 51 53
47 46 47 55 70 76 61 27 49 70 69 67 63 68 70 72 73 81 81 81 82 82 86 87 83 92 81 78 76 70 66 66 65 72 78 71 59 59 56 53 66 62 61 58
48 48 48 52 67 76 76 31 45 70 65 60 55 52 56 59 60 68 67 68 68 73 80 83 86 82 78 75 75 70 70 72 72 74 70 60 53 51 49 57 55 60 62 62
50 49 48 51 64 76 83 42 41 65 66 62 58 54 52 53 54 52 48 51 51 56 62 68 71 67 63 64 63 59 58 64 65 64 62 56 43 49 55 58 59 52 49 47
52 51 48 52 60 73 83 77 41 51 67 68 63 57 51 47 47 44 41 44 42 42 48 48 52 53 54 54 59 54 61 65 68 66 67 65 64 57 52 49 48 48 48 47
55 52 48 51 57 67 77 89 68 47 56 67 67 65 57 52 51 50 46 46 45 44 42 46 48 48 51 56 58 63 68 66 67 62 61 60 55 52 49 48 47 47 47 47
55 52 49 52 54 61 71 82 87 69 53 58 68 68 68 61 58 56 56 54 54 55 55 56 59 60 59 65 65 66 63 62 63 66 63 61 59 56 55 52 50 48 46 43
55 52 51 53 55 53 60 72 84 85 73 62 60 64 69 70 67 63 63 61 60 60 62 63 65 64 64 70 71 68 64 63 65 66 63 60 55 53 51 48 45 44 43 42
59 58 53 51 58 57 59 61 71 83 85 77 74 70 65 64 63 63 62 61 60 58 60 62 65 66 64 66 64 59 60 60 60 66 64 62 55 51 48 45 45 44 42 41
65 61 54 51 58 59 56 50 56 64 72 78 84 77 76 70 67 67 68 68 69 67 66 65 65 68 70 70 74 71 72 66 56 58 53 52 50 48 47 46 44 42 41 42
70 62 60 63 66 63 61 55 56 60 62 62 72 77 74 76 75 76 76 76 76 76 77 78 79 85 84 84 75 71 67 62 58 53 51 48 47 46 45 44 42 41 41 43
72 68 71 71 72 68 63 60 59 61 59 61 61 64 66 69 76 77 78 77 82 83 84 84 82 80 78 66 63 62 55 51 54 53 50 49 47 47 45 39 39 44 46 48
81 82 76 74 72 71 71 67 65 62 63 61 60 61 62 60 64 69 70 80 84 84 78 79 80 75 70 68 64 55 50 50 50 50 53 52 49 44 41 45 46 46 45 43
93 86 82 80 80 78 77 73 68 67 65 62 63 62 62 64 64 68 67 72 70 71 71 74 70 63 58 59 59 59 54 53 53 52 46 41 41 42 45 46 44 41 40 39
96 90 91 93 89 86 82 78 74 72 66 65 64 68 67 68 66 66 69 73 69 68 66 68 60 50 47 47 50 53 55 54 50 42 42 44 47 47 43 38 36 36 36 37
98 97 98 95 95 94 85 78 74 72 71 68 69 77 78 76 71 74 72 71 71 63 66 58 51 45 45 44 43 42 43 43 43 47 50 53 46 39 37 34 34 36 37 39
98 98 97 96 93 82 75 70 70 71 76 80 82 79 81 81 79 78 75 73 68 69 66 56 46 43 43 43 42 42 44 49 55 54 46 41 40 38 37 37 38 39 41 42
98 97 96 91 86 80 78 75 75 76 79 82 84 85 85 84 84 79 78 77 75 67 62 54 49 51 52 51 52 54 53 49 44 43 41 39 37 37 38 40 40 42 45 46
98 97 93 89 88 84 81 79 79 80 83 82 83 87 87 89 86 82 78 76 71 63 62 55 57 55 54 53 52 50 49 49 46 44 42 39 36 36 37 40 43 47 49 50
96 93 89 86 85 86 84 82 83 83 86 86 84 86 84 83 82 82 77 73 63 60 58 56 56 55 54 53 52 52 50 47 44 41 40 38 36 37 39 42 46 48 52 53

GFSNW_prec_cthk_021.txt.gz
RH
49 49 49 51 60 68 62 54 50 67 85 95 95 97 96 95 97 96 95 89 72 60 58 80 76 73 76 85 84 84 77 71 77 69 74 77 77 71 76 71 65 62 59 51
51 50 49 51 61 68 59 62 54 69 88 95 95 96 97 97 97 97 95 91 83 58 60 77 84 71 73 83 81 75 72 73 84 91 81 78 81 69 67 66 64 60 60 51
53 52 50 51 62 69 61 63 54 73 90 95 98 98 97 97 97 96 96 94 84 70 83 88 81 78 83 83 77 67 65 68 66 73 70 65 64 69 67 65 69 62 57 53
55 54 51 52 63 68 66 57 47 69 87 92 97 98 98 97 98 98 90 84 77 69 86 83 84 78 83 83 80 75 70 71 65 60 60 66 65 67 68 65 60 60 57 54
57 54 53 54 63 68 78 55 42 59 76 81 90 96 97 97 95 91 85 79 73 66 69 67 67 65 72 72 80 79 73 74 69 65 61 60 58 60 61 58 60 63 52 34
58 55 55 55 63 69 78 52 32 47 71 83 90 88 95 96 93 93 84 81 72 69 72 77 77 75 79 77 79 80 78 75 72 74 68 62 59 57 61 50 52 38 37 29
59 55 56 54 62 70 79 56 35 49 74 86 83 82 96 92 94 94 90 83 80 77 75 76 81 84 85 85 81 82 86 82 81 78 68 73 60 53 43 42 44 44 42 44
59 57 55 54 62 70 78 65 34 50 76 86 86 82 86 88 90 95 95 92 87 82 81 84 90 90 90 86 84 85 84 83 75 75 72 61 53 50 48 48 51 51 51 55
59 57 55 54 59 71 78 70 36 50 80 79 85 79 78 82 86 93 95 94 92 90 90 90 94 95 92 87 81 78 73 73 83 80 68 62 53 56 56 52 51 52 53 52
62 58 55 53 56 70 78 73 42 50 78 77 71 71 77 70 80 91 90 88 94 90 90 92 90 86 89 86 78 80 85 80 76 78 74 67 63 59 54 62 56 57 58 57
67 60 55 54 55 69 78 81 49 49 73 75 66 58 61 68 67 77 79 79 83 91 87 86 84 81 79 81 76 72 72 80 79 83 78 70 62 61 55 49 53 54 59 61
70 63 56 55 55 67 79 88 63 46 69 78 66 57 55 62 62 62 64 65 62 67 77 81 82 77 77 75 76 70 67 64 69 67 61 56 49 48 54 57 59 59 53 53
72 66 59 55 55 66 77 87 89 46 55 79 74 66 59 57 58 52 52 54 48 51 53 58 57 58 63 61 60 58 54 54 61 69 70 70 67 65 62 58 56 50 47 47
74 67 65 57 55 64 74 82 94 78 48 66 76 74 68 60 54 54 50 49 48 50 50 52 51 50 48 55 53 54 57 60 67 69 65 64 63 61 60 59 56 53 50 44
72 68 66 58 57 65 71 79 87 94 74 62 67 75 74 70 63 59 57 55 54 57 57 58 58 57 62 62 62 63 62 63 64 62 58 60 62 64 65 61 56 52 46 42
75 70 66 61 60 62 64 73 77 87 90 78 69 66 75 77 74 68 63 62 61 61 62 65 65 61 59 64 64 56 59 61 57 56 54 58 65 69 69 61 53 46 43 41
74 71 68 62 62 63 63 61 64 74 83 88 85 78 69 71 75 77 76 72 70 69 70 66 64 64 62 63 64 51 53 56 59 60 60 63 65 65 64 55 46 42 41 40
70 69 66 62 66 68 63 55 60 63 70 73 87 81 75 75 75 75 72 74 72 72 73 69 67 68 65 64 56 59 68 74 75 72 67 60 54 52 48 45 44 42 39 40
77 78 73 72 73 68 67 60 63 66 64 66 63 72 76 75 75 75 78 77 78 77 76 75 74 72 70 63 65 70 70 67 63 61 56 55 51 48 44 43 44 44 42 40
91 87 85 80 76 74 69 70 67 66 69 62 60 60 67 73 79 77 77 79 79 78 75 76 76 69 67 66 65 63 64 64 56 55 58 56 51 51 50 45 42 41 38 36
94 87 84 80 81 80 76 77 71 67 64 61 61 59 59 66 73 75 77 81 80 79 76 78 74 68 64 66 66 64 64 64 59 56 55 56 52 43 41 41 38 35 38 41
93 89 89 89 84 83 82 81 76 73 65 64 64 65 64 65 64 67 67 69 69 68 68 71 63 50 47 54 56 59 61 61 58 53 47 42 41 41 39 36 37 42 41 38
97 96 96 89 90 90 83 78 74 71 66 65 64 67 69 71 66 69 66 66 68 63 66 60 50 46 47 46 50 57 61 63 64 53 44 42 41 40 42 45 43 39 37 37
98 97 97 95 93 84 76 71 67 67 70 72 75 76 74 74 74 72 69 72 68 67 61 55 47 46 45 45 49 53 59 62 47 44 45 44 47 50 48 45 42 39 38 37
98 98 97 93 88 84 79 77 75 76 79 78 85 86 84 81 78 75 74 73 69 61 59 53 49 49 46 42 42 44 46 47 46 46 49 50 48 45 43 41 39 38 37 38
98 97 96 93 92 89 85 82 80 82 86 84 84 89 88 87 82 80 76 72 66 60 59 56 58 60 56 55 55 52 50 50 50 50 49 47 44 41 39 38 38 40 40 41
97 96 94 94 93 92 89 86 85 87 89 89 87 85 83 84 84 82 77 73 65 61 62 65 65 60 58 56 55 54 54 54 52 50 47 45 44 42 41 41 42 44 44 45

GFSNW_prec_cthk_024.txt.gz
RH
70 57 56 58 61 62 67 67 66 73 70 72 84 95 97 96 96 96 97 93 85 57 59 62 70 66 69 71 80 88 82 71 77 86 79 77 75 76 78 76 66 56 51 44
69 58 57 59 62 62 69 62 69 77 65 68 91 96 97 96 97 97 97 96 83 57 55 64 70 61 59 72 78 84 79 74 79 80 82 78 83 70 72 72 61 57 60 49
71 61 58 60 62 64 70 62 77 80 62 77 96 96 97 97 96 96 95 95 83 55 51 56 65 67 61 71 72 79 79 72 68 65 60 65 71 71 63 65 67 58 52 49
74 64 59 60 63 66 72 62 68 73 60 81 96 98 97 97 97 97 96 97 87 52 47 63 70 64 62 75 80 80 80 70 65 62 64 60 61 65 77 64 59 59 54 56
74 62 60 63 63 66 72 66 60 67 56 75 88 97 97 97 97 97 98 89 90 62 61 55 59 60 60 72 74 76 77 72 67 64 62 59 57 59 63 60 60 57 54 51
78 75 68 64 63 65 72 76 63 61 46 68 88 95 96 96 95 93 86 78 64 72 79 78 70 74 77 72 74 73 70 70 67 67 63 62 61 53 56 54 52 51 52 47
79 68 64 63 63 65 71 76 70 56 35 62 86 89 98 97 97 94 84 71 63 71 80 83 80 74 75 78 78 79 77 74 75 72 68 84 55 51 47 47 47 51 46 44
80 64 64 63 63 65 72 80 76 56 40 67 92 90 95 96 97 96 86 78 71 70 78 84 90 96 94 91 85 86 80 78 80 80 67 59 53 54 53 53 44 35 39 41
75 61 66 66 64 65 73 81 84 54 43 69 87 88 86 91 96 97 95 90 82 78 85 89 95 96 97 96 92 86 88 86 87 82 77 75 57 54 53 50 43 42 45 49
75 65 69 66 64 65 73 82 81 54 46 77 86 84 80 82 92 97 96 94 93 91 90 88 88 88 85 90 87 87 86 84 92 95 92 62 59 60 56 54 53 57 56 57
84 69 70 66 64 64 73 83 81 57 49 80 82 76 77 79 86 96 94 96 97 95 95 93 87 83 85 79 75 79 80 83 80 89 89 72 59 61 60 57 59 56 52 51
79 74 69 66 63 64 73 83 82 63 58 77 76 70 70 75 76 91 93 89 92 94 94 90 87 80 82 82 76 75 77 75 69 66 61 65 68 62 60 55 50 56 58 63
74 70 68 65 63 62 72 83 88 70 55 76 79 68 61 73 67 74 79 80 78 85 87 87 85 81 79 79 77 76 73 74 69 69 69 64 57 60 64 68 67 67 60 57
84 72 70 66 64 65 73 81 91 83 53 63 83 74 64 66 64 59 63 64 60 61 69 72 71 68 68 69 65 63 61 58 55 57 61 68 67 64 62 61 59 58 57 55
83 69 71 69 64 67 74 80 88 96 72 53 73 82 73 69 66 62 55 51 52 54 55 56 57 53 54 57 55 53 51 50 52 54 57 58 56 57 58 58 60 60 59 54
88 76 75 74 66 71 77 80 85 92 98 79 57 71 83 76 73 67 67 62 59 56 58 60 61 59 57 58 55 51 53 57 59 57 57 57 56 55 56 60 64 64 58 48
92 85 80 78 71 72 77 74 77 89 96 96 86 68 64 80 81 76 73 69 69 68 67 64 64 65 64 59 55 49 54 56 53 52 53 57 56 57 60 65 66 62 51 44
93 88 84 81 80 74 74 70 74 82 84 87 94 87 75 65 68 81 84 81 74 72 70 69 66 66 63 64 50 47 47 48 52 55 57 61 64 67 67 65 61 48 43 41
95 90 86 85 83 77 74 71 70 69 75 78 78 87 93 83 79 75 73 74 82 81 78 75 70 68 64 53 49 48 51 55 63 67 68 69 67 60 54 49 45 43 41 39
94 90 87 85 84 83 75 69 72 70 69 68 69 68 76 78 78 78 79 80 81 81 79 78 74 64 55 55 55 58 60 62 65 63 64 58 62 61 57 51 45 44 46 41
91 85 83 85 83 81 77 77 68 72 74 70 67 61 64 69 78 85 82 81 78 75 71 73 65 55 52 54 56 59 62 65 65 66 63 62 62 59 54 49 46 42 36 34
95 82 81 86 86 83 82 78 76 71 64 64 66 65 64 66 68 72 77 81 77 77 72 75 64 52 49 56 58 65 68 70 73 67 59 57 54 46 44 43 37 34 34 37
98 98 97 92 94 92 84 80 75 72 65 65 65 66 67 69 66 69 67 68 69 65 70 64 52 48 50 60 63 63 64 65 62 59 54 47 45 43 40 36 34 36 45 45
98 97 97 94 94 82 74 69 67 65 67 69 71 71 71 71 69 68 68 70 67 67 63 52 44 46 48 52 59 61 63 65 61 59 57 51 44 39 37 39 48 49 45 42
98 96 95 89 84 80 76 72 71 72 76 75 75 77 76 77 74 68 70 71 68 59 53 48 48 50 50 51 57 62 63 66 63 58 54 44 41 46 52 51 48 45 44 43
98 97 94 91 89 85 80 77 77 82 83 80 77 82 82 82 79 77 76 71 64 55 53 52 55 55 55 58 63 68 67 57 53 48 49 51 54 52 48 46 45 45 45 45
97 96 92 91 89 87 84 85 86 88 88 87 84 84 84 86 87 84 78 74 65 62 60 61 60 56 54 54 53 52 52 53 54 56 55 52 50 48 48 48 47 48 48 50

GFSNW_prec_cthk_027.txt.gz
RH
97 86 93 74 64 70 72 74 76 76 77 78 82 68 83 96 97 97 97 97 96 92 69 61 62 60 56 62 72 93 94 88 99 97 83 82 79 76 66 61 60 51 48 53
99 93 90 80 68 71 72 74 74 77 78 80 78 67 95 96 97 97 97 98 95 86 58 60 59 53 54 62 68 85 84 76 96 98 88 86 87 74 73 69 64 57 51 52
96 95 83 80 69 74 76 73 77 76 78 84 68 81 96 97 97 97 96 96 92 81 57 54 52 56 60 65 64 78 84 77 71 71 70 74 73 67 66 67 64 59 55 56
98 95 86 82 70 73 77 73 69 72 78 75 77 89 96 98 98 97 97 97 93 76 52 54 58 58 62 67 70 84 82 74 67 67 66 65 71 74 71 65 65 61 58 55
97 99 93 75 70 74 76 73 68 75 76 74 67 89 96 98 97 96 98 97 94 73 47 42 54 59 60 69 68 72 80 74 67 65 64 63 64 67 65 65 57 58 61 55
97 98 82 74 72 71 71 71 70 72 72 63 62 85 95 96 97 96 94 93 87 59 49 53 57 55 53 68 66 70 77 74 70 67 62 62 63 52 55 55 53 56 54 49
99 90 80 80 73 70 72 72 77 82 79 46 50 80 93 97 98 97 94 83 71 66 70 62 70 61 61 69 74 74 72 74 78 79 69 74 52 50 48 48 49 51 51 49
98 94 82 77 71 72 71 73 78 81 78 42 54 86 95 98 98 97 84 71 74 80 92 90 80 82 80 80 78 78 76 73 77 79 70 62 56 55 54 51 46 47 47 47
98 94 75 78 84 78 71 74 81 85 83 39 60 89 91 97 98 97 84 74 80 83 86 90 89 92 92 94 90 83 85 82 81 80 81 75 59 56 54 53 51 46 43 42
96 99 86 82 79 72 70 73 83 89 88 39 66 89 93 91 98 98 93 79 75 77 83 95 93 94 92 96 92 91 95 91 87 89 81 69 62 60 53 57 53 49 45 45
96 97 77 81 75 71 70 73 85 89 82 48 72 92 85 83 94 95 96 94 84 83 89 88 82 86 84 85 88 84 92 96 95 94 93 86 62 63 62 60 57 53 52 55
95 93 74 75 75 71 70 76 85 89 76 56 79 87 81 82 90 96 96 96 94 92 90 87 82 80 83 78 84 79 84 77 76 78 76 72 67 65 65 63 65 60 55 55
98 95 72 76 77 72 69 76 87 92 72 62 80 81 79 78 84 93 97 96 96 96 92 93 90 83 79 83 74 76 74 76 71 70 70 68 66 68 66 61 57 58 61 61
98 92 77 79 77 71 70 77 89 92 74 64 80 77 76 77 80 80 91 93 88 93 95 95 94 89 80 81 78 71 71 72 71 67 71 68 63 61 64 65 65 61 59 57
95 91 81 79 75 71 70 81 90 92 77 62 75 79 73 72 74 76 74 84 81 82 86 88 87 81 78 77 74 71 71 65 63 60 56 53 54 62 62 59 57 56 55 55
98 91 76 79 75 70 75 83 92 91 88 73 59 82 81 74 74 72 71 65 66 69 69 68 68 66 63 63 61 51 50 50 47 48 51 53 55 59 61 59 57 56 56 58
99 88 75 78 76 71 75 81 87 91 94 92 80 62 80 82 77 75 74 71 65 62 63 62 61 58 58 58 56 46 46 50 53 56 58 60 59 58 58 57 55 58 60 60
99 94 84 85 81 77 78 77 84 93 92 96 98 88 65 75 84 83 80 78 76 76 73 71 68 64 62 66 55 51 48 46 49 51 52 52 52 53 56 58 65 70 66 60
99 95 87 88 84 79 82 84 88 88 94 97 90 96 93 74 67 80 88 85 85 82 79 77 71 67 65 54 54 53 50 47 47 49 52 53 58 62 66 70 70 62 52 43
99 98 94 91 90 87 82 84 83 79 82 80 83 81 87 92 88 74 68 71 78 84 82 80 78 67 55 54 55 51 52 53 54 57 64 64 65 63 63 61 57 50 49 46
98 97 96 94 94 92 88 88 75 79 72 72 69 70 79 86 89 89 90 85 82 79 72 74 71 62 59 62 63 58 57 58 60 62 60 60 61 62 63 62 59 50 47 46
95 92 97 97 94 96 93 88 78 71 70 69 65 65 70 70 72 76 85 86 85 80 70 73 62 50 48 49 53 59 60 61 64 62 63 66 66 67 62 53 48 45 38 36
98 98 98 96 95 93 86 81 74 68 61 62 64 70 72 68 67 71 76 77 76 72 74 68 57 53 50 53 56 59 62 67 69 68 68 63 58 51 47 45 41 38 36 36
98 98 97 90 87 76 72 65 64 63 63 67 70 74 74 72 73 71 73 68 66 68 64 55 47 48 50 56 59 61 64 66 66 65 60 54 50 46 43 40 39 38 38 40
98 96 92 84 79 74 70 70 69 69 71 73 77 74 73 75 74 69 70 73 69 60 53 46 44 47 51 59 62 62 63 62 61 56 54 53 54 47 42 42 41 42 50 50
98 97 91 83 80 78 75 73 74 78 81 81 79 79 80 77 74 71 71 67 62 54 52 50 51 52 54 63 66 65 63 64 62 62 61 58 48 45 44 46 51 53 50 48
97 95 90 90 84 83 82 82 84 86 85 83 81 82 82 80 81 77 70 68 64 61 61 62 59 60 62 70 71 68 73 68 62 57 48 48 50 52 53 53 51 50 50 50

GFSNW_prec_cthk_030.txt.gz
RH
97 97 99 99 99 92 86 82 78 76 81 83 80 76 83 70 77 97 97 97 97 97 92 90 67 64 67 64 70 81 86 95 96 93 93 91 82 79 76 69 61 60 57 56
98 98 99 98 99 91 79 81 83 74 80 79 77 78 84 71 91 97 97 97 97 96 93 81 60 64 67 66 57 78 90 96 99 99 92 92 94 79 76 67 61 62 60 59
98 97 98 96 99 92 77 82 82 79 81 78 80 85 81 78 97 97 97 97 96 97 86 68 56 61 62 63 62 74 87 94 98 99 91 78 79 80 70 70 69 60 57 53
94 97 96 95 99 88 75 80 78 78 79 79 85 84 74 90 98 97 97 97 96 93 72 66 57 56 60 59 67 78 95 87 88 86 82 78 76 76 67 67 66 65 62 56
94 98 98 98 99 90 77 83 77 77 73 78 88 87 67 94 97 98 97 96 96 89 65 53 57 52 62 61 67 74 85 90 78 76 73 72 74 73 68 65 66 63 64 63
97 96 98 95 96 88 77 78 74 73 73 81 87 75 69 93 96 97 95 94 95 86 56 49 57 54 56 63 69 73 88 86 76 73 64 62 64 62 63 63 64 62 62 58
94 96 98 96 94 83 75 77 77 75 76 82 85 63 77 92 95 98 97 91 87 66 54 54 64 63 58 75 71 71 77 83 80 82 67 77 57 54 54 55 57 58 57 58
94 96 97 98 90 85 77 80 78 77 80 88 88 57 79 91 98 98 96 85 71 68 58 62 75 73 72 79 81 74 70 75 81 86 75 67 60 57 55 52 49 49 52 56
92 95 98 98 87 72 76 78 77 77 84 90 83 61 82 96 98 98 93 75 74 78 77 77 82 81 75 77 76 79 75 73 75 84 80 81 65 60 58 56 58 51 47 48
88 96 99 95 83 83 73 74 77 80 85 93 84 62 87 96 98 98 94 76 78 88 96 96 86 73 72 76 78 86 83 85 85 82 88 70 61 62 60 64 60 54 51 50
89 97 98 90 84 81 77 76 77 80 86 95 82 58 88 94 97 97 94 83 84 86 96 89 83 83 77 80 78 80 83 89 89 90 89 84 65 65 65 63 58 55 54 54
93 98 97 94 84 84 89 83 74 83 90 98 78 59 92 91 91 97 96 91 80 81 83 84 80 80 83 82 90 82 86 80 86 82 79 71 69 69 67 67 65 64 63 61
91 98 99 93 88 90 86 77 77 85 93 96 69 72 87 86 86 95 97 96 92 83 79 86 86 83 82 81 77 82 80 82 77 79 73 74 73 71 69 69 66 62 58 57
90 98 98 88 87 85 80 75 79 87 94 92 70 80 86 84 87 91 98 98 97 97 92 88 90 90 81 87 80 77 77 80 76 73 74 74 73 69 69 66 63 61 64 62
89 96 98 89 86 81 79 76 81 92 96 92 70 81 81 81 84 88 95 98 94 96 97 96 97 96 92 89 86 79 76 76 76 75 72 70 69 68 60 62 67 62 56 55
87 97 95 91 75 81 81 77 78 92 95 90 71 79 86 78 78 82 83 87 88 89 91 92 90 86 84 85 83 75 73 71 71 67 64 59 57 54 55 61 61 60 60 56
91 97 98 89 84 86 84 74 75 95 96 97 78 70 86 83 76 77 81 81 78 80 82 81 79 75 76 74 72 58 56 57 56 53 50 51 53 55 59 60 62 59 55 54
91 97 94 87 91 92 84 78 79 95 99 97 93 81 70 85 84 84 80 81 81 80 79 75 73 70 67 71 58 54 52 49 49 49 52 54 56 57 57 55 55 54 58 62
96 99 94 93 93 86 80 77 85 88 97 98 95 97 93 74 80 87 87 84 85 81 80 80 79 75 69 63 63 59 56 53 52 51 50 51 52 52 54 56 61 64 65 65
98 99 98 93 90 87 84 86 83 87 96 92 93 92 97 96 91 76 82 88 90 87 83 80 79 74 66 64 62 60 58 54 52 52 55 54 57 59 63 64 67 63 59 57
98 97 94 91 87 88 90 90 84 83 82 84 85 91 92 95 94 96 84 75 76 81 82 82 79 69 64 62 61 60 60 59 58 60 59 59 60 63 64 65 64 59 53 49
96 98 98 97 95 95 91 88 81 75 74 70 72 82 82 85 80 86 95 92 84 74 66 69 61 54 55 58 63 65 66 65 65 65 66 65 64 65 66 64 60 53 52 49
99 99 99 98 94 94 86 82 76 70 64 64 64 70 73 74 71 72 77 80 80 76 74 67 62 58 54 50 52 55 59 61 62 66 66 64 66 67 66 62 58 53 44 39
98 98 97 94 93 81 76 70 69 65 63 66 69 72 76 72 72 71 70 72 68 70 68 61 57 57 57 58 59 62 64 64 69 70 69 66 65 62 58 51 46 39 38 41
98 97 96 90 84 78 76 74 70 69 68 70 75 75 75 79 76 72 71 71 70 63 57 52 47 47 53 59 60 61 64 66 69 66 64 63 57 53 49 44 42 43 44 43
98 97 92 87 87 84 78 76 75 73 76 77 76 81 82 77 73 72 70 68 64 58 55 50 47 50 57 59 60 63 63 67 65 64 61 55 52 51 48 49 48 46 45 44
97 96 92 91 88 86 82 79 80 81 81 80 78 79 81 78 76 73 67 65 61 58 55 54 57 60 67 65 65 63 66 68 64 61 60 60 58 55 52 49 47 48 50 57

GFSNW_prec_cthk_033.txt.gz
RH
85 97 98 99 99 98 98 95 98 93 98 85 77 67 69 69 78 88 80 96 97 97 97 97 97 80 61 52 66 75 84 94 92 97 93 91 95 96 94 78 64 63 56 54
93 98 98 98 99 98 98 95 95 98 99 87 72 69 72 74 87 87 90 97 97 97 97 99 87 72 55 68 68 75 85 97 97 98 96 93 95 93 88 77 71 65 58 56
97 97 97 98 98 97 98 96 96 99 98 75 71 76 76 83 89 85 97 97 97 98 97 94 79 60 54 61 68 70 82 95 98 98 98 89 94 88 83 82 78 71 58 56
96 98 96 97 98 99 97 92 96 83 82 81 73 78 82 91 81 92 97 97 98 97 98 87 73 64 57 60 65 70 78 98 96 97 92 86 81 78 76 77 75 70 60 60
97 97 97 98 99 99 98 92 88 76 83 78 81 85 92 92 83 97 98 98 98 98 96 62 61 60 57 63 70 80 84 93 95 95 92 84 84 79 76 70 71 71 68 61
93 97 98 98 97 98 99 91 73 88 90 77 78 84 95 79 90 94 96 97 97 98 85 60 60 62 58 60 64 75 83 86 96 88 91 89 82 74 71 67 67 67 72 64
86 92 96 97 98 99 98 89 72 86 92 80 78 91 92 86 90 97 95 97 96 86 68 70 66 62 52 61 70 67 75 79 91 90 76 82 62 59 66 68 65 65 67 67
87 92 97 98 99 97 91 88 75 89 84 72 81 93 88 88 94 95 97 95 88 78 68 69 69 70 66 74 77 75 74 85 88 91 84 69 59 59 58 59 59 58 60 65
87 91 95 96 99 97 93 86 78 84 79 74 93 92 90 87 92 98 97 87 76 69 62 66 77 83 70 82 84 78 74 75 80 91 87 80 66 61 59 55 60 54 54 57
76 91 89 94 98 96 90 81 77 82 79 81 96 91 92 84 93 98 97 82 76 75 69 70 74 86 68 77 78 84 83 78 85 83 88 73 63 62 61 63 61 57 55 53
76 90 89 95 99 98 93 78 80 82 79 84 96 90 84 86 97 98 97 85 81 87 82 79 82 78 73 68 70 76 89 90 86 85 84 82 62 62 63 63 60 58 55 55
85 90 91 96 99 98 89 80 82 82 80 91 98 93 75 89 97 98 97 91 81 90 95 94 88 82 80 69 73 68 78 74 77 79 76 70 67 67 66 65 63 64 61 63
85 88 94 99 98 91 89 82 82 82 81 94 98 93 70 91 94 95 98 97 90 92 92 89 81 78 76 77 75 79 77 78 77 78 72 74 72 70 70 69 68 67 63 61
83 85 95 98 98 96 90 84 88 81 88 94 96 85 73 92 90 91 96 96 96 93 89 87 87 86 80 83 79 79 80 84 82 78 76 71 69 70 71 69 68 66 65 64
83 82 96 98 97 96 90 93 91 83 90 94 96 87 77 87 87 92 97 98 97 98 93 87 86 89 86 86 83 78 77 80 81 80 73 71 70 72 69 70 64 63 65 63
80 86 97 98 98 97 92 94 91 81 89 96 93 84 83 85 85 90 97 97 97 97 95 96 95 90 88 92 91 82 79 75 75 75 73 72 72 71 71 67 62 64 61 59
74 86 97 95 97 93 90 87 81 78 94 96 94 79 78 87 82 88 92 92 92 93 93 94 92 90 89 87 87 76 73 73 71 72 69 67 62 60 56 55 58 61 61 60
75 88 97 98 97 88 86 84 81 81 95 96 98 90 70 87 86 83 87 89 88 88 91 85 85 83 81 80 68 63 64 64 63 60 59 58 56 57 59 61 61 60 58 54
76 92 99 99 96 83 81 89 84 85 98 95 93 95 80 75 88 87 86 86 86 86 87 87 82 78 75 70 66 63 60 58 57 55 53 54 56 57 57 55 54 54 57 60
91 99 99 95 93 87 93 92 87 90 91 97 96 94 95 93 79 82 88 90 89 87 85 83 84 81 74 74 72 69 66 61 59 58 60 58 58 59 59 58 58 61 65 65
99 98 95 90 96 94 96 96 86 92 90 90 91 92 96 96 97 94 87 80 81 84 84 84 80 75 71 69 69 68 66 65 63 61 62 60 61 63 63 63 67 69 67 61
97 97 94 96 96 94 95 92 89 82 76 76 87 93 93 94 93 95 93 93 90 75 69 73 70 62 64 65 68 67 66 66 65 63 64 66 69 70 71 71 70 67 62 55
99 98 98 97 96 93 85 82 80 79 71 66 71 82 87 91 85 82 80 80 86 85 82 74 65 58 57 54 53 59 64 68 68 71 73 73 73 74 72 71 67 63 57 53
98 99 96 89 89 80 73 70 70 66 68 65 64 74 77 75 75 76 74 71 70 72 71 64 60 60 60 55 54 56 60 63 64 69 70 70 69 68 69 67 62 57 52 47
99 98 93 84 81 77 76 74 72 70 71 70 73 75 73 77 77 72 70 71 70 62 55 51 49 50 51 55 61 64 66 68 70 75 74 74 70 68 67 62 56 48 45 46
98 95 89 84 82 81 80 79 77 77 79 80 78 80 81 79 75 72 69 66 62 54 55 51 49 48 53 57 58 60 63 63 69 70 66 65 63 60 56 50 46 47 47 47
97 96 92 89 87 86 85 84 83 82 80 82 80 80 79 80 77 73 67 64 58 58 55 51 50 56 60 62 63 69 67 66 67 66 62 59 58 52 50 51 52 51 52 52

GFSNW_prec_cthk_036.txt.gz
RH
89 97 98 96 87 90 88 98 98 97 96 98 91 81 79 68 62 74 78 84 87 88 96 96 97 89 77 64 60 72 73 84 86 86 75 79 93 95 96 98 98 95 83 68
89 98 98 97 96 94 91 97 98 99 97 97 82 77 85 77 67 80 83 90 86 96 97 96 91 85 73 59 59 72 77 93 94 86 92 93 96 95 95 95 97 87 66 57
84 94 98 98 91 94 97 95 98 99 98 97 91 95 87 77 74 78 86 89 94 98 97 97 94 81 66 56 66 71 75 85 92 93 94 97 98 97 97 98 97 77 67 56
73 84 95 97 96 98 97 98 98 87 91 88 92 93 80 76 77 86 84 86 96 97 97 97 84 73 65 61 66 70 84 86 92 96 97 96 98 98 97 94 81 70 61 56
66 83 93 95 96 98 98 98 91 92 89 92 96 90 78 79 89 92 88 96 97 98 96 89 77 68 62 63 69 75 83 89 95 96 95 96 96 91 93 80 79 75 67 65
64 76 86 97 99 98 99 96 90 84 89 93 94 82 81 91 95 92 94 97 98 98 95 77 69 67 66 61 65 72 86 91 96 98 92 83 82 83 81 74 77 80 73 61
57 73 81 95 98 98 97 97 96 94 96 87 82 83 84 94 96 97 94 97 97 95 91 74 71 68 63 60 62 72 83 84 91 99 88 89 69 67 74 74 69 68 68 64
50 66 84 94 98 98 98 97 95 83 80 89 91 87 86 95 93 95 97 97 96 94 87 71 68 68 66 67 71 74 78 80 92 98 93 75 63 65 68 72 72 69 67 64
50 66 79 95 96 98 98 97 96 81 82 95 90 79 92 97 96 94 97 98 94 85 85 68 71 79 67 73 79 78 77 75 86 90 89 82 64 61 59 60 65 59 58 60
53 64 81 94 92 95 97 98 99 83 82 88 87 90 96 96 96 96 98 90 84 78 78 70 71 80 69 71 76 80 79 78 82 80 87 77 67 65 61 63 60 55 55 54
48 71 85 89 95 98 98 99 97 81 82 83 85 94 96 96 94 98 97 90 84 77 71 67 71 73 69 65 67 72 75 76 77 77 79 76 60 61 62 65 60 59 58 57
44 72 88 85 91 98 98 97 92 87 83 78 87 96 97 97 94 97 97 91 82 81 71 66 69 73 75 63 71 69 75 70 75 72 72 66 62 65 65 66 64 64 63 60
44 73 83 82 92 97 98 95 84 84 78 78 90 93 96 85 96 97 98 97 82 90 87 90 96 89 82 76 65 66 63 66 73 76 68 73 71 71 73 72 70 68 65 63
45 74 80 83 94 98 97 95 83 89 82 81 93 96 88 88 96 96 97 98 97 89 95 97 94 83 77 73 65 65 70 76 79 80 74 73 72 73 75 74 73 71 70 68
55 71 81 87 93 96 95 90 90 84 81 88 97 97 84 89 95 95 96 97 98 98 94 94 90 90 87 86 85 84 80 81 84 86 76 75 71 72 74 74 72 69 66 68
61 71 82 91 95 98 97 90 88 83 82 91 95 96 90 84 91 94 97 98 98 97 96 92 87 84 86 89 89 80 78 79 80 83 79 78 76 76 78 74 74 68 67 68
59 70 78 93 96 98 98 89 87 84 82 89 94 93 83 88 91 96 97 97 97 98 97 97 93 88 83 85 88 78 79 82 80 80 78 80 78 77 76 74 72 65 64 65
66 69 83 96 98 99 95 94 90 91 83 88 98 96 79 88 90 95 97 96 96 96 97 95 95 92 89 89 77 77 75 77 77 74 73 71 69 68 66 64 61 61 61 60
63 72 95 99 98 97 93 93 91 88 83 88 92 96 85 77 93 90 91 92 92 93 94 93 91 85 84 73 68 67 67 65 67 63 63 67 65 63 63 62 63 62 58 54
67 91 98 96 93 98 93 94 95 94 84 87 93 95 91 87 81 94 90 87 87 88 88 87 88 79 69 72 71 69 64 61 61 62 64 62 62 61 60 60 57 56 56 56
87 98 98 99 100 96 93 93 96 90 84 88 91 95 97 97 95 84 84 89 88 88 87 86 81 77 71 72 73 72 71 70 66 64 63 63 62 64 63 65 64 61 63 64
95 99 99 99 98 97 92 91 90 83 81 81 86 93 95 98 97 94 91 92 88 82 76 75 73 65 65 66 69 69 71 70 69 65 64 66 67 68 70 71 69 69 68 67
99 99 99 98 96 93 89 83 81 81 73 72 81 85 92 97 94 95 92 88 86 80 83 78 64 59 58 58 60 64 66 70 70 69 69 70 73 76 75 75 75 73 70 66
98 99 95 92 88 79 76 73 71 68 72 71 71 76 82 88 91 90 87 81 74 72 72 65 57 56 55 52 52 55 58 61 65 68 71 75 75 75 78 77 72 70 63 57
98 98 95 87 84 79 77 76 74 74 79 78 82 79 78 82 84 78 77 75 72 64 55 50 49 50 52 53 55 59 62 66 65 66 71 68 73 70 69 70 68 63 56 52
98 97 93 88 87 83 79 80 80 81 82 81 80 82 80 79 75 73 70 68 63 55 55 51 50 49 48 51 54 58 59 64 65 69 73 74 73 73 70 64 61 55 49 48
97 96 94 92 90 85 85 85 85 85 86 87 81 79 76 78 78 73 67 64 58 57 56 54 51 53 60 62 62 64 67 67 68 73 73 72 66 63 60 56 51 51 51 50

GFSNW_prec_cthk_039.txt.gz
RH
71 79 90 95 98 89 69 91 88 87 98 98 98 88 79 71 74 78 73 68 74 80 84 88 88 86 81 74 74 78 66 69 71 64 68 75 81 88 92 98 94 97 98 72
67 76 83 93 98 86 82 74 85 98 97 97 96 88 82 72 80 89 76 73 77 84 93 92 87 86 82 80 77 69 62 76 82 71 83 90 94 90 92 97 97 96 98 73
59 69 79 87 97 98 96 95 98 98 98 97 89 87 87 75 83 87 73 74 82 90 95 97 94 90 85 76 69 62 68 80 80 76 81 91 98 95 98 98 98 91 95 78
54 63 75 81 91 98 99 98 98 94 94 96 90 89 85 73 90 87 75 79 85 91 98 97 93 94 87 74 60 65 75 81 85 89 91 96 97 96 97 98 93 97 82 70
49 52 67 81 86 96 95 97 98 97 94 96 94 92 95 95 90 78 80 87 91 98 97 95 96 86 77 67 62 63 73 83 93 94 92 98 99 98 96 96 96 97 92 71
49 46 66 76 85 97 98 98 98 92 95 94 92 89 93 91 82 84 90 94 97 98 96 97 92 79 72 67 66 72 82 92 97 94 95 98 98 98 92 89 91 86 73 65
51 48 65 76 89 96 99 98 98 97 96 92 92 93 92 88 85 95 96 97 97 95 96 97 88 76 68 67 67 72 85 88 95 95 97 97 79 78 88 89 83 74 67 63
48 48 70 76 92 95 96 98 98 95 94 90 90 93 86 87 92 97 97 97 95 97 98 94 79 75 73 67 63 68 79 88 95 99 97 82 74 72 77 77 75 75 75 71
48 42 63 71 88 91 94 97 97 95 92 96 93 96 92 91 91 97 97 96 97 97 95 86 74 77 69 72 75 73 81 83 92 98 94 89 72 71 68 70 75 70 70 69
48 43 59 69 81 84 90 96 98 95 87 83 85 90 87 87 97 98 97 98 98 94 93 82 72 80 69 73 69 82 84 86 90 91 89 76 69 68 63 64 65 62 61 62
48 37 61 76 83 84 88 97 97 97 81 86 85 89 88 95 97 98 97 97 91 87 87 73 67 68 68 67 67 75 81 82 82 80 82 75 62 62 62 63 60 59 56 57
53 37 62 82 86 86 87 93 97 98 91 82 88 84 90 96 98 98 96 97 87 78 77 66 65 72 73 66 71 67 74 67 71 69 69 62 59 61 61 64 64 62 62 60
46 41 66 82 83 86 88 90 98 96 89 89 83 80 94 97 96 96 97 95 95 86 75 69 70 72 72 74 66 62 66 67 69 69 69 70 68 65 66 66 67 67 63 64
38 48 72 79 82 87 91 93 94 91 89 87 81 91 98 96 97 98 98 98 93 97 92 84 82 88 84 79 70 63 59 61 61 71 73 70 70 72 72 72 73 69 68 67
52 59 71 77 82 86 88 92 92 88 95 90 85 94 97 88 98 98 97 97 97 89 94 96 96 94 85 80 72 62 59 62 75 77 76 75 72 70 71 74 73 74 71 73
58 63 69 74 84 91 94 91 90 92 91 88 92 96 97 95 98 97 97 98 98 98 92 94 91 89 87 84 80 71 73 77 77 79 82 80 76 74 74 75 75 75 72 73
52 59 70 77 86 90 89 88 84 88 88 88 94 95 91 92 95 97 98 98 98 98 98 97 94 92 87 84 84 73 72 73 74 80 79 82 80 77 76 77 78 78 74 72
50 58 65 82 90 93 94 93 85 88 83 82 96 97 94 87 97 98 96 98 97 97 98 95 94 91 88 88 76 75 74 79 82 81 78 77 77 77 78 79 78 77 72 69
49 57 68 89 93 95 95 96 90 90 90 80 87 96 96 83 97 96 96 98 97 95 97 96 95 94 90 79 78 76 72 74 79 76 74 75 75 75 75 71 68 65 67 66
49 59 87 93 94 96 98 97 92 92 88 82 82 94 96 86 90 96 93 91 92 91 91 88 89 87 75 73 68 69 68 67 70 69 68 69 75 68 67 65 62 61 60 58
66 86 94 96 99 99 96 98 90 92 90 80 76 89 96 92 93 90 93 93 89 86 83 84 80 77 66 66 66 68 68 68 66 65 65 64 66 64 62 61 62 61 61 61
88 95 96 99 99 97 95 90 88 86 85 79 73 89 92 98 98 94 89 85 83 79 79 77 73 66 65 66 68 69 70 70 71 70 68 66 66 68 70 69 70 69 68 66
96 97 99 98 96 96 88 83 81 81 75 73 73 85 92 96 97 97 95 93 91 83 79 74 65 59 57 62 66 67 70 71 70 72 71 72 72 73 73 74 74 72 71 76
98 99 98 95 94 87 82 76 76 73 74 76 75 80 87 91 96 97 94 89 82 78 73 65 58 56 57 56 56 59 64 67 68 69 71 72 74 75 77 76 75 76 76 72
98 98 98 89 87 87 85 82 81 80 79 77 81 79 77 85 89 87 86 84 78 70 59 51 48 53 56 57 56 56 58 62 65 66 67 69 73 75 73 74 77 74 74 64
98 98 93 89 88 90 87 86 84 83 86 86 85 87 84 81 79 79 76 72 66 55 55 51 51 52 51 51 52 54 58 62 65 68 71 76 76 74 75 73 74 68 60 53
97 94 88 90 90 91 89 89 89 88 89 90 88 86 82 84 82 73 64 61 54 52 54 53 53 52 52 54 56 58 62 64 65 66 69 71 75 76 72 71 64 59 56 52

GFSNW_prec_cthk_042.txt.gz
RH
56 59 70 79 91 98 97 85 80 78 83 99 99 98 90 78 81 79 77 65 66 68 72 74 74 70 68 66 72 82 80 84 77 54 52 58 66 74 84 95 88 94 91 64
58 59 67 70 84 95 98 82 92 94 82 97 98 97 92 85 87 84 76 72 67 70 74 79 73 71 70 74 79 82 80 81 71 58 68 74 78 83 89 95 97 96 97 68
61 58 57 69 75 93 95 92 92 98 97 98 94 97 92 89 85 80 74 83 75 75 77 79 78 77 76 79 79 83 77 71 65 70 69 78 88 94 94 98 98 96 85 65
60 59 52 68 77 92 96 90 89 96 95 95 96 94 91 92 86 75 79 87 76 77 79 78 80 84 84 85 85 82 72 72 74 78 82 89 96 97 98 97 95 96 71 77
61 59 50 66 86 97 98 97 95 91 88 96 98 93 91 86 80 75 85 85 75 78 79 82 85 88 91 89 84 74 70 73 75 86 89 96 95 90 90 88 90 92 89 83
62 59 44 62 85 96 97 96 98 95 97 94 94 96 91 87 77 82 83 80 85 88 89 93 93 95 93 90 82 72 75 78 86 92 92 98 96 92 89 88 89 90 92 79
57 58 41 67 82 97 97 99 98 97 97 95 93 92 92 95 96 92 86 88 95 95 96 97 97 98 94 84 71 70 79 84 96 96 95 98 93 92 96 90 83 85 81 71
60 55 43 63 76 95 98 98 98 96 97 95 93 93 93 92 94 87 89 94 96 98 98 98 98 96 88 70 60 66 77 90 98 98 98 93 77 75 91 95 86 73 71 72
55 58 51 64 81 90 97 98 97 98 93 91 91 95 94 97 94 93 91 96 97 98 98 98 93 83 69 72 70 65 78 87 97 98 98 95 76 74 73 77 90 83 76 74
48 58 49 66 82 89 95 97 95 96 95 92 92 94 93 95 89 92 97 97 98 98 98 95 92 79 65 73 72 80 86 92 97 96 96 80 73 73 69 71 71 68 72 74
50 58 44 60 83 84 89 93 96 98 95 91 86 86 91 95 93 96 97 98 99 98 98 88 80 68 70 69 73 74 83 93 90 88 85 85 69 70 67 66 65 66 66 66
49 52 42 58 81 83 87 92 94 97 98 88 84 84 86 90 94 98 98 97 97 90 91 80 73 67 74 69 71 71 83 75 74 72 72 66 68 71 69 70 68 65 65 63
42 41 46 61 77 79 85 93 95 96 94 82 80 83 86 89 97 97 98 98 96 87 85 75 67 63 72 73 67 68 69 71 71 71 65 68 69 67 66 67 68 69 66 66
30 45 56 69 77 79 84 88 89 92 92 87 82 89 92 97 98 98 98 96 93 85 80 77 69 65 64 68 65 65 59 65 66 65 59 68 70 69 69 70 70 70 70 69
30 47 59 74 77 81 87 87 92 93 93 92 92 90 90 98 96 97 98 97 97 95 91 82 79 75 76 85 78 70 60 58 66 66 68 72 69 71 72 73 73 75 73 73
39 47 60 71 78 84 89 90 91 89 92 95 96 93 94 97 98 98 98 98 98 96 93 91 92 86 88 87 79 65 59 56 58 68 71 74 76 76 75 74 77 76 75 73
45 51 63 70 76 81 85 87 93 92 92 91 95 95 96 93 97 98 98 98 99 99 98 93 88 88 85 82 79 68 64 62 64 72 76 79 81 79 77 77 79 80 76 76
47 54 66 72 83 88 91 94 93 88 94 88 93 95 94 90 97 98 98 98 98 97 98 95 93 93 89 87 77 71 72 71 73 77 78 81 80 80 80 81 80 81 80 77
46 58 66 82 88 90 93 95 91 91 90 85 82 89 93 88 93 97 98 98 98 97 98 99 95 89 84 77 75 74 75 76 78 82 81 80 80 79 80 80 81 82 80 77
48 66 81 89 90 92 97 98 96 95 89 80 80 82 91 89 89 97 96 96 96 95 95 95 92 86 79 78 77 76 74 73 76 78 81 78 79 78 78 78 76 70 69 69
69 78 88 90 95 98 96 95 93 93 89 80 76 79 86 90 90 92 92 94 90 87 85 88 82 76 74 73 69 67 66 67 71 73 70 69 74 74 72 71 68 65 63 61
76 84 84 93 96 97 96 93 90 84 82 82 80 75 85 93 94 91 92 88 87 83 80 80 76 65 65 64 65 66 67 67 67 69 71 71 70 70 69 66 65 67 68 68
81 86 86 93 96 95 90 84 84 83 81 82 83 81 86 93 96 96 95 90 84 84 82 74 67 61 60 64 66 67 70 70 70 71 74 75 75 75 73 73 74 73 74 74
88 93 93 94 94 87 84 81 83 81 79 84 84 83 84 90 95 96 97 92 87 84 77 64 61 55 58 55 61 67 70 72 72 73 74 74 76 77 76 76 78 76 74 75
94 96 98 93 90 89 84 84 85 84 84 85 86 85 81 86 93 92 92 88 83 75 62 53 48 52 59 60 59 58 58 63 69 72 74 75 78 77 77 77 76 74 82 80
94 95 96 92 91 91 87 86 88 87 88 89 86 86 85 86 84 84 84 78 71 59 57 52 50 52 51 52 54 56 59 62 64 66 68 70 73 74 75 77 73 81 80 73
89 93 90 89 87 90 88 87 89 91 92 94 92 89 86 84 84 79 71 66 60 54 51 52 53 53 51 52 53 55 56 58 61 64 67 70 71 74 72 73 75 71 64 58

GFSNW_prec_cthk_045.txt.gz
RH
51 51 65 56 63 77 96 95 92 85 83 94 94 98 97 92 86 79 76 70 62 62 64 67 67 64 62 62 64 69 68 76 76 73 66 57 58 65 69 79 77 91 89 62
49 55 66 54 65 79 90 90 99 89 76 93 95 95 98 95 89 82 76 76 72 67 69 71 65 66 66 65 66 71 72 79 80 68 67 63 71 75 81 84 92 90 95 59
51 61 62 52 68 79 95 97 99 87 98 91 92 94 97 97 92 85 78 81 77 72 70 67 70 71 70 71 71 72 73 79 75 64 56 66 84 88 90 96 95 83 73 61
52 63 62 54 71 92 94 90 98 93 88 93 97 94 91 91 91 86 81 84 78 79 76 73 72 72 74 74 75 77 82 82 70 65 72 78 87 91 97 98 93 90 64 68
56 60 59 60 70 98 96 97 93 91 92 88 94 95 94 93 95 88 81 75 81 78 73 72 74 74 77 74 79 84 83 76 72 73 77 86 96 97 97 96 91 87 84 89
55 55 58 53 77 97 95 94 92 89 87 90 96 96 94 93 88 82 75 74 83 79 79 77 77 82 83 83 85 86 82 75 78 82 89 95 98 96 95 93 91 83 82 82
52 54 51 51 77 96 94 92 92 90 88 88 91 92 87 87 86 79 78 81 86 88 89 90 90 90 89 89 89 85 78 79 81 94 95 97 93 94 94 95 89 83 74 74
47 45 52 57 74 93 97 98 99 99 98 97 94 91 92 95 95 90 89 88 84 96 97 97 92 89 90 89 86 76 75 80 94 97 97 86 85 91 93 94 86 83 78 72
43 40 54 53 66 96 99 98 98 98 98 97 91 92 90 95 91 93 89 85 95 98 97 97 92 91 85 88 75 66 77 83 96 97 97 93 82 76 81 91 90 84 79 77
37 43 50 50 66 91 98 98 98 97 97 91 89 88 89 90 95 92 88 92 97 98 98 97 92 88 82 81 68 69 80 88 95 97 97 81 73 76 75 76 77 81 80 76
40 52 47 46 61 85 91 92 91 92 92 90 88 88 88 93 94 95 96 98 97 97 98 98 89 89 77 68 67 71 76 86 93 94 95 86 73 76 73 71 71 73 72 74
34 44 49 54 63 78 86 91 92 92 91 88 89 86 88 91 89 93 98 97 98 97 98 93 91 82 74 70 77 78 80 75 82 80 76 67 70 73 74 73 71 70 70 72
24 36 50 62 67 73 81 88 92 93 95 91 89 85 85 87 91 95 97 98 98 98 93 92 88 73 76 81 75 72 75 77 74 71 64 65 66 66 68 69 71 71 68 70
33 34 51 62 68 73 78 87 93 94 96 91 87 85 90 93 97 98 98 97 97 96 95 93 80 73 68 74 68 69 68 70 69 69 62 58 63 69 69 71 70 70 71 73
44 33 42 55 65 71 77 86 91 94 97 97 93 88 92 93 97 98 98 98 95 89 88 83 75 69 69 69 66 71 67 65 67 62 62 66 70 70 73 75 74 75 75 74
45 43 41 52 64 73 81 86 86 93 95 96 95 93 96 96 98 98 98 98 94 91 89 79 73 69 69 79 80 69 66 60 56 61 63 68 73 77 78 78 77 78 79 79
43 42 43 58 67 76 82 86 90 90 91 94 94 98 98 93 98 98 98 98 98 96 95 89 87 87 86 81 76 68 66 64 57 56 59 70 76 82 82 79 78 83 81 78
42 41 49 68 75 82 84 90 94 93 96 92 89 97 95 95 97 98 98 98 98 98 97 94 91 88 84 79 72 67 66 64 62 62 67 76 77 83 85 84 82 85 84 81
37 44 64 76 79 86 91 93 94 92 93 91 86 90 97 93 92 98 98 98 98 97 96 95 94 89 82 79 73 71 72 71 72 74 79 83 83 86 86 85 84 83 86 83
44 67 80 83 85 95 94 95 92 92 91 86 80 82 89 90 94 96 97 97 98 97 95 95 93 86 77 74 73 75 76 76 78 82 84 86 86 83 85 84 84 86 82 82
74 85 86 86 90 93 93 92 93 94 91 87 80 79 82 86 93 91 94 96 93 92 89 92 88 80 74 77 80 78 76 73 77 81 80 79 78 79 80 80 79 79 77 76
85 87 87 89 91 94 92 92 90 89 87 86 83 80 80 87 94 93 93 89 89 89 85 86 80 69 72 76 76 73 71 67 70 70 74 75 75 74 76 76 77 73 70 66
85 89 91 90 91 92 88 86 87 88 87 88 85 84 81 84 92 95 95 90 85 80 84 77 68 67 65 68 68 68 69 70 69 69 71 76 78 78 78 77 76 77 76 75
83 86 88 86 89 84 84 83 84 86 84 86 87 89 88 86 91 94 93 93 89 86 80 66 60 56 58 60 64 68 69 70 71 72 73 76 79 79 79 78 79 79 77 76
79 83 87 82 81 82 83 86 87 86 85 88 87 87 83 88 88 91 91 89 87 80 66 56 51 51 59 62 60 59 63 68 71 73 74 76 77 79 79 78 79 77 77 77
81 81 84 83 83 84 85 86 87 87 87 91 88 87 84 83 82 80 84 82 78 64 62 53 52 52 52 52 56 61 62 62 63 63 67 71 73 74 74 73 72 72 79 81
71 85 86 85 86 89 91 89 91 90 91 92 90 87 84 86 86 81 73 70 68 64 61 56 54 55 54 52 53 54 56 58 60 63 67 69 71 73 72 71 81 80 78 74

GFSNW_prec_cthk_048.txt.gz
RH
51 51 63 68 61 68 82 94 98 95 78 67 71 82 91 89 90 89 81 74 69 64 63 65 64 62 59 58 58 65 64 70 66 61 58 62 64 63 61 65 61 66 71 49
51 52 60 62 54 72 93 97 98 93 85 77 78 83 96 96 92 87 80 75 67 65 64 68 63 61 59 59 61 63 66 73 67 62 67 68 65 58 58 65 74 80 88 51
51 53 52 57 57 90 96 98 99 86 93 93 85 85 98 97 91 84 83 79 69 65 65 63 62 61 64 64 64 66 66 67 65 63 66 65 65 60 68 85 94 81 73 52
46 53 53 57 63 90 93 99 94 81 97 91 84 87 93 93 93 87 82 81 75 71 71 65 63 61 67 67 67 70 74 78 72 70 61 58 65 77 84 94 89 92 61 67
47 48 53 58 62 82 87 97 98 99 91 94 94 91 84 81 88 90 84 81 78 75 73 67 64 62 63 66 72 78 78 78 76 64 61 70 84 86 89 97 98 93 87 81
46 46 48 55 65 86 92 93 95 96 89 88 90 86 82 84 86 88 90 80 74 72 75 71 68 72 74 74 73 79 82 85 73 63 70 84 97 96 94 95 95 93 86 75
39 49 44 51 61 89 91 92 95 94 94 92 91 89 89 87 88 91 86 78 69 79 80 81 84 82 80 81 79 80 86 81 69 70 83 95 94 91 94 95 91 90 78 72
29 42 39 56 58 84 95 96 95 93 93 90 92 91 89 84 83 80 77 77 80 88 85 92 90 88 87 83 83 88 87 77 76 87 88 82 89 92 94 91 90 90 82 76
35 40 45 60 64 84 96 98 98 97 95 91 90 87 85 85 85 87 82 83 85 85 93 97 91 87 78 82 83 85 80 70 81 96 93 82 74 78 83 92 96 89 85 84
36 47 50 57 69 84 92 96 97 96 97 94 89 85 84 86 85 89 91 91 91 90 95 97 92 82 75 82 78 78 72 80 85 94 95 73 69 75 76 79 84 89 86 82
18 32 44 55 70 77 90 95 93 94 93 91 87 83 83 85 89 94 93 90 91 96 97 98 90 80 77 79 73 58 64 72 83 88 90 83 72 77 75 73 75 76 78 82
24 26 37 58 69 76 82 86 89 91 90 87 86 83 83 85 88 87 90 96 96 96 98 96 90 85 83 74 63 64 68 62 76 76 73 67 69 71 73 74 75 74 73 73
48 41 42 54 66 74 81 85 87 85 86 82 82 81 82 83 87 88 96 97 97 97 95 95 93 87 78 67 59 64 69 75 74 74 67 67 66 67 65 70 73 72 69 70
50 49 46 46 60 68 78 84 85 87 87 87 82 82 84 89 91 95 98 97 98 97 97 96 95 87 71 67 69 69 69 75 74 66 60 60 61 67 71 70 70 71 69 73
53 52 49 45 55 64 75 82 87 90 89 89 89 86 85 91 94 98 98 98 98 98 97 96 95 84 77 71 74 68 64 66 64 58 60 62 67 73 71 74 71 73 74 72
50 48 47 51 55 66 76 86 88 88 90 91 92 92 93 96 98 98 98 98 98 97 94 92 90 87 79 74 64 59 64 61 61 62 61 63 68 75 79 79 77 76 79 83
47 46 46 54 59 70 78 84 87 86 91 91 95 97 97 97 98 98 98 98 91 92 93 91 81 76 75 74 72 67 67 65 62 57 61 63 69 76 82 82 81 81 82 83
42 45 46 55 66 74 80 86 87 89 90 92 92 91 95 98 98 98 98 98 98 94 93 91 88 84 83 81 65 62 63 65 63 58 57 60 71 80 82 85 85 86 88 83
38 39 50 65 73 76 80 88 90 92 96 93 88 89 93 95 96 98 98 99 98 96 95 94 92 89 85 73 70 71 72 69 67 67 66 71 79 84 85 88 88 87 86 85
51 63 76 81 87 87 89 90 92 92 93 88 85 82 87 88 93 97 98 98 98 98 96 95 89 82 75 73 72 73 72 73 76 79 82 84 85 87 90 90 87 87 89 87
76 80 83 88 90 87 87 89 90 93 89 88 83 81 82 84 91 94 97 98 97 97 93 92 89 78 71 73 73 75 77 78 78 84 85 86 84 86 87 87 87 88 86 85
82 85 85 87 87 87 87 86 86 86 86 84 85 84 82 85 90 94 95 93 91 93 89 90 84 72 73 75 78 82 80 77 76 79 80 82 80 78 80 80 83 84 81 76
84 86 88 88 85 87 85 83 84 84 82 82 83 84 82 82 87 95 94 94 89 83 84 80 71 71 68 73 80 78 76 72 73 72 73 76 79 79 78 79 80 81 81 77
86 87 89 84 86 81 84 82 83 84 83 82 83 87 86 82 86 90 92 92 91 89 82 69 58 57 58 66 70 73 74 74 74 74 74 77 81 81 82 83 83 82 80 80
79 84 87 83 83 84 83 81 84 84 84 85 87 86 87 86 87 87 87 93 91 82 66 56 53 53 60 65 63 65 71 73 74 75 76 77 80 81 81 81 81 79 78 78
72 78 81 80 81 81 81 80 83 87 88 88 88 89 87 86 85 83 82 80 81 69 65 61 56 53 53 54 59 63 65 68 68 69 72 76 81 82 83 83 81 78 75 76
59 65 72 76 80 82 82 79 85 90 91 91 90 87 85 84 86 84 78 75 70 71 70 66 61 59 56 54 53 53 56 59 61 65 68 70 72 74 74 74 74 75 77 80

GFSNW_prec_cthk_051.txt.gz
RH
42 43 50 54 55 68 95 98 95 95 80 80 71 75 86 88 93 92 81 76 72 70 64 66 65 64 62 60 59 61 60 58 63 60 51 54 60 61 62 69 58 54 54 47
40 42 47 51 49 90 96 97 91 92 73 71 76 82 96 97 96 94 86 79 75 70 69 70 66 64 63 62 61 59 58 60 61 57 56 54 56 60 63 61 58 64 80 53
41 43 46 49 52 86 98 97 94 89 98 67 81 86 93 98 96 92 86 80 73 70 70 69 69 66 64 62 61 60 59 57 56 57 61 63 69 60 52 60 79 75 69 59
37 43 48 49 53 82 98 95 91 94 85 85 87 84 96 96 95 87 84 81 75 71 71 67 64 62 65 64 63 62 63 63 57 57 59 59 60 57 65 77 79 86 64 69
30 34 44 52 45 74 97 91 97 93 90 83 86 86 85 95 88 88 84 81 77 72 67 62 63 60 60 60 64 65 66 64 61 64 59 55 58 68 76 79 85 87 84 81
29 26 45 51 43 79 94 95 93 92 89 88 87 82 84 96 88 89 85 81 77 73 71 68 64 63 60 61 65 70 75 76 71 70 56 60 77 83 88 91 95 97 94 83
26 27 42 50 48 76 92 93 95 95 91 87 86 80 78 80 84 84 87 82 78 76 71 72 72 70 70 69 69 69 76 76 73 73 59 81 86 84 91 93 92 92 91 84
30 29 40 53 55 70 90 95 94 94 94 90 84 83 82 80 82 86 84 83 80 72 76 80 80 82 80 80 77 78 76 83 81 74 71 68 80 86 92 94 90 91 86 82
30 29 37 48 63 72 86 95 95 95 96 87 84 82 82 82 82 84 81 77 76 76 81 84 80 80 73 81 79 82 87 83 86 76 84 84 74 77 82 87 97 90 89 86
30 18 30 49 66 76 85 94 95 91 95 90 88 87 84 81 78 80 80 81 83 82 85 85 85 80 73 77 76 86 90 87 76 67 87 73 68 74 81 86 81 87 92 85
35 31 26 47 69 77 86 92 92 91 92 92 85 82 81 84 84 85 87 87 87 90 87 88 87 79 77 71 71 78 74 71 65 72 82 81 71 78 79 77 79 81 84 86
31 39 37 49 63 76 87 93 94 94 95 94 89 85 83 84 87 88 87 90 89 90 91 91 89 81 77 73 81 72 62 47 61 65 72 67 72 72 74 75 76 78 78 74
31 40 50 52 56 72 85 93 94 95 95 91 89 85 82 82 86 90 92 93 95 92 94 94 90 88 79 78 71 70 54 58 61 71 65 68 69 70 68 67 74 77 75 74
36 48 56 48 57 61 76 90 92 90 90 87 84 82 84 83 84 91 95 96 98 96 97 96 92 92 83 80 74 60 58 64 70 69 64 63 64 66 70 72 71 71 71 72
47 49 54 54 55 57 71 81 85 87 89 89 86 84 82 86 90 94 98 99 98 98 98 96 94 90 89 77 65 56 59 61 68 65 62 61 67 69 74 71 72 73 76 74
48 49 50 59 54 58 75 86 86 89 93 93 93 93 89 94 95 98 98 98 99 98 97 95 90 90 87 78 61 54 55 58 59 56 59 61 64 69 74 76 78 78 80 81
49 48 46 55 53 63 78 85 87 89 91 92 91 95 95 97 98 98 98 98 98 97 96 95 96 90 80 72 64 58 68 69 66 63 62 61 62 67 70 78 81 81 81 82
42 38 49 52 58 69 77 83 87 89 92 92 93 90 92 98 98 98 98 98 93 93 97 97 96 92 83 76 66 63 66 64 63 62 59 57 61 60 70 81 82 85 85 87
37 40 44 56 70 75 77 82 88 90 93 95 92 90 94 97 97 98 98 98 99 98 98 94 91 83 76 73 70 67 66 66 65 65 62 59 57 63 77 83 85 90 90 86
51 61 70 74 73 79 81 87 88 92 94 92 88 85 87 90 94 96 98 98 98 99 98 94 92 87 77 72 72 71 70 71 70 69 71 70 74 80 83 88 91 91 89 88
69 74 77 80 81 82 84 89 89 91 89 87 86 84 85 87 89 95 98 98 98 99 97 96 91 81 74 72 71 72 74 76 77 79 84 84 84 86 91 93 90 89 90 89
73 76 82 83 85 85 85 86 86 87 88 84 84 86 86 85 88 96 98 98 96 97 93 94 89 78 75 73 76 75 75 78 79 83 88 91 90 88 90 91 90 89 89 89
77 81 85 85 83 85 81 82 83 84 81 83 83 85 85 82 85 95 98 98 96 88 90 86 77 71 72 71 82 85 84 83 80 84 84 81 84 85 85 86 86 88 84 82
80 84 85 81 83 76 79 79 82 82 84 83 84 86 87 84 84 87 93 94 95 92 84 73 61 60 62 71 77 83 82 79 77 79 79 80 82 82 82 83 83 84 84 83
79 82 84 78 77 80 78 80 81 82 83 85 87 86 88 89 88 87 87 91 95 85 73 67 61 57 64 68 69 72 80 80 80 79 80 81 83 84 84 85 84 84 84 81
80 81 81 79 78 78 82 82 83 83 86 87 88 90 90 88 88 87 86 84 80 79 71 68 65 61 60 61 63 65 69 75 76 76 77 78 81 82 84 85 87 87 85 79
59 66 75 79 81 81 81 82 84 83 82 88 90 91 91 85 87 86 83 82 78 71 73 75 71 66 64 59 57 58 61 64 67 70 72 72 73 74 77 80 81 80 76 74

GFSNW_prec_cthk_054.txt.gz
RH
42 44 39 42 46 72 84 90 90 84 84 82 76 69 76 88 94 97 90 83 78 71 74 73 66 65 64 56 60 60 63 61 73 65 58 59 59 58 59 68 61 64 64 51
42 41 38 44 46 74 88 94 83 79 85 75 71 91 92 88 98 94 87 83 80 68 68 72 69 65 64 63 64 65 63 67 68 61 62 57 58 59 58 59 62 64 71 54
42 34 34 41 49 75 88 86 90 94 84 79 89 91 94 98 97 92 86 81 78 78 77 75 75 71 69 67 66 62 60 57 62 76 64 61 61 57 58 65 68 62 67 61
41 32 30 40 47 78 87 82 90 88 82 85 94 91 97 97 98 93 86 82 80 78 76 73 76 73 71 68 65 60 60 63 58 56 56 55 58 62 58 58 60 75 62 66
40 27 31 44 41 80 85 89 87 90 82 89 88 84 94 99 93 95 83 83 78 76 76 71 67 66 62 61 62 60 60 60 56 56 52 54 57 53 54 61 69 69 71 72
42 34 34 46 41 78 87 88 81 76 83 80 89 85 90 94 94 91 89 80 76 76 71 67 66 65 61 58 60 65 67 66 63 61 55 56 62 58 69 72 72 72 78 75
41 35 43 46 47 70 81 86 81 78 86 86 84 81 82 92 93 87 82 78 77 77 72 70 67 66 65 63 64 63 67 71 67 68 62 73 68 73 81 84 83 83 86 90
37 27 37 42 51 62 73 82 84 87 87 84 77 79 79 81 81 85 81 80 80 77 71 74 77 76 74 74 70 68 69 70 73 75 73 60 62 83 84 88 87 87 91 91
35 31 25 36 50 64 73 82 84 88 88 83 80 80 79 81 79 84 84 84 81 75 73 80 75 74 71 80 76 75 76 76 82 81 82 74 70 78 81 84 95 90 93 91
26 36 34 34 46 64 77 83 88 89 91 87 87 84 84 82 81 84 84 82 80 76 77 81 79 74 68 78 75 85 84 86 84 82 74 69 67 77 81 89 84 83 88 90
23 35 40 44 48 62 78 87 88 89 92 87 87 88 85 82 80 83 85 83 81 83 83 84 82 80 75 72 72 80 80 84 83 75 70 78 72 79 83 80 77 80 82 84
27 33 40 52 59 60 75 86 86 90 94 91 88 87 87 86 89 88 90 89 85 83 86 87 87 86 77 77 79 73 76 65 58 54 61 67 75 77 75 72 74 76 79 80
35 37 43 56 63 64 73 86 88 89 92 92 88 83 83 83 83 85 85 87 87 90 90 90 90 88 83 82 74 73 70 60 52 60 65 71 72 74 72 71 73 75 77 76
31 43 46 56 62 64 74 86 92 93 95 95 91 84 82 81 81 84 86 91 93 95 94 91 91 90 85 82 79 77 72 61 55 62 65 69 72 76 74 72 72 70 73 74
40 45 47 57 62 63 71 83 90 91 93 87 84 81 80 80 82 83 92 93 95 96 95 94 93 92 87 86 82 76 66 59 66 73 75 75 75 74 70 74 73 73 78 78
45 46 48 59 57 56 76 92 88 86 87 88 84 86 85 86 89 93 94 96 97 97 96 95 91 88 91 89 85 68 55 54 61 68 71 68 66 67 67 72 78 79 82 82
51 45 48 55 50 58 84 86 86 85 90 90 89 89 92 94 98 98 98 98 98 98 97 95 96 94 92 85 80 63 58 65 69 74 72 63 60 62 64 71 74 81 84 83
42 44 48 56 54 67 81 86 87 87 91 91 89 89 92 96 98 98 98 97 92 95 97 96 95 94 93 86 70 65 64 65 72 75 71 66 64 63 62 65 70 81 85 87
42 48 49 55 67 78 82 87 89 90 93 94 92 93 94 97 97 97 98 98 98 98 97 98 98 96 88 81 74 75 77 77 76 73 69 68 63 59 60 60 72 83 89 91
54 60 72 77 78 79 82 86 86 89 92 92 91 88 91 91 95 97 97 98 98 98 98 98 98 95 87 83 80 78 78 78 75 74 70 67 64 62 61 70 83 89 92 89
69 75 79 79 79 82 83 85 86 89 89 89 90 88 89 91 93 97 97 98 98 98 98 98 97 92 85 78 71 71 72 73 76 75 76 76 79 79 81 85 91 92 91 92
72 80 81 83 85 85 83 83 85 87 89 88 87 89 89 89 89 94 98 98 98 98 96 98 96 89 79 70 71 76 76 76 78 78 79 84 87 90 91 94 94 90 91 92
78 84 85 85 84 84 80 81 83 84 85 83 85 86 88 87 87 92 98 98 98 94 94 93 84 74 69 79 83 88 84 82 81 80 86 89 90 91 91 94 92 92 92 92
79 85 85 83 84 77 81 79 80 81 82 83 85 85 87 90 87 88 92 94 97 93 85 82 73 67 70 76 81 90 91 87 86 83 85 86 87 86 86 88 88 89 89 85
80 81 85 82 79 82 78 78 80 81 82 83 85 85 85 87 91 88 88 90 96 91 87 81 71 66 67 68 71 75 84 87 84 83 83 84 84 84 84 85 85 86 89 88
75 79 80 78 81 79 81 81 80 82 82 83 86 86 86 84 84 89 89 87 86 85 80 77 74 71 69 67 65 65 71 80 84 83 84 85 84 85 85 86 87 87 89 89
63 71 76 78 80 83 81 79 81 84 86 86 84 83 86 84 84 86 87 88 85 78 75 75 79 77 72 68 65 64 66 68 72 78 80 79 79 78 80 83 86 89 90 89

GFSNW_prec_cthk_057.txt.gz
RH
44 44 34 34 42 68 81 75 70 71 75 74 81 79 83 91 94 98 96 90 80 81 84 84 78 67 57 47 49 55 53 57 68 67 59 58 59 63 63 68 60 65 64 53
37 42 29 30 51 73 77 70 73 71 65 73 78 81 96 95 95 98 95 88 76 73 80 84 80 68 58 52 52 55 53 62 70 67 64 60 62 60 59 59 61 65 70 49
41 40 23 31 46 78 76 74 70 65 67 75 85 92 97 96 98 97 91 83 71 75 79 75 80 70 69 63 60 58 57 62 65 68 63 62 64 58 58 61 70 64 59 54
41 36 29 34 47 80 80 76 73 66 70 81 89 98 98 98 98 94 89 86 79 81 86 79 77 70 72 71 68 66 64 68 62 64 61 58 57 55 55 63 58 64 60 60
41 37 35 39 45 81 84 83 75 79 82 85 85 91 98 99 98 94 86 88 86 78 77 73 71 68 70 69 68 65 63 65 62 58 52 53 54 52 57 56 57 63 70 69
32 34 26 34 47 76 83 81 80 82 84 85 87 88 96 97 95 91 87 86 86 85 76 66 64 62 60 59 62 65 64 64 61 63 53 53 55 53 56 60 70 71 74 68
32 32 21 28 51 62 80 80 84 82 84 82 87 87 93 97 95 88 84 82 81 79 76 72 70 69 69 67 66 64 67 68 63 64 59 65 50 58 64 79 81 77 75 74
32 28 29 22 46 61 68 76 79 85 84 82 78 80 81 84 85 83 81 78 77 73 71 72 74 76 73 72 71 72 72 70 71 71 68 54 59 68 83 88 85 88 88 83
36 24 32 25 40 58 68 77 81 86 84 82 82 78 78 78 78 81 85 81 78 77 74 73 74 73 74 80 75 76 77 75 77 73 76 74 62 68 79 83 93 85 86 89
38 26 24 33 36 51 66 76 82 83 83 81 82 79 79 74 76 81 81 83 79 75 74 73 76 74 69 82 79 83 82 80 78 77 79 63 55 74 80 93 83 81 85 87
42 27 22 30 39 52 60 76 79 84 83 83 82 82 83 81 81 85 83 80 77 76 75 74 75 76 69 72 75 81 78 80 77 76 83 72 65 81 86 83 78 78 78 78
44 31 26 26 45 52 58 77 86 88 91 90 85 86 87 86 83 82 83 83 81 80 81 81 81 84 81 79 80 78 80 74 77 69 60 53 69 77 78 74 73 74 77 79
43 34 30 32 44 58 63 72 82 86 90 91 87 85 84 83 85 85 85 86 83 84 84 88 87 87 82 85 78 75 72 73 70 59 56 64 72 76 75 75 77 78 73 74
40 35 38 37 44 63 69 72 82 88 94 97 91 88 87 84 80 81 82 86 90 90 92 92 90 89 83 84 80 79 77 76 70 57 55 65 73 78 81 78 76 72 71 74
45 44 43 41 48 69 70 75 80 87 95 97 93 90 85 82 83 83 85 85 85 93 96 94 92 90 85 84 81 81 79 79 71 65 63 75 81 82 80 76 76 73 75 80
47 48 42 44 56 72 74 84 88 93 95 92 86 84 82 82 84 86 85 89 95 97 95 95 92 89 92 92 84 82 78 73 61 58 66 76 78 74 70 70 73 74 80 82
41 46 42 47 60 70 88 95 94 92 92 91 89 88 90 90 94 96 97 98 98 98 96 94 93 96 93 88 88 82 80 68 64 67 72 79 72 66 62 64 70 74 78 83
46 46 42 50 63 71 91 92 92 91 93 92 93 89 88 94 98 97 97 98 95 94 97 96 96 96 93 91 86 84 77 67 65 68 80 81 74 69 66 66 65 66 73 82
42 50 51 56 62 81 90 90 90 91 93 95 95 94 93 95 97 97 98 97 98 96 96 94 97 95 97 94 92 86 80 78 78 80 83 80 74 72 67 63 64 63 72 85
45 55 63 76 83 90 89 90 92 92 94 95 94 93 91 91 97 97 98 98 98 98 98 98 98 97 98 90 84 80 79 82 86 86 84 81 76 73 68 65 62 65 85 91
67 75 82 90 91 89 91 90 91 89 90 91 93 91 91 93 95 97 98 98 98 98 98 98 98 99 91 80 73 74 74 78 81 83 85 81 77 77 77 77 80 87 92 92
74 83 89 91 88 85 85 85 84 82 87 91 90 91 91 92 93 96 98 98 98 98 98 98 98 96 85 78 79 87 88 83 79 80 81 79 80 82 89 91 91 93 92 93
85 90 93 91 86 85 82 80 78 81 84 84 86 87 88 92 90 94 98 98 98 98 98 95 92 84 82 89 89 96 94 89 88 85 84 86 92 94 94 94 93 92 93 94
87 89 89 84 85 78 80 77 76 78 80 82 84 83 88 90 91 92 95 96 98 96 91 90 84 78 79 85 86 94 97 96 94 90 89 92 92 92 92 95 96 94 94 93
82 86 86 83 82 81 78 78 80 81 80 82 82 82 84 87 89 92 91 93 97 93 93 87 81 78 77 74 72 76 89 95 93 92 90 90 90 91 89 88 90 94 92 91
79 81 81 80 82 80 80 82 84 82 82 81 83 84 85 85 85 87 91 93 92 88 84 83 82 82 79 75 73 71 70 79 89 91 90 89 90 90 90 88 89 89 92 93
67 73 76 79 80 81 81 80 82 82 83 85 85 85 82 84 84 84 86 91 91 83 81 79 80 83 82 79 75 73 71 71 72 78 86 87 86 88 88 88 89 90 91 94

GFSNW_prec_cthk_060.txt.gz
RH
47 48 38 29 44 54 57 48 62 66 71 72 76 83 86 91 97 97 91 90 83 85 84 78 81 66 61 59 60 62 58 62 72 64 60 58 58 60 60 66 59 68 66 49
51 49 37 28 41 61 60 52 58 59 64 74 83 90 92 98 97 90 87 83 77 78 82 85 74 62 55 53 55 57 53 59 68 68 62 61 62 61 60 60 62 66 64 47
48 48 36 29 43 64 61 55 56 58 71 83 91 97 98 96 92 88 83 76 75 75 87 83 81 69 59 53 49 53 53 55 58 63 59 61 64 60 58 61 65 60 55 47
42 44 35 29 44 67 64 60 61 73 79 81 90 95 98 98 96 89 77 76 77 83 86 80 83 76 66 61 59 57 56 60 62 62 62 59 59 57 57 58 56 61 49 51
45 38 31 26 40 66 67 65 67 73 83 90 90 91 98 99 97 93 88 85 84 79 80 74 74 67 69 69 67 65 63 71 66 61 55 55 53 50 52 54 59 58 64 67
44 38 33 23 42 66 67 63 69 79 79 82 84 91 97 95 95 94 95 90 86 87 81 74 72 68 68 65 68 69 65 64 62 64 54 54 53 48 50 53 58 62 71 67
47 35 33 26 42 58 66 68 75 77 77 77 86 88 93 94 94 93 92 91 85 81 76 72 72 68 67 65 64 63 66 65 62 67 59 65 41 51 54 62 70 77 75 73
53 37 27 32 36 55 69 74 74 77 77 80 82 85 85 89 87 86 83 81 80 79 77 79 78 79 76 72 71 68 66 71 72 71 69 53 48 61 71 82 85 85 87 84
53 43 28 25 37 47 60 74 72 73 76 75 79 83 82 82 82 83 83 80 76 74 73 73 71 74 69 74 76 75 75 76 78 72 72 71 59 62 69 83 93 83 86 84
54 49 34 21 35 43 50 72 73 78 77 76 79 81 81 77 78 83 84 82 79 76 76 72 68 73 70 81 78 80 82 81 79 76 75 64 50 57 75 95 85 81 79 80
52 55 40 25 25 46 47 64 75 77 75 77 75 80 82 79 78 82 81 80 79 73 71 67 70 74 73 73 73 78 76 80 80 79 78 74 54 71 84 86 79 74 75 78
53 55 45 30 29 45 50 62 78 79 77 76 76 78 84 83 84 84 81 81 78 76 76 75 76 78 78 75 83 78 79 74 76 73 62 56 60 73 80 78 75 77 79 78
58 53 46 37 33 39 55 59 76 79 81 80 78 77 82 84 84 84 85 82 80 79 80 83 82 82 79 79 80 80 76 73 74 73 61 55 62 70 78 78 82 81 78 72
61 64 52 44 41 39 56 65 78 87 87 88 86 86 87 86 84 84 83 81 81 81 85 85 87 88 79 78 79 80 77 77 75 70 62 61 70 77 83 84 84 81 76 76
67 64 50 42 45 44 59 69 78 88 90 92 92 88 86 86 85 84 82 82 82 83 85 87 91 89 84 81 78 78 74 74 76 73 66 61 71 82 83 81 80 77 77 80
67 52 45 51 44 50 69 70 78 83 89 95 93 90 86 87 83 81 82 85 87 87 88 91 91 92 88 87 85 76 78 77 75 70 62 58 67 79 79 75 69 74 76 82
56 45 47 47 50 68 73 87 90 91 95 95 91 85 81 83 88 89 91 94 97 98 97 95 94 96 93 88 90 81 78 77 76 73 64 65 75 80 77 69 61 69 76 80
47 51 47 48 66 78 89 96 96 98 97 92 89 86 86 91 95 97 97 97 98 97 96 96 96 96 94 94 91 86 84 82 79 71 64 69 82 84 78 69 66 66 66 71
40 52 51 65 77 84 96 98 98 94 93 91 92 91 93 94 95 97 97 97 98 97 98 96 97 97 97 91 89 89 85 84 76 70 72 74 82 84 74 70 69 65 65 66
40 45 61 69 84 97 99 99 94 93 93 94 93 95 95 92 92 96 98 98 98 98 98 97 95 97 95 93 92 86 82 76 71 72 77 87 88 79 76 73 71 68 65 68
58 80 88 95 98 99 98 94 92 91 92 91 91 93 93 94 95 98 98 98 98 98 98 99 98 98 94 90 87 79 75 71 74 79 81 86 86 80 77 77 75 74 77 90
74 87 95 99 97 95 92 90 90 89 87 87 93 93 92 94 96 98 98 98 98 98 98 98 98 96 88 83 82 82 87 90 87 84 83 86 84 82 80 83 85 89 92 93
81 92 96 98 94 93 87 84 82 81 81 87 91 90 91 94 95 96 98 98 98 98 98 97 96 89 88 88 86 94 98 96 91 89 89 86 86 90 90 91 92 95 96 96
87 92 95 95 92 84 80 78 78 78 80 82 87 89 90 92 94 95 97 98 98 98 97 96 93 88 87 86 85 87 98 99 98 96 93 92 94 96 96 97 97 96 96 97
87 91 94 89 89 87 80 79 80 80 81 82 86 87 87 89 92 94 94 95 97 95 94 88 85 85 84 82 80 80 85 97 98 96 94 94 94 95 94 94 97 98 94 95
72 86 88 87 87 87 82 82 82 82 83 83 83 86 88 86 87 88 89 95 94 92 87 86 87 87 87 85 83 82 80 79 87 96 94 93 93 94 93 94 92 94 98 95
52 67 77 87 89 89 87 85 85 85 85 85 83 85 85 87 87 85 85 87 90 84 83 82 83 85 85 83 83 82 81 78 77 78 82 89 90 91 90 90 89 90 91 93

GFSNW_prec_cthk_063.txt.gz
RH
54 51 48 39 44 57 59 46 51 57 65 70 77 92 96 93 89 99 91 87 83 85 81 82 75 71 70 66 63 64 64 70 80 74 68 66 64 63 61 62 62 65 62 49
55 45 40 34 40 57 58 51 53 61 75 88 91 90 87 93 94 90 87 83 80 78 77 78 80 75 64 63 63 66 64 68 74 71 63 61 60 59 58 59 61 66 63 45
55 44 38 29 40 58 60 53 58 65 71 79 89 90 87 85 83 81 81 78 77 80 85 77 79 66 61 59 60 62 59 59 56 62 57 60 64 61 60 62 69 61 54 46
56 43 36 28 37 60 60 58 66 74 77 76 86 91 88 88 81 79 75 78 78 80 87 84 81 66 59 58 59 60 56 58 56 57 59 59 61 61 61 61 57 57 45 45
58 43 32 30 35 60 60 60 70 73 74 82 91 97 94 89 82 78 78 82 79 80 83 82 83 76 67 59 59 57 54 64 60 61 58 61 61 57 56 55 53 51 51 54
57 44 30 33 39 56 60 63 69 77 75 79 86 93 96 97 92 87 84 84 83 83 84 77 75 70 67 65 63 64 61 65 67 69 59 54 51 46 47 47 50 53 63 60
57 45 33 30 38 53 59 66 70 74 74 76 84 89 94 96 96 93 92 89 85 84 81 80 79 74 70 69 70 65 66 63 62 66 56 62 39 43 48 54 59 66 69 71
59 46 36 22 41 42 52 69 69 67 72 76 79 85 88 89 91 93 95 89 86 82 80 81 79 77 73 71 68 65 62 63 68 68 65 50 44 54 62 68 75 78 81 80
63 48 44 26 27 42 50 67 69 70 74 75 76 81 85 83 85 85 86 85 81 78 80 78 75 82 74 77 77 75 74 74 73 75 72 68 55 60 64 71 91 84 85 82
69 56 50 39 26 38 49 54 72 75 77 76 78 82 86 82 82 84 84 82 80 76 76 75 73 73 68 78 76 79 81 81 79 77 74 61 51 60 64 84 88 86 80 79
71 61 52 51 34 26 49 50 66 72 76 77 75 79 82 81 80 80 79 77 78 75 71 69 65 68 69 72 73 76 75 78 75 75 75 71 54 66 73 83 84 79 80 83
65 67 61 60 50 31 37 54 59 71 75 76 76 76 80 81 83 81 78 79 77 73 73 69 70 69 73 72 75 74 78 71 75 73 65 55 60 68 72 81 80 82 83 81
67 61 64 69 64 46 34 50 62 70 75 74 76 74 80 79 81 83 83 78 77 75 76 78 79 78 76 75 74 77 75 73 74 72 66 61 58 64 73 81 81 85 82 78
61 55 67 71 64 52 40 43 64 73 79 78 77 79 82 81 81 82 83 84 82 79 78 79 81 81 79 79 75 74 76 76 76 74 69 68 67 72 76 83 84 83 81 79
59 57 68 63 60 50 41 43 69 77 80 81 81 83 84 85 87 86 84 85 83 81 83 81 80 81 84 81 78 76 74 72 74 76 72 72 69 68 78 85 81 80 77 76
51 67 67 55 58 51 47 50 69 79 84 85 89 92 92 89 90 89 86 84 83 82 80 82 81 83 86 85 82 77 78 77 77 76 74 72 63 64 74 81 82 75 72 75
55 66 58 53 54 52 47 66 89 80 86 90 95 95 92 90 88 88 86 85 88 91 91 91 92 95 93 88 87 83 83 82 81 78 76 76 66 64 75 81 82 70 69 77
61 61 64 53 55 54 68 91 93 89 92 94 96 94 88 88 89 89 90 93 96 97 97 96 95 95 92 88 84 84 81 80 82 81 79 76 66 66 78 84 82 69 67 67
45 54 58 55 62 82 90 98 96 93 95 94 91 89 88 91 91 94 95 97 97 97 96 97 96 93 92 88 87 85 86 85 82 80 76 71 69 71 82 85 79 70 69 67
55 55 57 76 87 91 98 98 98 98 97 92 93 94 93 95 96 93 96 98 99 97 97 98 97 91 92 91 91 90 88 84 82 79 73 68 67 76 87 86 75 73 71 66
63 82 96 98 97 98 98 98 99 96 94 92 91 91 96 97 96 97 98 98 98 98 98 98 96 94 93 88 86 86 84 81 77 72 69 70 75 83 85 83 77 75 71 69
68 86 98 99 98 98 99 98 95 95 93 92 93 96 97 96 97 99 98 98 98 98 98 98 97 96 93 87 85 85 85 83 83 80 78 79 80 85 87 81 77 78 80 83
72 91 98 99 97 97 97 93 93 94 91 91 93 96 95 97 98 99 98 98 98 98 98 97 97 95 92 93 89 84 89 91 90 89 87 85 87 95 93 88 84 83 88 93
81 94 98 98 97 95 95 92 92 89 85 87 89 93 94 95 96 97 98 98 98 98 97 97 96 93 91 89 89 89 93 98 98 98 96 95 96 96 94 94 93 94 96 96
78 92 96 97 96 95 92 89 85 83 82 83 86 89 92 93 93 95 96 97 96 95 93 92 87 90 91 91 90 91 92 95 98 99 98 97 96 96 96 96 97 96 95 96
55 85 90 90 91 96 94 87 86 86 86 84 84 88 91 90 90 90 89 93 92 91 87 85 86 90 92 90 90 89 89 87 88 90 97 97 96 96 96 95 96 97 97 96
62 56 75 86 92 93 95 93 89 86 86 86 84 87 86 87 87 86 83 84 86 86 82 83 85 84 83 83 84 84 84 85 84 83 82 85 90 93 94 94 94 93 95 98

GFSNW_prec_cthk_066.txt.gz
RH
58 49 43 39 38 47 43 48 59 60 70 73 81 83 84 89 94 88 84 88 83 82 81 80 80 80 80 78 76 75 70 69 80 78 71 70 69 71 70 72 72 68 64 48
64 50 43 35 34 50 47 57 64 64 72 82 78 84 83 88 86 87 86 82 83 81 80 84 81 71 67 69 66 63 61 69 78 77 70 72 74 71 67 64 61 64 61 44
63 50 45 32 29 53 51 59 69 68 75 82 82 81 83 83 82 80 81 80 78 80 83 79 75 73 69 70 64 62 61 64 63 69 62 64 68 64 61 59 64 60 58 46
69 56 43 33 28 52 54 62 72 78 79 82 83 81 80 80 79 77 77 78 79 78 81 76 77 77 64 64 62 64 62 66 61 59 62 63 62 62 62 61 58 59 49 48
79 58 41 31 28 50 58 65 72 78 83 93 91 83 81 77 74 75 80 82 81 78 81 81 80 68 59 57 61 61 60 66 59 59 60 62 65 63 63 61 57 53 50 49
78 62 46 28 31 45 57 65 70 76 81 91 95 92 86 82 76 75 79 79 77 82 84 81 74 69 63 60 58 60 59 61 60 66 61 60 57 52 52 52 50 49 57 52
76 71 51 33 26 41 49 66 71 72 78 87 95 96 95 93 86 83 83 81 81 84 81 80 78 74 72 68 65 61 62 61 65 70 60 59 42 45 45 51 54 59 62 65
80 74 55 47 23 37 38 63 70 71 77 82 89 93 95 93 92 92 88 84 83 81 81 86 83 79 72 75 75 69 64 66 70 67 65 49 47 53 57 62 68 70 74 74
78 73 68 58 37 27 34 52 70 67 72 76 84 87 92 92 92 91 90 86 84 81 82 80 77 80 71 74 75 70 67 65 64 69 71 65 53 54 59 64 80 79 82 79
72 78 73 62 51 36 27 44 57 67 69 71 78 81 88 88 87 88 88 84 82 79 79 80 79 79 73 80 75 79 79 78 76 78 76 63 52 58 60 71 80 83 82 83
66 66 69 71 63 52 37 37 52 68 69 70 71 78 83 85 86 85 82 79 78 77 75 72 70 71 74 75 75 77 75 77 74 71 75 70 55 60 66 70 79 84 85 87
56 64 62 72 78 75 58 40 47 60 72 75 77 74 78 81 86 85 80 79 77 76 73 68 70 69 74 71 72 70 74 67 71 68 64 58 58 63 64 68 75 86 86 86
57 59 57 55 66 80 78 52 43 58 64 69 72 71 73 78 81 82 81 79 79 74 72 73 73 71 73 72 69 72 70 70 70 67 63 63 61 61 67 70 78 84 86 83
59 56 59 55 67 73 72 74 49 50 72 72 72 74 79 81 80 81 83 83 83 79 77 76 76 74 76 76 73 71 69 71 71 72 68 66 68 67 72 79 81 86 83 84
56 62 53 60 77 73 72 62 47 46 75 76 77 78 81 83 83 82 81 83 85 81 80 77 76 74 71 75 76 74 67 67 71 75 69 70 70 69 68 76 82 85 83 81
61 55 57 72 65 66 65 58 42 52 84 81 80 78 82 82 82 82 83 86 84 82 79 77 73 74 74 77 76 72 73 73 73 72 71 74 74 71 66 69 77 84 84 79
60 61 69 68 65 65 65 47 53 69 88 86 86 86 80 86 88 89 88 86 83 82 82 79 82 81 85 82 78 80 76 77 83 80 77 75 75 77 67 67 75 81 83 77
56 60 69 65 62 62 56 50 78 95 95 88 88 88 91 93 93 91 89 86 87 85 87 88 92 93 92 85 81 79 78 77 78 80 80 78 76 77 69 64 72 79 85 74
59 52 55 59 59 56 56 86 98 98 95 89 90 96 95 96 92 91 90 90 89 91 93 93 95 93 91 84 83 83 82 81 82 79 80 78 75 74 70 68 78 84 84 72
52 61 64 64 71 89 97 98 98 98 94 97 95 95 93 94 95 93 95 95 98 95 94 96 94 90 91 90 90 89 88 85 84 82 82 79 74 70 67 69 83 87 85 75
51 91 97 98 98 98 98 98 98 96 97 95 91 92 97 97 97 98 97 98 98 97 97 98 94 92 92 90 87 85 85 85 85 82 80 76 71 69 69 70 84 87 83 77
40 84 96 99 98 98 98 98 98 97 97 96 97 97 95 97 98 98 98 98 97 96 97 98 95 94 92 90 88 84 83 84 84 84 81 78 73 72 75 80 86 89 82 78
52 90 98 98 97 97 97 97 97 98 98 97 95 98 99 98 98 98 98 98 98 97 98 97 96 96 96 94 93 90 89 92 87 87 87 83 83 81 84 91 92 90 82 80
63 92 98 98 96 93 96 97 98 98 96 94 95 96 98 97 98 98 98 98 99 98 97 95 96 94 93 94 97 97 94 93 92 91 92 93 93 94 96 98 97 94 89 89
69 83 98 97 98 98 98 98 98 98 93 88 90 91 93 97 97 97 97 98 97 95 93 95 95 96 96 97 97 97 96 97 98 98 98 99 99 99 98 98 97 96 96 95
71 71 85 96 97 97 98 98 96 93 89 87 87 90 93 94 95 94 92 94 94 92 93 88 86 93 96 93 93 93 94 95 95 95 95 96 97 98 98 98 98 98 97 96
76 76 63 85 98 98 98 98 98 93 90 90 88 89 88 91 89 88 84 85 85 86 83 82 85 87 86 85 84 83 82 83 86 89 89 91 90 91 95 95 97 97 97 98

GFSNW_prec_cthk_069.txt.gz
RH
48 48 47 46 41 47 41 49 57 60 66 71 75 82 87 85 82 80 86 78 68 79 83 84 81 85 84 83 80 80 76 80 89 86 81 77 75 78 72 73 74 72 64 45
50 51 48 46 35 45 48 55 61 62 64 72 77 78 79 84 83 81 80 73 78 77 77 74 75 79 80 78 74 72 65 70 78 77 70 71 73 73 71 68 69 73 61 40
50 52 47 40 36 47 47 56 64 67 71 74 76 80 78 79 80 80 79 74 74 75 80 80 75 76 72 72 68 62 56 61 60 66 61 67 74 71 68 68 70 60 55 46
55 53 49 37 35 48 49 57 73 78 82 85 81 80 79 78 81 78 77 76 77 73 74 75 75 70 68 72 65 60 58 66 64 64 66 66 67 67 64 61 55 55 48 50
57 58 54 44 33 46 49 60 72 79 83 91 86 81 79 77 77 78 80 78 78 74 76 71 69 73 68 65 63 63 64 72 61 61 60 64 64 62 62 60 58 56 53 50
56 63 61 50 34 39 48 61 71 79 84 93 91 88 84 75 75 78 81 81 80 81 82 77 74 69 60 54 56 62 63 64 59 62 60 61 60 57 60 58 55 52 58 53
53 68 71 52 42 35 43 57 68 74 82 94 96 94 91 86 79 77 81 80 82 86 84 84 79 70 67 60 59 55 59 59 59 62 59 62 50 52 52 55 54 58 56 59
56 66 72 68 50 37 32 48 68 73 83 87 93 97 96 92 88 86 82 81 84 84 83 84 82 81 74 71 70 64 58 62 69 67 66 52 59 57 58 63 64 63 66 68
55 58 73 74 65 46 37 32 53 71 77 83 86 94 96 97 95 90 88 85 83 84 86 80 78 81 72 72 73 69 66 61 63 69 66 60 57 56 58 65 78 75 77 76
56 55 60 72 73 71 57 37 38 55 69 72 82 86 89 92 92 93 90 87 84 81 80 83 81 77 71 77 72 73 73 70 71 72 72 60 56 58 61 68 72 77 81 83
62 58 51 59 69 72 79 61 36 46 61 69 75 81 82 86 88 90 87 82 82 80 79 77 77 77 77 77 75 77 75 74 72 69 77 64 56 60 67 65 65 77 83 87
73 67 56 51 60 68 81 77 62 45 52 57 69 71 75 80 83 85 85 83 80 77 76 71 70 71 76 74 75 73 76 70 73 70 65 60 60 64 64 61 66 72 85 88
73 73 63 51 54 65 80 84 78 65 49 48 59 68 76 75 79 83 85 81 81 78 72 72 70 68 70 70 67 71 69 68 70 68 64 65 64 64 65 69 70 77 83 85
81 71 58 55 56 56 71 82 84 78 60 50 66 72 77 78 78 85 82 82 84 82 77 75 73 73 73 72 71 70 67 68 68 68 66 68 68 69 66 72 74 78 85 85
85 64 62 56 53 65 77 75 77 80 71 62 66 74 74 76 81 83 85 83 83 85 82 80 74 72 71 72 70 70 65 64 66 69 66 69 72 72 69 66 76 80 82 85
79 68 59 59 74 77 75 69 68 68 78 69 76 76 79 79 85 91 83 84 82 81 81 80 75 71 71 72 68 61 63 68 69 69 71 70 72 76 75 71 72 78 83 86
76 60 65 74 76 77 73 71 68 68 60 75 81 84 78 84 87 87 85 85 83 81 80 78 77 78 78 75 70 64 71 72 74 76 75 74 76 75 77 76 70 72 76 82
68 51 67 62 69 68 67 64 61 57 76 85 88 89 84 83 86 87 88 87 83 81 83 81 81 83 84 79 79 79 78 77 75 75 80 78 75 75 74 77 74 69 73 80
57 47 69 67 61 65 66 58 66 84 90 93 95 91 89 89 89 92 93 89 88 85 83 81 84 86 86 85 83 82 80 78 77 76 75 76 75 73 72 73 74 67 74 83
47 56 78 79 78 72 73 87 98 98 97 98 95 94 93 93 94 97 95 93 91 85 85 89 89 87 88 88 89 85 84 81 81 79 78 77 76 76 74 71 69 65 72 85
41 76 92 95 98 98 98 98 98 97 98 95 92 90 94 94 98 98 95 93 95 93 93 95 92 92 90 90 90 87 83 84 85 83 83 80 76 75 72 69 67 65 73 86
53 49 75 91 98 98 98 98 98 97 96 98 97 92 92 98 97 98 97 98 98 94 96 97 94 92 92 91 88 88 85 81 81 81 82 81 78 78 74 69 70 70 80 88
64 68 96 98 96 98 98 98 98 98 98 98 98 99 98 98 98 99 98 98 98 97 98 96 93 93 94 93 94 94 92 90 88 86 85 85 85 82 78 76 82 83 87 89
78 80 97 98 97 97 98 98 98 99 98 98 99 99 98 98 98 98 98 98 98 97 97 95 95 92 90 94 96 97 97 95 91 90 88 89 88 86 88 86 89 91 95 94
77 87 90 98 96 98 98 98 98 98 98 98 96 96 97 98 98 98 98 98 97 96 96 98 96 96 97 98 98 98 98 98 97 97 95 93 95 98 99 98 99 99 99 98
79 72 87 92 98 97 98 98 98 98 98 98 94 92 96 97 97 98 95 97 95 94 97 97 98 98 98 97 93 90 88 90 95 98 98 98 97 97 98 98 98 98 99 99
76 76 82 80 74 97 98 98 98 98 98 99 93 90 90 94 96 94 91 91 90 90 92 91 91 91 89 87 87 86 84 81 80 81 84 88 91 94 95 96 95 98 99 99

GFSNW_prec_cthk_072.txt.gz
RH
43 41 37 31 33 49 37 49 58 59 61 68 70 76 77 73 76 81 76 74 65 71 69 72 74 80 79 71 68 68 69 74 86 86 80 77 76 76 71 75 75 64 59 43
47 42 38 31 34 51 41 50 56 62 63 75 75 74 77 77 72 75 73 67 72 69 70 74 74 79 81 76 72 67 65 73 81 80 76 75 74 73 70 67 68 73 55 42
48 44 41 34 33 52 44 51 63 65 73 75 79 78 76 78 76 72 71 71 65 64 66 64 71 76 76 76 73 64 61 62 60 60 59 63 72 67 65 67 71 64 55 45
47 45 49 39 34 50 48 54 68 73 79 80 77 80 78 79 78 76 72 69 69 66 68 65 68 69 68 72 68 61 54 60 60 63 61 61 63 65 63 67 62 57 51 48
47 45 55 47 37 37 53 53 67 74 80 87 79 76 74 75 77 79 77 75 71 68 67 68 67 64 64 67 67 63 61 64 61 62 62 65 67 65 65 62 58 53 51 48
49 47 54 56 48 38 48 52 66 73 82 89 82 80 78 76 75 79 81 80 76 75 76 67 63 64 65 62 58 59 60 60 55 60 55 59 60 57 60 59 57 52 53 46
51 50 53 58 61 52 42 48 63 70 82 93 93 89 83 77 73 79 80 79 79 83 82 80 75 72 68 58 54 53 55 56 54 53 51 54 50 52 50 53 52 52 52 56
60 55 50 55 58 65 51 41 44 69 81 89 96 95 93 88 82 81 83 82 83 82 79 82 78 73 68 65 61 56 52 52 55 53 53 49 56 54 53 59 62 58 57 61
69 58 55 50 51 63 75 58 39 53 72 82 91 94 97 96 91 83 84 83 82 83 82 80 78 75 66 63 64 62 60 55 55 60 59 53 57 56 60 65 73 66 67 71
66 63 63 60 49 58 68 77 60 43 56 67 85 90 94 98 97 94 90 89 88 84 82 82 76 72 69 68 66 65 64 63 64 63 64 50 56 56 61 64 65 69 77 81
62 67 74 73 55 55 58 69 77 62 52 50 59 82 88 90 92 95 94 89 87 83 80 77 77 73 71 69 68 69 67 68 68 64 67 61 54 63 71 63 59 66 75 84
73 67 76 77 68 56 54 65 74 77 59 47 51 60 76 82 85 88 92 92 87 82 77 74 73 72 74 72 70 71 70 64 65 63 60 59 61 63 65 63 65 65 75 84
79 80 86 75 68 59 55 67 71 79 77 50 45 50 60 67 76 82 87 87 86 81 75 71 69 65 66 67 66 67 67 66 66 67 64 63 65 66 66 68 68 71 78 82
83 86 86 78 65 60 55 63 68 77 80 75 46 59 68 75 76 79 84 86 87 82 78 74 70 66 67 67 67 65 64 66 65 64 63 65 68 69 68 69 70 76 78 80
87 86 84 74 61 57 64 74 72 70 74 79 63 51 66 72 82 82 85 85 87 85 83 77 75 71 68 67 67 63 60 62 62 60 61 64 70 73 70 68 67 73 76 80
89 88 76 59 75 75 73 75 69 67 70 79 72 68 64 71 80 82 87 88 86 83 79 78 78 72 68 66 63 55 56 59 61 65 68 69 71 70 73 76 74 71 75 76
86 87 70 58 73 74 75 76 82 73 73 71 77 89 72 74 80 87 89 93 88 84 80 78 77 76 74 69 62 61 63 64 65 68 72 73 72 75 74 75 75 71 70 74
85 91 56 62 79 72 66 75 69 70 72 74 92 96 89 76 87 91 88 90 87 86 80 78 76 79 80 72 70 74 74 74 73 74 75 74 75 76 73 74 73 74 72 71
88 84 52 81 76 62 65 71 66 66 75 88 96 96 89 81 89 87 92 89 88 83 81 80 80 80 75 71 77 80 82 80 78 76 75 74 75 76 74 71 70 70 72 67
85 70 76 88 82 86 80 76 76 76 85 90 92 93 91 88 85 88 91 91 88 86 85 84 82 75 80 83 85 85 84 83 80 79 78 77 76 73 72 72 71 70 68 66
80 73 65 89 93 98 98 98 97 97 94 92 94 96 98 95 98 98 95 95 94 93 86 90 84 85 88 91 90 88 87 85 82 81 81 80 78 78 75 74 73 71 68 66
84 82 53 79 94 98 98 98 98 97 96 98 97 94 95 99 99 98 98 97 96 90 92 94 91 94 93 92 90 88 87 87 85 81 81 82 82 80 77 75 74 70 66 67
77 85 85 97 97 98 98 97 98 98 98 98 98 98 97 98 98 98 98 98 96 96 98 93 91 95 93 91 92 93 94 93 92 87 84 83 81 80 80 81 78 71 73 75
74 79 93 97 98 98 98 99 98 98 98 99 98 99 99 98 98 98 98 97 98 97 96 94 97 94 92 93 95 97 97 96 95 93 90 87 87 86 86 86 81 84 88 87
74 76 88 95 97 98 98 98 98 98 98 98 98 98 98 98 99 98 98 98 97 94 94 98 96 95 97 96 96 96 97 98 98 96 95 95 94 92 91 91 92 92 93 94
70 74 76 87 91 91 94 98 98 98 99 98 98 98 98 98 98 98 98 97 96 96 98 98 98 98 98 97 93 90 87 85 87 88 93 97 98 98 98 98 98 97 97 98
73 73 76 79 81 86 81 91 97 98 98 98 98 98 96 96 97 96 94 94 91 91 92 98 98 98 96 91 92 90 87 82 77 73 72 71 75 80 87 93 95 97 98 98

GFSNW_prec_cthk_075.txt.gz
RH
35 35 30 31 31 41 43 47 61 61 59 65 69 72 74 77 73 71 72 69 73 67 72 74 74 83 77 76 71 73 72 81 94 91 88 89 90 88 85 87 77 70 73 56
36 37 34 31 31 41 49 44 56 60 67 70 72 70 72 73 75 71 69 64 67 66 69 76 76 72 71 68 66 64 63 70 82 87 78 79 80 77 77 71 72 77 67 53
40 37 37 36 34 32 53 52 66 65 74 72 74 75 74 76 73 72 70 66 65 65 67 67 75 77 74 70 66 62 59 60 66 68 70 68 75 71 70 72 79 67 56 52
41 37 39 42 37 36 55 54 69 74 74 77 73 76 74 79 77 75 70 68 66 64 62 61 66 67 67 70 67 58 60 62 60 58 59 60 63 65 64 76 64 65 58 52
45 40 39 42 42 40 51 59 64 75 78 80 77 72 73 80 80 80 75 72 65 65 70 66 59 61 62 68 63 58 55 58 58 60 56 57 60 59 61 62 62 62 57 53
53 47 41 43 39 46 54 49 57 72 79 87 80 80 76 76 76 78 78 76 73 71 71 68 67 62 59 58 61 59 56 55 54 63 54 58 64 60 61 60 57 58 58 51
57 55 48 49 43 42 65 59 51 65 77 92 85 86 82 77 76 81 78 78 77 77 76 72 67 65 66 61 55 54 54 56 55 52 50 61 55 56 56 60 56 53 51 49
67 55 57 53 52 53 53 71 62 50 66 84 91 95 92 86 77 80 81 79 80 81 79 81 78 75 73 68 57 54 53 54 56 56 49 49 55 58 54 56 61 53 51 53
74 62 54 58 61 60 53 60 73 59 58 77 87 94 98 97 90 81 81 82 79 80 80 79 80 77 68 67 63 59 56 53 55 52 54 49 62 55 55 61 65 57 58 64
79 72 61 60 63 69 61 62 64 79 54 56 75 88 97 99 98 94 87 87 84 83 82 81 78 69 66 66 62 61 60 59 60 54 58 47 53 50 56 62 74 65 67 72
77 75 69 66 63 69 67 64 61 68 80 49 57 69 84 95 97 99 95 91 89 86 84 81 78 71 68 66 64 64 61 61 59 58 59 58 50 57 63 64 60 61 65 74
68 78 71 75 75 67 67 70 66 62 69 70 45 53 68 80 88 90 95 97 94 89 85 79 77 74 70 67 67 65 66 60 61 58 57 55 54 58 61 61 61 60 62 74
80 77 77 86 78 66 66 68 62 61 63 68 68 45 54 68 78 87 87 94 94 90 82 78 73 71 68 70 67 67 63 63 62 62 59 58 59 62 63 64 64 64 68 75
72 76 83 84 74 60 54 65 67 71 72 70 68 57 51 68 78 79 80 87 93 89 84 77 73 67 63 65 66 64 64 64 62 62 60 61 62 65 66 67 64 68 74 76
76 81 77 79 69 59 66 71 70 70 75 67 61 62 40 52 67 77 80 85 90 89 85 81 75 72 69 69 66 60 58 57 61 59 58 58 61 65 68 67 66 67 68 74
75 79 78 87 60 57 74 74 66 69 78 75 65 61 60 59 71 81 84 88 90 90 89 84 80 74 68 65 62 56 53 53 54 56 59 60 61 64 67 70 71 68 69 73
81 82 87 92 62 68 76 72 71 75 80 80 64 62 81 68 74 81 88 90 91 90 86 81 75 76 72 65 62 60 61 59 59 59 59 60 66 66 69 70 71 73 70 70
75 80 91 69 70 78 66 64 71 79 77 77 71 75 91 82 78 79 84 91 94 93 91 82 80 75 70 65 65 65 66 66 67 68 68 68 69 70 69 70 69 70 72 71
76 76 78 68 84 84 79 69 69 71 71 75 82 87 98 92 88 81 89 91 92 89 87 83 81 73 71 64 65 68 70 71 74 75 74 73 72 72 71 71 72 72 70 70
71 71 79 76 83 93 96 87 78 69 67 76 85 94 97 98 94 93 95 95 93 88 81 82 79 71 69 67 69 71 74 77 79 81 79 77 76 74 72 73 73 72 71 70
66 69 75 84 68 85 97 96 97 89 88 84 92 93 98 97 95 98 93 94 91 87 83 86 79 73 78 77 78 80 83 84 82 83 82 80 77 75 75 72 72 72 73 72
63 67 68 77 76 93 97 97 98 98 92 97 96 98 98 99 98 97 98 97 96 91 89 90 82 80 85 88 88 88 87 87 86 85 83 81 79 80 78 77 76 74 74 72
56 62 67 84 92 97 97 97 98 98 98 98 99 98 98 97 98 98 99 98 97 95 96 86 83 91 95 91 91 91 91 91 92 90 89 88 84 84 85 83 80 78 78 74
66 64 72 82 96 98 98 98 98 98 98 98 98 99 99 98 98 98 98 98 98 97 93 91 96 97 92 93 92 92 94 95 96 96 94 92 88 87 85 83 83 84 80 77
67 64 72 77 89 97 96 93 95 98 98 98 99 98 98 98 99 98 97 98 96 93 94 97 98 97 96 95 95 94 94 96 96 96 97 97 94 92 90 89 89 88 87 86
71 59 65 69 71 77 77 82 88 94 98 98 98 98 98 98 98 97 98 97 96 98 98 98 98 98 97 97 95 92 91 85 81 81 82 80 80 82 86 91 93 95 96 96
64 56 69 69 67 71 73 76 80 83 96 98 98 98 98 98 98 96 97 97 98 93 95 98 98 98 98 96 97 92 86 81 78 75 72 70 66 66 67 68 72 84 93 98

GFSNW_prec_cthk_078.txt.gz
RH
32 28 26 26 22 23 36 42 53 54 59 64 67 71 71 72 70 68 69 74 74 76 78 80 79 78 75 81 81 86 93 92 90 87 80 75 71 82 84 96 91 85 88 74
33 30 29 28 27 27 43 51 54 60 61 68 72 73 71 74 74 69 65 66 70 72 73 78 74 77 76 73 75 75 80 91 97 98 96 90 87 84 89 83 88 88 93 70
35 33 33 30 27 28 41 56 58 62 67 76 72 78 75 82 74 77 70 66 63 67 72 70 76 74 72 68 65 64 68 74 83 89 82 82 83 81 87 87 94 82 73 66
41 40 36 34 27 30 35 51 62 66 74 76 80 77 79 82 82 75 72 68 66 61 65 68 72 68 72 68 64 59 62 68 70 72 72 73 78 79 78 88 81 80 65 62
46 42 42 38 33 33 39 44 60 60 75 80 88 82 81 84 84 81 77 75 69 65 67 67 71 68 65 70 64 56 59 65 60 60 59 62 66 69 71 72 72 68 66 65
47 48 48 44 38 37 43 43 54 56 66 84 94 88 82 81 85 88 81 79 76 72 70 66 63 63 59 59 64 59 55 56 59 69 54 57 64 60 62 63 62 66 66 60
50 52 55 50 47 44 50 48 50 67 53 73 97 91 87 83 82 86 83 79 76 75 74 70 64 60 61 58 57 57 56 56 56 63 53 69 62 55 58 60 59 60 61 62
45 51 53 56 54 50 55 63 49 61 63 56 88 92 92 90 83 85 83 81 81 80 80 81 74 70 66 67 61 53 53 55 60 67 57 55 53 60 57 63 63 57 57 55
43 45 51 54 56 57 61 68 58 55 70 57 61 80 98 99 95 88 84 83 80 81 82 82 88 92 67 68 59 54 52 52 61 60 63 59 71 55 58 65 69 61 57 58
48 51 49 53 63 63 65 70 66 58 58 65 53 64 83 97 98 96 91 86 84 82 84 87 85 84 68 71 63 58 58 59 63 58 63 52 56 53 61 69 73 65 67 69
45 47 56 62 66 64 66 62 71 66 61 51 66 54 64 81 95 98 98 93 92 90 90 87 83 81 74 70 64 63 62 66 64 59 59 62 55 61 67 66 65 67 70 70
39 45 53 62 67 74 76 62 64 63 66 54 51 61 54 62 79 96 98 97 97 93 92 91 82 83 75 71 77 67 69 64 66 62 63 57 57 61 65 65 64 61 58 66
38 40 55 65 77 73 63 58 58 59 62 54 53 60 64 58 61 84 94 96 98 98 94 87 83 81 76 79 75 70 66 63 64 62 61 59 59 62 64 66 66 64 63 68
40 47 60 66 67 69 52 52 61 66 60 60 50 52 67 63 59 72 86 91 95 93 91 85 79 74 70 72 72 71 70 67 64 63 61 61 62 64 66 67 66 66 68 72
42 52 60 66 70 75 60 58 64 66 68 59 54 51 59 63 45 65 83 83 85 97 91 86 80 75 69 67 69 67 65 63 66 66 64 62 61 64 65 67 68 67 65 68
41 47 56 66 75 75 69 63 68 64 70 64 60 50 48 60 55 55 79 85 85 89 92 89 81 77 75 71 66 58 56 56 55 57 58 59 59 60 61 63 67 69 68 67
36 43 56 65 75 69 70 76 78 72 71 70 64 59 64 71 73 68 80 84 88 89 89 86 80 78 77 73 70 60 58 57 58 57 57 57 58 59 62 63 64 66 69 69
35 38 45 60 70 65 79 82 78 71 71 73 68 65 75 84 85 75 80 90 91 89 89 85 86 77 74 69 63 60 58 58 61 61 62 63 64 63 64 65 65 64 67 68
34 32 37 55 65 75 76 94 86 76 70 69 69 88 96 97 98 76 85 89 94 92 92 89 85 77 73 63 62 61 60 59 60 62 63 65 67 67 67 67 68 66 67 68
31 30 38 57 66 71 71 92 96 79 75 69 78 79 92 93 96 97 88 86 94 92 86 86 84 73 66 66 66 65 65 65 65 67 68 70 73 73 71 69 69 68 68 69
30 33 38 46 54 61 81 96 97 94 94 96 96 96 96 95 99 97 91 96 91 90 85 85 77 69 72 69 71 72 71 72 74 76 75 78 78 77 75 71 70 68 68 70
35 36 37 48 62 75 93 97 98 98 97 98 98 98 98 97 98 99 98 95 95 92 85 85 75 74 74 75 76 79 80 81 82 82 81 80 80 79 78 77 75 74 70 70
38 40 45 55 71 86 98 98 98 98 98 98 97 97 98 98 98 96 99 97 93 88 90 79 74 78 82 86 86 88 90 91 91 89 88 87 87 86 85 82 82 80 77 75
44 46 44 59 76 92 98 98 95 92 97 98 98 98 98 98 98 98 95 95 95 93 89 86 88 95 94 93 94 94 94 96 96 95 95 94 92 91 88 85 83 82 82 82
52 54 52 56 67 76 83 82 79 82 88 97 98 98 98 98 98 98 97 98 94 91 94 97 98 98 97 96 96 96 96 95 93 89 85 85 88 90 90 90 89 88 86 85
56 55 57 53 58 64 68 69 71 76 78 95 98 98 98 98 98 98 98 98 97 98 98 98 98 98 98 98 97 96 92 84 79 75 72 73 70 66 66 68 69 76 87 91
59 61 61 55 55 67 70 69 71 74 78 94 98 98 98 98 98 98 98 99 98 97 96 98 98 98 98 98 98 97 86 81 77 72 70 67 64 63 60 56 56 59 63 75

GFSNW_prec_cthk_084.txt.gz
RH
30 28 26 25 22 21 24 31 44 54 59 66 69 71 75 74 74 73 79 84 88 83 85 94 93 96 97 98 96 97 94 93 75 68 79 81 75 92 87 77 81 75 70 57
31 28 25 25 23 22 26 33 42 49 56 75 76 76 79 78 80 77 76 74 76 77 81 86 84 84 84 92 97 97 96 95 80 84 82 88 96 91 87 79 72 73 70 58
30 28 25 26 26 25 28 32 39 40 60 75 76 78 78 80 79 80 75 74 70 75 77 78 83 84 80 84 91 88 86 90 78 57 60 68 80 85 80 76 79 71 64 47
30 28 26 24 25 27 30 32 41 45 57 69 80 81 78 84 84 83 78 71 74 74 80 80 76 81 81 75 81 88 80 81 71 68 73 73 75 80 75 73 64 62 50 58
29 29 25 25 26 27 26 34 43 46 48 61 80 82 83 83 85 92 89 80 78 73 76 82 84 81 73 75 70 74 78 81 67 74 74 68 65 68 62 58 60 57 57 63
28 29 27 26 26 30 34 37 42 52 49 53 67 86 88 85 85 84 90 86 81 76 74 72 75 75 68 69 67 66 67 72 79 83 80 81 82 71 68 66 70 69 71 69
28 28 27 28 28 33 38 42 42 44 47 53 64 68 82 91 86 84 87 88 83 76 75 74 67 71 66 62 63 61 63 66 68 76 75 85 73 75 80 82 81 79 75 69
30 27 27 29 30 35 39 43 44 51 55 58 54 67 65 81 90 88 88 88 88 81 78 81 78 72 67 65 63 61 60 63 66 68 69 63 62 61 64 66 66 65 67 64
23 26 27 29 35 38 42 43 45 53 57 55 58 60 62 78 91 85 90 86 86 84 83 86 85 85 69 68 66 61 59 59 62 67 63 60 64 58 57 60 67 57 61 65
19 22 26 29 34 39 42 40 39 45 50 46 49 56 62 69 82 89 89 89 87 86 85 89 88 87 73 76 72 66 62 61 65 67 67 61 65 57 61 70 65 62 61 63
15 19 24 27 35 39 44 46 44 41 46 42 42 51 58 63 75 85 89 90 92 91 89 88 89 83 81 74 73 69 63 67 69 64 63 59 54 59 66 67 66 65 67 68
12 17 22 26 32 40 43 51 55 45 52 49 43 43 47 59 66 78 86 97 96 93 92 87 88 85 84 79 84 71 67 66 66 64 60 56 58 63 66 66 67 68 70 71
13 15 19 24 32 40 45 52 53 54 56 57 45 39 44 49 55 71 79 89 99 96 95 92 90 84 84 84 77 76 70 66 66 65 60 59 65 68 70 69 69 69 68 66
14 15 16 21 26 34 41 50 55 60 65 65 57 38 41 45 55 63 71 80 97 98 96 95 90 87 79 81 78 74 69 70 67 67 68 66 67 67 68 70 72 72 70 70
13 14 15 19 24 32 41 49 59 66 71 67 53 36 39 45 46 56 67 72 93 98 96 96 92 87 83 79 79 76 70 69 70 71 68 67 68 68 69 72 72 71 72 72
13 12 14 18 24 28 37 45 64 65 67 66 52 46 44 47 50 53 64 70 90 94 97 96 92 85 84 82 79 69 71 69 67 67 69 68 68 68 68 66 65 65 67 70
13 14 15 16 22 27 35 46 61 67 66 59 53 55 55 57 56 59 70 70 84 94 95 93 91 88 86 85 80 69 69 67 65 62 60 60 60 61 62 61 60 61 62 63
14 15 15 16 22 29 40 58 67 66 70 64 77 71 61 70 77 73 74 76 83 92 91 86 89 89 88 81 72 70 69 67 65 64 63 62 63 64 63 63 64 64 63 63
15 15 17 20 27 34 43 58 64 70 75 80 87 88 86 89 91 94 97 89 87 88 87 84 82 86 82 76 72 69 68 68 66 64 63 62 60 61 61 61 62 64 66 67
18 17 19 25 28 31 43 58 67 69 76 83 87 90 93 92 96 97 99 93 93 94 88 85 82 74 76 76 74 71 69 69 66 66 67 67 66 66 64 64 65 66 67 68
20 21 22 25 29 37 51 58 63 70 74 71 77 85 89 95 93 97 97 99 91 87 85 91 81 79 77 74 75 74 71 68 68 69 69 69 68 69 69 67 67 69 70 71
27 24 26 31 35 47 55 61 63 65 72 73 77 81 84 94 95 98 98 98 98 91 89 91 82 77 78 78 77 76 76 74 73 72 70 69 69 70 70 71 71 72 75 75
31 29 34 34 40 52 59 60 57 59 61 65 67 75 81 93 98 97 98 98 97 97 97 88 77 78 81 81 81 79 78 77 77 78 78 79 79 81 82 82 83 84 83 82
32 32 32 37 45 54 50 47 48 48 60 62 68 73 88 94 97 97 97 96 97 98 93 86 84 85 83 84 82 83 88 93 91 90 89 91 95 95 95 95 92 90 90 88
36 37 36 39 41 45 44 45 47 45 51 64 64 74 96 98 98 98 98 98 95 92 89 91 92 93 94 93 95 98 97 96 90 84 79 74 72 70 69 65 63 63 63 68
40 40 37 36 42 43 47 49 46 50 56 57 64 77 97 98 98 98 98 98 98 97 97 98 98 97 97 98 98 98 95 92 87 80 77 74 71 66 61 58 56 54 51 52
46 41 39 41 40 42 49 49 49 53 58 66 64 78 97 97 98 98 98 98 97 98 97 97 97 97 98 98 98 98 96 89 86 82 76 70 59 46 33 26 26 26 30 36

GFSNW_prec_cthk_087.txt.gz
RH
28 25 24 23 19 19 21 28 40 43 48 58 68 75 76 75 75 77 85 90 92 96 96 98 97 98 98 95 82 76 74 87 80 73 72 65 71 82 82 88 86 83 76 61
27 24 24 22 20 19 21 29 37 39 47 64 75 76 72 77 78 84 82 85 83 86 85 93 92 90 98 95 96 86 83 84 72 91 89 78 78 78 76 75 78 81 72 58
26 24 23 22 20 20 21 27 33 35 45 58 75 80 76 76 78 81 81 83 78 81 84 82 87 93 97 98 98 98 91 92 62 66 63 67 76 74 76 78 83 75 70 55
27 25 21 20 20 20 23 25 35 42 52 53 70 84 81 77 80 76 82 84 83 85 85 89 86 87 88 96 96 98 98 97 78 67 67 69 71 79 77 79 75 76 65 60
28 25 23 20 20 21 21 26 33 39 45 48 62 78 87 81 79 86 86 88 85 86 83 87 90 86 86 85 87 88 87 94 82 75 79 77 81 79 77 77 76 74 66 59
25 25 25 22 21 23 24 30 35 39 42 49 55 64 81 81 78 84 84 88 92 86 84 78 80 83 76 78 77 80 80 77 70 79 82 82 84 78 74 74 72 67 64 50
26 25 26 24 24 26 26 27 31 36 41 46 53 55 62 72 84 85 85 89 93 86 82 78 71 76 73 69 69 70 71 74 68 73 72 83 65 62 62 63 59 56 52 54
25 24 26 24 27 29 28 27 29 34 39 47 46 49 55 61 77 81 83 87 90 89 85 84 79 72 68 64 65 65 67 70 72 77 79 72 67 66 73 68 67 69 76 76
22 21 23 22 27 31 28 27 30 33 38 35 43 50 52 66 75 81 81 85 84 93 88 90 86 84 70 68 70 63 61 64 67 72 68 65 74 68 70 70 75 65 66 71
20 19 21 22 25 28 31 33 35 36 37 37 42 44 50 58 70 81 80 83 85 93 92 91 90 86 76 76 75 72 66 64 67 70 69 63 68 61 63 68 61 56 58 61
19 18 19 20 23 26 29 34 39 42 42 43 46 46 45 51 66 78 82 85 89 94 95 93 93 86 83 75 74 75 69 68 69 65 65 59 58 61 61 67 67 65 65 65
19 18 17 18 22 22 25 30 37 41 46 49 50 47 42 42 57 69 80 91 95 92 96 94 91 87 86 81 81 75 72 69 70 67 64 56 58 62 62 67 66 67 69 71
20 16 17 17 19 21 23 28 36 42 50 46 51 50 51 45 47 62 73 83 98 95 93 96 94 90 85 85 77 77 72 68 67 67 63 63 65 68 70 69 69 68 66 67
19 15 16 15 17 18 23 29 35 46 52 55 49 45 46 45 42 50 66 77 88 92 93 94 95 92 85 82 81 75 71 70 69 69 70 68 70 70 71 71 70 70 70 70
19 16 14 15 15 18 23 27 37 47 50 50 43 44 43 46 45 46 62 71 74 88 91 93 95 91 90 84 81 79 71 69 70 70 68 69 69 69 69 69 71 74 74 73
20 16 14 13 15 16 22 27 43 50 55 57 55 52 50 54 48 45 47 61 71 83 91 95 93 92 90 85 81 71 72 72 70 68 68 69 70 71 70 71 71 69 67 67
20 18 13 13 15 18 21 28 43 51 54 62 64 60 58 58 56 48 51 57 72 80 93 94 93 91 92 86 82 70 71 73 72 71 69 68 67 68 67 67 65 63 62 62
19 20 14 16 18 21 24 33 44 51 55 61 67 67 63 61 60 61 52 62 71 83 92 94 93 95 94 86 73 74 73 73 72 70 69 67 65 64 64 63 61 60 61 61
20 22 19 20 22 24 26 34 42 49 55 63 67 70 74 71 75 80 75 73 84 81 84 89 90 91 86 81 77 74 72 70 69 69 68 67 66 64 62 61 59 59 59 59
24 24 22 24 21 24 30 39 45 52 59 62 65 70 76 74 79 84 86 90 92 91 82 81 85 77 70 74 77 78 74 71 69 68 65 63 65 65 64 64 63 63 62 62
29 24 25 26 26 31 38 44 46 50 54 59 61 68 72 74 87 92 96 98 96 92 87 95 88 79 78 76 76 75 76 74 70 67 68 68 66 65 65 66 68 65 64 64
29 26 30 32 34 38 41 48 48 48 53 52 59 63 69 76 87 91 96 98 98 95 94 94 85 77 81 81 78 76 76 75 75 73 72 71 70 67 67 67 67 66 67 67
33 32 35 31 36 41 46 49 44 38 38 44 48 59 65 79 90 95 97 98 97 97 99 94 82 84 85 84 83 82 80 78 77 77 75 75 75 75 75 74 74 76 76 76
36 36 35 34 41 45 45 40 38 37 40 41 46 55 64 76 91 95 96 96 97 96 93 90 90 90 89 88 86 84 82 80 79 80 77 76 77 77 76 74 70 67 65 71
41 41 38 38 37 42 42 43 41 42 40 42 48 53 64 81 97 98 99 98 96 90 88 95 95 95 96 95 92 89 88 90 89 80 76 74 73 72 72 70 69 67 64 61
44 44 45 39 37 38 41 42 41 43 43 42 51 59 70 80 98 98 98 98 97 94 98 97 97 98 98 97 96 96 97 91 89 82 79 78 75 67 58 47 40 39 40 41
50 47 42 39 39 37 38 39 42 46 46 45 53 59 73 82 97 98 98 98 98 98 97 97 97 97 98 98 98 98 98 92 90 88 84 78 68 54 35 20 15 16 18 22

GFSNW_prec_cthk_090.txt.gz
RH
26 24 23 21 20 19 19 26 33 35 43 49 61 70 79 76 78 82 87 87 90 92 94 97 97 97 98 93 63 52 50 77 77 72 68 66 74 86 80 82 85 81 74 66
27 24 23 21 21 20 20 24 27 33 36 51 61 67 75 74 81 84 83 85 83 85 92 94 99 98 99 93 73 62 54 69 85 80 77 78 69 75 67 71 78 84 76 64
27 23 22 22 21 21 20 21 27 28 36 45 56 69 74 74 78 85 84 87 79 79 87 95 96 97 98 98 91 77 71 74 63 74 63 72 69 74 72 67 77 74 72 64
26 24 22 23 21 21 20 21 31 33 36 39 51 61 72 79 78 80 87 90 86 84 84 90 94 94 98 99 98 98 95 85 55 75 75 64 62 68 78 76 67 68 66 69
28 26 24 24 22 22 19 21 26 30 34 40 46 49 64 80 79 81 88 92 88 86 86 88 95 95 93 94 98 98 98 97 84 81 77 74 71 71 71 72 70 69 68 65
31 27 25 24 23 23 21 23 25 26 31 38 41 49 50 60 77 81 90 89 89 87 88 86 84 91 87 91 95 96 92 93 78 94 84 85 83 72 71 68 67 69 70 61
31 29 25 25 24 23 21 21 23 24 28 32 36 39 46 52 63 80 81 87 89 88 83 81 80 79 84 83 81 86 84 83 79 88 88 95 75 70 70 72 70 66 62 63
31 30 25 27 26 25 23 23 24 24 28 31 34 35 39 44 55 70 82 87 85 89 83 82 83 76 72 72 73 79 80 77 75 85 80 66 67 70 76 72 65 60 60 57
32 30 25 27 27 25 23 24 26 26 28 30 34 38 38 42 52 66 74 79 82 92 88 88 84 88 77 76 77 68 71 73 74 74 73 67 73 64 68 71 66 54 55 60
31 29 25 25 26 24 22 24 27 26 29 30 35 39 42 40 48 66 75 83 84 92 91 90 88 91 82 81 82 78 71 69 72 76 74 69 72 68 72 74 66 64 70 76
30 26 25 23 24 24 24 24 27 28 32 36 37 42 45 44 43 58 71 86 86 86 92 90 93 91 88 79 77 80 77 72 72 70 69 66 66 68 66 74 71 66 63 65
27 24 23 23 23 22 22 23 27 30 35 36 38 41 44 47 47 48 66 86 87 88 87 91 90 89 89 87 83 79 77 73 71 68 66 62 63 64 68 68 66 69 69 69
27 24 23 23 22 21 23 25 29 33 35 32 35 37 38 41 43 43 59 73 88 87 86 88 94 91 88 86 84 81 78 75 71 68 66 66 68 69 67 69 71 70 70 70
29 27 25 25 22 22 24 24 29 32 34 33 33 37 36 39 39 40 50 65 80 88 86 88 91 92 88 86 84 83 76 75 73 70 70 70 71 73 74 74 73 72 71 71
32 32 27 24 23 19 22 22 29 33 35 36 40 42 48 51 44 42 44 59 68 82 86 90 91 91 92 88 84 83 78 74 76 74 71 72 72 72 72 71 71 72 72 73
36 31 28 26 22 19 21 21 29 33 37 40 46 48 49 52 47 46 44 50 65 67 83 89 89 88 91 90 86 75 75 77 75 73 73 74 75 77 75 73 72 72 70 70
43 35 28 26 21 20 19 22 29 32 38 42 45 49 52 55 59 53 44 44 51 63 71 85 90 89 90 90 85 73 75 75 79 79 77 75 74 75 75 73 71 69 68 65
48 37 29 29 25 21 22 26 30 34 38 41 45 47 53 57 65 67 65 56 52 59 74 86 89 90 92 90 78 75 76 77 80 81 80 77 75 74 74 73 70 64 60 58
48 39 30 35 27 24 24 28 32 36 39 42 45 49 51 54 60 76 83 81 74 66 78 84 87 84 85 79 79 77 77 78 79 79 79 77 77 74 72 69 66 64 61 59
50 40 33 37 27 28 31 36 37 41 42 45 45 48 50 52 63 77 86 91 93 86 83 83 84 75 73 76 74 76 78 78 76 74 73 72 71 69 69 68 65 64 64 63
52 40 38 36 34 37 38 40 40 42 45 46 40 39 43 49 65 79 86 94 94 94 92 93 91 79 78 78 76 76 79 77 74 72 72 70 71 70 67 65 65 64 64 63
51 44 41 42 40 42 41 43 42 40 43 36 36 37 38 45 66 83 92 97 97 94 93 92 85 80 81 79 79 78 75 73 73 72 73 73 72 72 71 69 68 67 66 66
54 50 45 43 42 47 43 44 40 34 34 34 35 37 38 46 60 79 95 98 94 93 95 91 87 89 87 88 86 82 81 79 77 76 75 73 73 72 72 74 75 76 75 73
57 50 46 42 47 45 43 37 34 34 35 36 36 37 40 45 57 80 89 96 99 98 91 91 93 93 96 92 91 88 87 84 81 75 69 67 66 66 65 64 62 60 60 57
57 50 45 47 45 50 43 39 39 37 36 37 40 39 43 49 59 78 92 98 98 95 93 95 94 96 97 98 96 93 92 89 81 72 71 72 73 71 68 64 58 54 53 55
61 55 53 50 49 49 46 43 42 39 39 41 44 44 49 56 68 81 95 98 97 94 94 97 96 97 97 98 98 98 97 93 84 84 81 82 79 73 60 45 29 25 25 29
63 62 56 50 50 45 43 42 44 42 41 43 48 48 48 55 63 83 96 96 97 97 90 92 96 97 98 97 98 98 98 98 92 91 88 86 79 65 50 32 23 19 19 20

GFSNW_prec_cthk_096.txt.gz
RH
29 26 26 25 25 22 22 25 30 28 33 39 47 51 56 62 65 73 76 80 79 77 87 99 98 98 98 88 51 56 60 69 71 74 79 89 95 84 83 94 87 79 78 62
27 25 26 24 25 22 22 23 25 26 30 39 45 44 50 57 64 73 73 79 80 79 81 94 98 98 96 82 46 50 55 66 68 73 77 86 89 79 78 78 79 84 73 65
27 26 25 24 25 23 22 23 29 26 28 36 40 45 45 47 59 72 75 77 75 80 78 85 95 99 97 82 64 52 45 55 63 64 70 75 79 75 76 74 78 73 66 62
27 28 25 23 24 24 22 23 27 25 31 29 31 36 34 39 53 62 74 73 74 78 82 79 91 96 98 93 78 66 56 57 60 70 80 81 75 67 70 75 67 70 64 59
33 31 25 24 23 24 23 25 26 27 27 28 29 27 31 35 41 63 73 73 71 79 82 85 87 96 98 96 96 86 68 71 83 80 74 75 79 69 66 64 62 62 64 60
33 33 26 24 23 23 24 25 24 24 25 27 26 27 29 30 35 42 65 70 71 75 80 79 82 88 96 98 98 93 87 88 83 96 92 81 81 68 68 59 59 62 63 60
33 35 28 24 23 23 24 24 23 23 24 25 26 28 29 31 31 37 53 71 72 72 76 79 82 80 86 95 96 98 92 92 82 83 87 84 74 73 68 61 60 61 64 64
35 38 33 27 23 23 25 24 23 22 26 25 27 28 30 29 29 34 47 63 68 71 76 76 74 74 75 82 86 94 97 91 76 82 80 78 72 74 77 68 60 56 59 60
40 36 33 31 23 24 24 26 24 22 23 25 27 29 30 34 32 33 39 60 71 72 79 76 80 83 75 78 84 83 83 83 80 73 79 73 77 76 78 77 69 60 58 60
35 35 35 32 25 24 26 28 26 24 24 27 28 27 30 34 34 32 37 59 68 69 76 80 82 82 77 75 82 84 78 77 78 77 73 72 73 80 86 83 76 69 64 67
35 34 37 31 27 27 29 30 28 25 26 28 28 26 28 30 34 34 33 58 68 71 72 81 84 81 83 76 76 81 82 78 74 74 71 72 72 80 82 87 78 70 71 72
37 37 36 31 27 30 33 32 27 26 26 29 30 31 29 30 31 33 34 54 72 73 70 72 85 81 81 83 76 76 79 77 75 72 73 74 78 76 81 79 79 74 71 74
38 40 35 34 27 32 36 33 27 26 27 32 33 34 31 30 31 33 35 41 67 74 76 75 78 87 82 78 77 80 75 77 75 70 70 72 78 83 81 78 79 80 79 75
38 38 35 34 30 35 38 35 28 25 26 29 33 33 37 35 34 32 31 34 43 63 75 77 79 83 83 83 78 78 77 76 75 70 70 71 77 82 78 78 75 74 79 80
40 41 36 36 35 40 41 35 30 26 25 27 31 31 30 37 40 37 36 33 35 45 62 79 80 82 85 83 85 81 77 76 74 75 75 72 75 81 81 80 78 76 74 73
39 39 39 39 40 45 44 35 29 26 24 25 30 29 30 30 36 43 43 43 41 38 41 55 74 83 85 86 85 80 80 79 81 79 80 79 79 79 80 78 77 75 74 73
44 44 42 41 44 53 45 36 31 27 27 26 30 30 28 28 30 37 46 49 51 52 48 41 50 69 80 88 85 78 83 83 83 85 86 84 82 81 80 81 82 81 78 73
52 44 44 50 51 60 47 41 35 29 27 25 28 27 28 25 27 33 44 51 53 58 59 59 51 53 70 81 88 92 89 88 85 85 89 89 88 86 84 82 82 82 80 75
47 42 52 55 62 62 49 47 40 33 29 30 28 25 26 24 27 36 46 50 54 60 65 70 71 67 72 81 91 95 94 95 93 92 92 94 92 89 85 83 82 81 78 76
49 51 57 58 66 66 55 53 44 38 35 31 29 29 27 27 28 36 46 53 57 62 65 73 80 83 80 75 83 91 92 93 93 95 96 95 92 88 83 81 80 80 78 75
53 56 58 65 74 67 62 58 48 43 40 35 30 31 29 29 32 36 45 51 57 63 66 77 80 89 93 89 93 92 94 93 89 89 92 92 88 86 83 81 79 78 75 72
53 55 65 73 76 68 66 63 53 45 42 37 34 34 33 34 35 44 48 52 58 61 69 75 78 87 92 96 97 97 94 92 91 90 91 90 86 81 78 74 72 72 72 72
60 64 71 73 75 72 68 66 59 50 41 39 37 35 35 37 39 40 46 56 58 61 70 71 76 85 92 96 97 98 98 98 96 94 91 89 87 83 79 78 75 67 57 52
64 67 73 76 74 68 64 59 48 42 41 39 37 40 38 41 40 43 48 52 62 68 69 69 71 80 84 92 95 97 98 98 98 97 95 90 86 75 65 62 62 58 53 42
67 69 74 76 70 65 61 56 50 48 46 41 41 42 43 45 45 48 53 59 64 62 62 64 66 72 80 85 91 94 97 98 98 96 85 77 74 75 77 74 64 47 34 24
71 73 74 73 76 75 69 62 56 54 50 44 43 47 49 49 54 58 57 62 59 56 52 53 57 58 67 74 84 86 91 97 97 98 90 82 80 85 86 77 58 45 33 27
78 77 75 71 65 64 64 64 62 57 52 46 45 51 49 54 60 59 58 56 50 47 41 38 40 42 52 64 77 88 88 95 97 97 97 96 96 97 89 74 57 46 36 32

GFSNW_prec_cthk_099.txt.gz
RH
39 38 33 27 26 24 23 27 31 23 25 39 45 48 50 56 59 64 69 74 75 74 78 98 98 98 89 63 52 55 62 72 69 71 77 88 97 93 85 94 83 79 83 69
44 37 31 27 25 24 23 28 26 22 25 40 43 42 46 51 55 62 67 72 70 74 78 91 98 96 88 55 52 53 60 67 67 64 73 85 89 83 82 79 81 86 91 66
50 35 33 29 25 24 22 25 29 24 25 28 36 41 36 42 50 59 67 72 69 72 77 80 96 98 90 66 53 52 57 56 64 63 71 73 82 79 80 79 89 81 71 64
48 38 35 27 25 23 23 25 26 24 30 28 26 31 30 33 44 51 63 73 68 73 80 78 94 98 96 82 67 54 55 57 54 66 77 76 77 76 80 83 78 89 69 65
44 45 34 28 25 25 24 25 25 24 24 24 27 26 26 28 31 50 60 65 65 71 78 80 84 97 97 97 85 66 58 68 74 77 62 66 72 73 66 71 73 71 68 69
51 37 38 30 25 27 25 23 21 24 23 23 26 26 25 24 26 33 51 59 63 69 75 78 79 82 95 99 93 80 84 77 89 96 90 82 82 71 66 63 63 67 67 65
56 44 39 34 28 27 27 24 23 24 24 23 25 26 27 26 25 31 44 58 66 66 70 76 82 78 83 93 98 92 87 89 87 97 90 91 76 67 66 67 64 59 61 64
55 43 42 38 31 26 28 25 24 24 23 22 24 26 27 26 25 29 40 53 61 67 72 74 75 76 79 86 92 98 95 94 94 94 83 76 72 70 69 67 65 61 60 59
58 43 44 36 32 27 28 28 25 24 24 23 23 27 28 27 28 30 36 53 62 67 70 69 75 77 70 78 84 88 91 88 85 81 80 73 75 70 72 71 72 62 65 60
61 41 42 35 33 29 27 29 26 27 26 25 26 27 28 30 28 28 32 51 61 65 66 67 71 70 71 73 78 84 83 81 79 82 76 75 73 76 82 82 79 70 62 59
59 42 38 36 38 30 29 30 28 31 28 27 26 25 27 26 29 31 31 52 59 62 63 66 69 73 73 74 72 77 81 81 79 75 76 80 73 78 86 87 78 72 67 64
59 42 36 41 39 32 32 31 30 31 32 30 28 28 26 27 26 30 36 50 60 63 64 64 70 72 73 75 88 75 83 77 79 75 80 75 80 81 83 85 87 80 78 76
58 42 37 40 39 39 34 35 33 33 34 34 34 31 27 24 26 27 31 43 55 63 66 68 71 74 72 73 75 77 79 79 77 75 74 76 81 86 83 84 86 86 82 81
48 39 40 38 37 40 40 41 34 33 33 31 33 33 35 32 29 27 27 32 35 46 61 67 72 76 73 72 76 75 76 80 82 78 75 78 79 84 85 94 86 83 87 86
46 39 38 40 35 38 44 47 35 33 33 31 32 30 29 31 33 36 33 33 33 36 38 55 71 76 82 78 76 77 77 78 80 88 85 80 83 88 94 89 88 85 83 81
46 40 42 39 37 40 44 53 41 35 33 33 34 29 30 27 28 35 39 40 41 39 39 38 46 62 78 81 82 75 76 78 79 82 84 86 85 87 87 87 87 83 81 80
45 42 41 39 38 44 45 59 49 39 33 33 32 31 27 27 28 34 39 43 45 44 44 46 42 44 55 71 76 73 79 85 87 84 86 88 87 87 88 88 87 86 83 81
45 42 39 39 47 50 52 64 51 41 36 29 32 32 30 26 31 33 39 43 46 48 49 50 53 56 57 54 63 80 88 89 90 91 89 91 92 90 87 84 83 82 82 80
48 41 40 51 52 52 61 67 54 44 39 34 29 30 31 27 30 36 42 46 48 50 51 55 60 61 67 69 66 68 88 92 91 92 95 93 95 96 93 90 85 84 85 86
46 44 52 58 54 62 67 70 61 54 45 35 32 27 31 30 33 38 42 48 49 55 52 55 60 61 72 75 76 70 73 86 88 89 93 96 97 95 93 90 84 82 80 80
50 55 60 58 63 71 73 72 65 60 49 39 34 32 34 32 37 39 43 47 48 56 56 58 56 61 64 73 79 83 81 85 87 89 90 89 90 91 90 87 86 83 80 78
56 57 62 65 74 76 76 73 71 63 54 43 41 38 36 38 41 44 46 49 51 53 59 62 55 56 61 71 77 82 90 93 93 93 92 91 93 93 92 88 85 80 76 72
60 57 63 73 76 77 76 75 73 67 54 45 40 41 40 42 44 44 47 52 54 54 64 59 53 52 57 63 71 76 81 88 94 96 96 96 95 92 90 86 82 80 72 58
60 65 71 74 77 74 73 74 69 58 51 45 44 44 46 47 45 46 50 50 56 61 65 61 51 50 51 55 63 71 74 79 84 87 91 96 98 95 90 81 67 63 61 56
66 68 72 73 75 73 74 72 66 58 51 46 47 47 47 50 49 50 53 56 59 58 55 53 47 43 42 41 44 56 70 76 80 85 91 92 88 82 78 73 76 74 63 45
67 71 74 78 79 80 73 71 66 60 54 46 48 52 54 52 53 56 58 59 56 56 52 46 43 41 36 34 34 36 53 71 77 82 87 92 87 83 80 81 86 77 58 46
77 77 75 80 78 79 81 74 68 60 56 54 53 56 52 56 58 58 57 57 54 52 49 42 34 27 24 21 21 24 34 55 79 85 88 93 94 92 95 97 90 77 60 51

GFSNW_prec_cthk_102.txt.gz
RH
54 55 53 36 28 26 28 30 36 23 24 35 39 46 47 51 54 59 65 70 69 73 76 97 97 94 74 56 51 58 66 79 80 83 80 87 91 91 83 98 96 94 88 70
57 55 64 34 28 27 27 31 30 22 26 39 43 39 45 46 51 57 62 68 66 69 79 89 91 90 69 51 52 58 61 74 82 75 74 83 88 84 82 87 85 88 93 77
56 56 66 35 29 26 26 26 31 24 26 25 30 34 34 37 46 56 62 65 64 66 74 82 95 95 75 52 53 54 57 62 71 83 76 78 81 78 76 82 94 95 86 76
58 59 68 39 28 27 26 26 31 27 34 30 24 26 28 32 40 48 57 65 62 65 77 80 88 96 91 69 53 51 54 54 52 59 68 73 76 74 77 85 94 98 77 74
68 68 68 37 27 27 26 26 25 23 25 22 23 26 27 27 29 45 55 56 57 65 74 79 84 93 95 89 72 58 53 63 65 75 68 66 74 71 71 79 91 85 74 77
73 73 60 38 29 27 27 26 24 25 26 23 24 27 26 26 25 31 44 51 55 63 69 74 79 86 93 96 88 71 67 76 85 94 80 74 81 70 74 72 76 80 77 74
69 66 55 44 34 28 27 26 25 23 26 23 26 24 24 25 25 29 38 47 56 61 66 75 80 77 86 96 95 86 80 81 88 95 81 93 78 70 70 67 70 69 70 74
67 67 56 55 39 31 27 26 26 24 25 23 24 24 25 25 25 27 34 46 52 59 67 74 84 83 87 90 92 94 92 88 91 97 98 80 75 71 72 68 73 70 66 66
78 67 47 57 40 33 27 26 26 24 24 24 24 25 25 31 28 29 32 47 54 59 64 67 78 80 71 83 91 92 94 92 94 90 94 97 84 74 71 70 79 78 73 68
84 66 42 57 38 32 27 27 28 25 26 26 25 28 29 28 28 29 30 47 53 59 61 64 70 74 70 80 82 91 90 86 88 90 94 86 76 77 76 78 87 76 72 69
82 67 54 51 39 34 27 28 30 28 27 27 25 24 27 27 29 33 31 50 53 59 59 61 63 66 70 77 73 74 80 85 93 79 81 95 79 78 86 90 86 84 76 72
68 71 57 46 41 34 28 29 31 30 29 28 25 24 24 25 27 30 36 49 55 56 61 59 64 66 66 69 84 68 84 78 81 77 85 78 77 78 80 85 90 88 86 84
81 71 53 44 44 37 30 31 34 32 32 32 31 28 24 25 25 27 35 43 50 54 58 61 65 68 68 65 72 72 75 76 79 78 78 75 79 81 85 85 90 93 90 92
87 66 51 49 41 44 40 35 39 34 33 32 35 33 32 29 27 26 26 30 34 40 49 56 64 67 69 70 72 74 73 73 77 80 79 79 84 83 86 91 90 87 92 91
83 67 49 46 42 40 45 46 44 36 36 34 32 29 28 30 35 34 31 30 32 34 36 41 52 63 70 71 74 76 75 77 78 85 84 83 84 87 88 92 93 90 85 87
84 61 44 48 44 43 46 47 50 38 36 32 37 30 27 27 30 36 37 38 40 37 36 37 39 44 55 67 74 77 76 78 80 82 81 81 82 83 88 95 93 92 91 87
80 54 44 46 48 45 47 49 52 49 37 37 36 33 29 28 30 36 40 41 43 42 40 39 39 42 46 50 52 68 75 80 83 85 86 86 88 88 86 89 89 89 90 89
74 56 48 49 51 44 46 54 57 58 41 38 42 39 32 29 34 37 40 40 43 45 43 43 44 46 46 53 60 57 58 70 84 88 91 92 91 92 94 91 88 87 85 84
70 53 46 49 49 45 52 60 61 62 46 42 40 38 40 30 32 38 44 45 47 48 48 48 49 48 55 52 55 60 58 58 71 87 88 89 94 95 96 98 96 92 87 84
62 53 50 49 49 51 59 65 66 63 56 45 46 37 36 35 35 40 45 49 49 52 48 49 54 50 51 53 56 60 64 66 65 71 88 90 89 89 93 96 97 95 91 88
62 56 55 56 54 59 69 73 74 69 63 57 49 41 37 35 40 40 45 50 50 56 59 57 56 56 51 52 54 59 64 70 75 74 77 88 91 92 86 87 88 90 90 89
60 51 57 56 60 72 76 79 77 74 68 58 51 43 39 39 40 45 49 51 51 57 58 59 57 52 52 51 52 56 59 64 69 76 83 85 90 90 93 90 91 91 89 86
60 52 54 63 74 78 76 77 80 81 68 60 53 46 43 42 45 45 50 52 56 54 62 57 56 51 49 47 47 48 52 56 58 64 72 80 89 93 94 96 94 91 88 83
51 53 67 75 77 73 71 74 77 76 67 59 52 45 49 48 48 50 54 53 57 65 60 56 55 50 45 41 35 31 35 42 51 56 62 72 81 88 91 96 96 86 73 68
57 65 73 73 77 75 74 74 77 75 64 52 50 48 49 53 53 54 56 57 56 56 59 56 53 43 39 36 37 36 30 27 30 43 54 63 77 87 88 84 81 76 76 78
70 74 77 77 75 77 80 82 80 70 58 52 51 53 56 58 56 57 59 57 57 58 58 52 44 42 38 35 29 23 22 20 20 31 37 52 69 85 87 87 82 81 83 81
78 80 78 78 73 74 76 77 71 67 61 59 56 58 57 60 59 61 60 59 58 57 51 47 44 36 30 27 25 24 25 23 23 30 38 46 62 80 92 95 96 98 95 84

GFSNW_prec_cthk_105.txt.gz
RH
99 82 52 50 60 36 33 35 40 26 30 35 34 40 40 44 49 55 63 68 69 73 78 89 93 75 61 55 60 63 70 82 87 76 76 78 82 82 81 86 89 90 94 79
98 74 56 53 47 35 33 33 36 26 34 37 39 35 37 39 49 53 57 66 63 69 81 88 92 69 51 50 56 62 68 75 80 75 71 74 77 75 81 85 93 97 97 82
99 78 54 64 44 36 31 30 32 27 31 27 31 33 31 34 43 53 58 62 62 66 74 78 90 85 55 50 53 54 57 66 72 79 79 72 79 79 81 82 98 94 91 81
98 70 58 68 45 35 29 27 29 25 31 29 25 26 26 28 39 49 54 60 59 64 77 81 88 95 78 50 50 51 52 56 55 64 68 69 72 76 78 85 97 92 84 77
95 75 62 70 49 35 27 26 24 24 27 25 23 27 26 24 28 44 54 54 56 62 73 75 82 93 91 82 60 50 50 50 60 67 65 68 68 70 72 82 96 89 84 74
87 69 70 82 43 32 26 27 23 20 26 23 26 27 25 24 23 33 45 49 55 59 70 75 75 85 91 91 79 61 63 81 86 93 81 69 79 78 71 86 95 86 93 83
82 75 84 76 41 31 27 26 21 21 25 25 26 26 24 23 24 30 37 45 53 58 64 72 75 77 86 93 89 78 76 81 87 97 90 94 87 82 77 81 92 87 83 83
87 82 81 69 51 31 27 26 20 21 25 24 25 24 23 23 24 27 32 45 48 55 65 73 81 82 82 89 91 89 87 83 93 98 97 87 83 82 82 78 85 89 80 81
85 79 72 68 61 35 29 27 21 21 23 26 23 24 24 28 27 31 36 45 51 56 59 68 77 77 76 84 95 92 87 84 89 90 98 96 85 82 80 77 86 83 78 74
80 78 78 68 55 34 29 27 23 23 25 25 24 26 26 27 29 33 36 46 53 54 55 59 66 70 67 79 78 91 89 84 87 89 91 89 81 79 81 82 87 81 78 75
79 89 73 70 53 34 30 27 25 24 24 26 25 25 25 25 27 31 37 50 51 54 53 54 56 59 64 71 72 73 82 84 87 82 85 90 77 76 83 88 85 83 79 75
88 84 74 70 52 37 31 29 27 23 22 26 24 24 24 26 27 30 36 46 50 52 54 53 58 57 60 66 82 71 84 75 82 79 84 79 81 80 81 82 86 87 85 83
95 85 78 65 52 37 33 31 29 25 27 28 27 25 23 24 25 31 39 45 46 49 49 52 56 62 63 59 71 68 69 71 76 76 84 80 82 87 85 84 86 89 90 90
91 88 83 68 55 39 35 33 32 31 29 32 35 31 27 26 25 27 30 35 39 41 45 47 54 56 58 63 64 66 67 68 74 81 81 82 89 88 91 94 92 89 91 94
91 90 81 60 59 46 39 36 39 33 31 33 35 32 29 31 33 28 28 28 29 34 36 37 43 50 59 60 64 68 68 71 74 78 81 83 84 84 91 89 91 97 94 94
89 91 76 64 53 53 53 46 46 36 30 28 39 32 30 29 32 35 36 36 34 33 35 36 36 40 46 54 63 68 69 72 73 80 82 78 81 88 89 91 95 96 96 95
95 90 72 62 48 51 52 51 48 48 38 33 39 38 34 33 32 37 40 41 41 37 36 36 38 41 43 44 50 54 55 60 67 73 77 82 84 87 88 91 91 94 94 95
96 92 66 62 52 52 53 51 47 48 52 40 43 47 38 35 36 37 38 40 41 41 40 40 40 42 43 45 47 50 50 50 53 60 70 82 85 85 90 91 93 93 92 88
97 85 56 55 62 52 51 51 55 57 54 50 41 42 46 38 37 37 41 45 48 46 48 45 48 46 50 45 47 50 52 53 54 56 58 68 80 88 88 88 92 94 96 94
94 70 57 56 70 49 45 56 60 60 57 58 54 44 43 41 40 42 46 49 51 53 50 48 53 48 47 49 50 49 51 56 58 58 61 63 65 73 85 87 91 93 92 94
88 65 63 63 69 52 51 66 75 72 66 61 61 52 46 46 43 41 45 50 51 57 58 54 59 46 48 51 52 53 55 55 57 60 63 65 69 71 73 82 86 89 90 90
77 63 62 60 60 59 63 76 80 75 68 64 59 58 47 46 43 41 49 50 51 53 61 61 55 49 48 51 51 53 54 51 52 53 55 58 61 67 74 81 86 90 90 94
72 59 61 63 62 65 68 77 82 78 73 66 59 56 46 44 44 44 50 52 56 57 64 57 56 51 51 50 48 44 38 35 36 42 46 48 51 57 63 70 78 90 97 97
65 63 68 67 64 64 65 71 72 74 75 67 53 50 49 47 48 49 55 56 57 62 66 57 54 52 48 42 38 35 33 32 30 29 29 34 38 46 55 63 72 82 92 93
66 65 62 68 65 68 72 75 76 77 76 61 53 50 50 54 52 55 57 57 59 58 56 57 54 49 41 39 39 38 34 29 24 23 22 28 31 36 42 54 62 71 79 83
69 70 67 67 68 76 75 78 79 77 67 54 45 49 52 58 58 60 60 62 60 55 59 56 48 43 41 39 35 29 25 24 24 25 26 30 32 37 42 49 56 69 79 84
74 75 70 69 70 74 76 84 84 76 66 60 52 51 55 60 61 61 61 58 58 60 55 48 46 43 35 30 29 27 27 27 28 28 33 34 35 37 43 51 62 72 84 98

GFSNW_prec_cthk_108.txt.gz
RH
99 97 98 64 45 60 54 39 44 34 35 37 40 40 37 41 46 50 55 65 65 68 81 90 69 54 62 62 72 80 76 90 92 84 80 81 84 82 84 83 84 85 79 65
99 97 93 49 53 61 44 38 39 33 36 40 41 36 35 41 45 49 51 62 58 63 76 90 75 52 51 57 60 73 74 75 81 74 71 71 73 75 77 82 84 85 83 67
98 98 86 49 66 55 40 37 40 35 36 37 36 34 32 37 44 47 52 56 56 63 71 78 89 55 49 51 53 60 65 69 75 82 74 73 73 75 75 83 85 93 91 78
98 97 75 60 59 46 39 33 31 24 34 31 31 31 28 33 42 46 50 54 55 59 72 76 86 81 55 47 48 50 50 55 60 63 67 68 67 70 77 87 96 95 90 87
98 95 75 68 67 51 37 32 29 26 27 27 26 26 25 26 31 43 48 49 53 56 67 69 81 86 74 71 56 46 50 56 69 71 66 65 65 65 73 83 92 93 86 79
98 94 85 61 68 46 35 28 23 20 28 27 24 26 24 23 23 36 43 48 52 56 66 66 72 81 82 76 68 59 67 79 85 89 76 65 72 74 72 88 96 94 94 89
98 90 85 77 69 45 30 26 21 21 26 24 25 25 24 23 23 29 39 44 52 58 62 67 71 77 85 85 75 70 79 79 83 92 86 90 90 76 70 84 97 95 90 88
95 91 83 91 71 40 33 25 19 20 26 24 26 25 24 23 24 26 35 43 49 55 63 70 75 74 80 86 82 79 78 84 87 90 90 89 83 85 85 85 92 93 93 86
92 92 91 92 55 39 34 26 21 21 23 25 24 24 23 27 28 28 33 42 50 58 63 66 72 73 74 83 88 81 78 82 87 86 88 90 82 81 82 81 89 89 89 86
95 95 95 79 58 42 34 28 23 21 23 26 24 24 26 27 27 32 36 44 51 54 57 60 60 62 63 70 77 85 76 78 83 88 90 85 78 81 81 83 82 81 79 78
96 96 87 81 70 40 34 29 25 21 23 26 25 25 25 26 27 29 36 47 50 51 52 55 54 55 58 64 68 70 79 78 83 82 84 89 79 78 83 85 81 80 78 74
97 95 91 86 69 40 35 31 27 22 19 28 27 25 24 25 25 28 40 44 46 48 50 49 49 51 54 58 73 65 74 73 82 77 82 79 82 81 79 77 78 81 83 81
97 96 92 89 68 41 35 32 27 22 24 27 25 24 24 25 25 28 34 43 44 45 47 50 50 51 54 57 63 62 62 65 70 71 80 77 78 82 85 85 85 81 81 84
97 97 92 90 58 41 35 34 29 24 24 28 32 30 28 26 25 30 32 36 40 45 45 45 49 51 52 54 55 57 58 60 66 72 72 75 77 82 81 85 93 88 87 86
97 96 92 87 66 42 38 37 34 30 28 33 37 34 33 31 27 25 25 26 31 35 38 39 44 46 50 50 53 55 58 62 64 65 69 71 72 78 79 83 85 87 89 92
97 95 94 87 69 46 42 42 41 35 30 27 39 35 37 35 35 33 31 29 29 30 34 36 36 40 45 51 55 54 55 59 62 65 67 68 70 71 76 84 86 90 93 95
97 97 91 85 73 49 44 42 44 37 34 30 37 38 38 35 36 37 38 36 34 33 34 36 39 42 44 43 48 48 50 51 52 55 58 65 69 73 77 79 84 89 92 93
97 97 88 85 74 55 50 45 49 50 42 36 40 45 41 39 38 37 38 39 40 39 38 40 41 43 46 48 42 47 45 44 45 50 48 52 62 70 76 82 81 86 89 93
98 98 89 81 68 62 67 58 51 47 49 50 44 42 44 44 41 39 41 41 45 44 45 43 44 45 49 42 43 47 48 48 47 47 49 52 57 62 68 74 80 85 85 88
98 97 85 75 61 58 55 66 51 50 51 53 55 50 45 43 42 40 45 47 51 52 49 48 50 49 42 45 46 48 49 51 53 53 54 54 55 58 61 62 67 74 83 87
98 92 78 78 69 57 63 59 54 58 62 58 61 57 50 46 44 44 44 51 51 52 53 54 54 51 46 46 49 50 51 52 54 54 54 55 55 57 60 62 66 68 71 78
94 77 74 75 79 71 61 59 63 71 66 66 63 61 59 54 48 46 49 50 50 55 56 57 52 47 48 48 51 51 50 48 44 43 45 46 47 48 49 52 58 62 67 76
83 68 71 82 85 73 62 63 74 77 73 67 63 62 57 56 52 46 50 52 53 54 60 56 53 51 48 49 48 46 40 35 33 32 32 30 34 35 37 40 48 52 59 66
74 71 74 78 79 65 60 60 64 79 74 64 58 57 55 54 52 49 55 55 57 57 61 56 50 53 50 48 41 37 36 36 35 33 28 24 25 29 30 32 37 43 47 52
77 73 69 69 60 64 66 65 70 81 72 65 60 54 51 53 55 56 57 60 64 60 55 50 51 52 47 40 37 37 36 34 28 26 25 25 26 29 31 34 38 41 44 46
81 76 70 71 68 70 71 70 77 79 71 64 55 52 52 57 56 58 58 60 60 52 51 52 54 48 43 42 39 37 30 28 27 26 26 26 29 32 32 35 38 41 48 52
82 78 70 68 68 69 70 74 82 77 69 67 56 48 51 58 58 58 57 56 51 52 55 51 46 44 43 37 32 30 29 28 26 24 25 29 31 30 32 35 42 47 49 54

GFSNW_prec_cthk_111.txt.gz
RH
82 88 98 98 91 69 71 69 53 44 43 42 40 40 37 39 44 48 53 57 59 62 78 67 52 55 64 71 78 89 85 92 90 90 85 87 88 92 94 84 87 87 84 73
83 91 98 98 92 57 61 59 48 46 43 42 41 38 37 43 44 45 47 56 52 58 73 78 49 49 52 65 75 87 83 80 82 74 73 76 81 82 86 84 82 87 82 76
86 92 98 97 85 51 64 45 44 45 44 42 37 35 35 43 45 45 46 50 52 60 71 72 64 48 47 53 60 65 62 64 67 76 73 74 72 72 74 79 88 89 87 83
97 98 98 96 61 62 58 37 37 31 39 39 36 31 32 38 45 45 44 48 51 56 72 71 71 58 49 44 49 48 50 56 63 62 63 66 62 65 72 86 83 90 93 88
98 98 97 84 68 66 43 34 32 28 29 29 32 29 29 33 37 43 44 46 51 53 62 70 75 66 60 57 48 47 58 58 71 70 67 66 64 65 76 81 81 84 91 97
99 98 95 79 74 59 45 32 27 25 30 28 25 28 25 26 32 40 42 45 50 55 60 66 72 72 64 60 63 64 74 79 81 85 73 68 78 80 74 78 82 84 90 89
97 97 94 91 73 69 41 30 25 23 30 26 23 24 22 23 27 36 40 43 48 55 59 65 71 76 75 70 67 70 80 80 82 85 81 80 79 70 72 79 85 85 85 81
97 96 96 92 67 55 39 30 25 22 27 24 24 26 24 23 24 32 37 41 47 53 61 68 68 69 78 75 71 70 75 81 79 84 85 85 80 80 78 81 80 82 83 83
98 97 94 91 82 61 35 29 25 23 24 25 24 25 25 25 27 31 35 41 44 54 60 67 71 70 70 77 74 72 71 77 78 81 80 81 83 80 79 78 79 85 84 82
96 97 97 97 86 61 34 30 26 24 24 26 24 24 24 24 26 31 36 42 50 53 57 59 59 60 60 67 74 67 67 72 74 78 79 75 71 75 76 76 78 81 82 80
94 97 97 96 78 55 40 32 27 23 24 27 24 24 24 25 26 31 38 47 49 51 51 52 53 53 56 61 60 67 68 69 72 74 74 76 71 72 78 83 81 78 78 75
96 97 96 82 68 47 42 36 28 23 21 28 26 26 26 26 27 29 39 41 44 45 46 46 48 50 53 56 64 58 64 66 69 67 71 69 71 72 74 73 71 72 75 76
97 97 92 82 60 43 39 39 30 25 26 27 25 27 27 27 27 30 38 40 42 42 43 45 48 47 50 54 56 57 58 57 62 64 71 72 72 74 75 73 77 78 76 72
97 97 96 87 77 57 38 43 33 25 23 25 28 27 28 27 27 28 33 37 39 41 42 43 47 49 48 52 51 52 51 54 56 61 64 67 70 72 75 76 80 82 80 81
98 97 96 86 73 46 40 45 39 33 28 30 31 32 32 31 28 31 33 35 37 40 40 41 43 44 48 48 49 50 51 53 55 58 59 60 62 65 71 74 79 79 80 79
98 97 97 93 73 50 46 48 39 34 29 29 36 35 37 35 31 28 27 28 30 32 32 35 35 38 42 46 50 47 50 53 53 55 57 58 59 61 65 67 72 75 79 80
98 98 97 94 83 56 46 42 39 36 33 28 37 39 40 41 40 36 34 32 30 30 32 33 36 39 40 43 45 41 43 48 51 51 50 54 57 59 62 65 68 72 76 81
98 98 97 96 91 61 49 41 43 42 37 32 39 43 41 41 39 38 38 39 37 34 36 37 39 41 44 45 37 42 43 45 45 42 46 48 47 48 55 61 65 69 73 76
97 98 98 96 91 66 52 47 47 47 41 39 40 42 47 41 39 38 39 40 43 42 43 40 40 43 45 37 37 41 44 44 45 46 46 47 49 51 52 55 59 62 67 72
98 98 98 96 88 62 53 51 49 51 48 47 48 46 47 44 42 40 41 42 45 49 46 45 48 44 37 38 40 43 45 46 47 50 50 52 53 53 54 54 55 58 59 61
98 97 92 90 88 76 65 63 61 54 54 52 58 55 52 47 42 43 41 49 50 53 50 52 52 49 42 40 43 45 46 47 48 49 50 50 49 49 50 52 54 56 58 62
96 96 89 89 81 76 76 70 69 64 58 62 61 58 59 58 44 43 46 51 51 55 54 54 54 44 45 44 44 46 48 46 44 40 36 33 33 35 37 36 36 40 48 52
97 88 91 92 89 81 66 62 67 67 67 64 65 66 60 61 56 49 51 52 55 55 58 55 49 46 48 46 47 47 44 39 34 32 32 32 32 29 26 27 29 30 32 38
94 89 95 94 91 76 61 60 62 64 66 68 64 64 61 62 63 56 54 55 58 57 59 56 48 46 46 47 46 43 37 35 34 33 32 28 26 25 25 27 31 32 36 38
89 83 78 78 71 69 66 63 63 66 71 65 63 61 60 65 60 58 58 62 65 61 57 49 46 46 46 46 41 38 38 37 33 28 27 27 26 26 26 28 30 32 35 39
90 83 74 72 70 70 70 69 68 66 67 65 59 59 57 58 56 59 56 58 56 50 49 46 46 47 47 41 40 40 37 30 27 27 26 25 26 28 29 29 29 31 36 40
95 86 73 69 69 70 71 72 70 67 63 70 63 55 53 59 59 58 56 54 49 45 49 48 47 45 41 40 38 33 30 27 25 25 25 29 32 33 32 31 34 38 40 45

GFSNW_prec_cthk_114.txt.gz
RH
74 59 75 88 89 96 93 95 86 63 52 47 45 42 41 41 44 45 52 56 58 66 64 49 52 63 74 80 80 78 76 82 87 87 82 85 95 91 88 83 89 88 83 85
65 66 84 92 97 94 95 93 70 55 49 44 43 40 41 42 43 44 52 53 54 62 68 57 47 54 61 72 74 75 73 74 76 76 73 79 84 84 82 85 81 84 78 82
75 88 95 97 95 94 88 65 52 51 49 44 41 38 41 44 42 44 47 49 52 59 65 57 45 48 50 54 59 59 56 61 64 77 75 78 80 79 82 76 80 84 80 80
93 98 97 96 90 78 74 46 40 39 42 42 41 36 38 43 43 45 46 47 50 56 66 59 57 46 49 45 48 48 52 60 68 64 62 65 68 79 82 79 80 78 81 74
97 98 98 98 91 75 68 38 32 32 34 36 37 33 34 37 41 45 46 47 47 52 63 63 59 58 54 53 49 54 63 63 68 74 63 63 77 83 83 80 80 76 74 72
98 98 96 94 80 84 54 33 31 26 32 36 36 32 30 31 38 42 44 45 49 54 59 61 60 56 57 57 64 67 77 77 76 78 68 66 74 81 81 87 89 84 82 75
95 97 96 93 81 77 46 31 28 25 31 32 30 28 24 27 35 41 42 44 48 51 56 62 65 66 66 62 66 74 77 75 73 79 72 77 81 77 80 83 87 86 82 78
95 96 95 94 83 73 53 33 28 24 30 27 25 25 24 25 29 37 40 44 47 52 57 60 63 65 67 67 66 65 71 75 76 79 74 77 78 79 83 83 84 85 85 80
95 98 96 94 87 71 48 30 28 24 26 26 25 26 23 24 28 36 38 44 47 52 59 60 63 66 66 66 65 64 68 72 72 75 75 77 75 70 74 76 77 79 80 83
92 97 96 94 82 71 48 30 28 25 25 28 26 26 24 22 25 33 37 43 48 52 53 57 58 56 57 66 66 58 61 67 67 70 71 71 66 72 72 70 70 77 76 78
89 95 97 96 92 78 51 31 28 25 26 28 27 25 23 23 24 30 36 47 50 52 52 51 51 51 54 58 57 61 63 67 70 71 69 70 68 67 71 77 76 75 75 75
89 92 96 97 93 77 46 34 29 26 24 29 28 26 25 24 25 30 40 43 45 45 46 47 49 48 51 53 59 53 59 60 63 62 62 64 68 67 70 71 71 75 76 75
87 94 96 96 93 62 38 32 30 26 28 29 28 28 27 27 27 30 38 42 43 43 42 44 46 44 47 52 52 52 51 53 57 57 60 65 65 65 66 68 70 72 74 71
86 96 95 92 87 52 48 39 33 26 24 26 29 29 28 27 28 29 36 40 40 43 43 42 45 45 46 48 47 48 48 50 52 54 56 58 59 60 64 66 67 69 72 72
84 95 95 88 78 51 47 50 40 32 33 31 31 29 29 28 27 30 33 37 40 40 41 42 42 43 45 46 46 45 44 46 50 51 52 53 54 57 59 60 60 64 66 69
84 95 97 93 86 59 48 49 43 42 36 27 33 34 34 31 29 31 35 37 37 38 37 36 35 35 39 43 45 37 41 44 45 47 51 54 54 55 56 55 59 60 61 65
85 93 98 97 92 61 52 43 42 50 38 29 39 42 39 36 33 31 29 28 29 30 30 32 34 36 39 41 40 34 39 43 45 45 46 49 52 52 52 53 56 59 59 60
87 92 97 97 93 63 53 44 44 55 41 32 37 43 41 40 39 37 36 35 34 34 34 35 37 38 39 41 33 37 39 42 44 43 40 41 44 44 45 47 49 53 56 60
87 91 98 98 96 83 61 51 54 51 41 35 38 42 45 39 39 38 38 38 40 41 40 39 39 40 41 32 32 36 39 40 42 42 42 44 45 47 50 51 51 50 53 54
88 94 98 96 97 91 77 59 46 46 43 40 40 42 46 43 41 40 38 40 42 44 42 41 45 41 30 32 34 34 40 43 44 45 46 47 48 50 51 53 53 53 52 52
91 94 96 96 97 91 76 63 54 46 48 47 46 44 46 44 43 43 39 43 45 50 49 50 51 45 38 36 38 39 42 43 45 46 45 45 42 40 38 36 35 36 38 40
93 94 97 98 98 91 78 73 61 56 47 54 56 51 50 50 45 42 44 45 47 51 53 56 56 43 40 42 43 42 42 44 45 42 38 34 31 31 32 31 30 29 29 27
99 98 97 97 97 93 78 69 68 61 56 57 60 63 59 59 56 54 51 49 53 55 61 58 49 43 45 47 44 42 45 44 40 36 33 32 32 30 27 25 25 25 26 29
98 97 97 97 92 74 61 56 59 57 58 63 65 66 62 59 60 60 57 55 57 60 63 57 48 46 48 46 44 44 43 39 36 34 34 32 28 27 25 24 25 27 28 28
97 98 96 90 79 70 60 56 62 62 64 65 71 68 63 69 66 63 63 66 65 61 56 49 45 46 47 44 42 41 39 37 37 34 29 27 26 25 26 28 31 34 31 32
98 97 91 80 80 76 66 62 65 65 63 61 63 68 64 66 64 65 63 61 57 51 50 47 48 47 45 43 41 39 39 37 32 28 26 25 27 29 30 31 33 32 33 36
98 93 83 76 76 75 71 65 68 68 64 64 64 60 60 64 68 64 59 56 48 44 47 48 48 46 43 40 39 39 37 31 27 25 24 26 27 29 29 29 32 36 41 48

GFSNW_prec_cthk_117.txt.gz
RH
42 35 47 57 66 79 86 93 96 96 59 49 50 48 45 43 47 48 54 56 61 58 45 52 54 58 61 66 71 72 73 79 84 79 84 83 95 95 92 86 93 93 92 98
43 53 68 86 91 91 93 97 93 63 50 47 49 45 45 44 45 50 52 53 58 56 51 53 49 55 58 62 64 67 67 68 75 69 69 79 88 90 88 80 76 85 87 97
85 84 89 96 96 95 93 74 55 50 50 46 45 43 44 45 45 45 48 51 57 54 51 47 46 49 50 51 53 56 56 63 66 79 80 84 88 93 84 77 78 85 87 91
90 93 95 96 96 93 75 40 41 42 48 45 44 39 40 46 46 47 47 48 55 56 54 52 53 45 47 44 52 52 52 70 65 66 69 77 88 89 87 85 81 78 82 77
84 87 90 90 88 79 50 31 32 37 39 40 41 34 39 45 47 46 48 49 52 57 57 54 53 50 46 48 55 62 66 65 65 66 74 75 80 77 82 83 83 82 76 73
81 88 87 88 85 76 49 27 28 30 37 39 37 33 33 41 44 44 45 48 53 59 59 53 52 47 50 59 63 66 69 68 67 73 72 70 74 82 80 78 78 78 78 76
79 84 87 87 83 74 46 25 24 25 33 37 34 30 29 36 40 41 43 47 50 54 61 61 60 57 55 61 65 69 70 69 70 74 62 73 79 79 80 81 80 80 78 75
78 81 84 81 80 69 44 26 22 23 30 31 30 27 28 32 37 40 41 45 49 53 56 59 60 60 60 57 56 60 67 71 72 72 68 72 68 72 76 77 77 81 80 74
72 79 82 83 81 68 61 27 24 22 24 28 26 26 27 29 33 39 41 44 48 53 59 57 58 62 59 59 55 57 63 65 66 70 72 73 70 71 75 71 73 75 73 73
69 77 81 81 79 73 57 33 24 23 23 26 26 26 26 24 27 36 39 44 48 52 54 55 54 52 55 59 58 53 56 61 60 55 67 67 64 69 69 67 67 72 71 71
68 73 80 81 82 70 68 44 24 23 23 26 27 26 25 23 24 32 36 46 48 52 52 49 48 49 52 53 55 58 57 62 63 64 63 64 65 65 66 68 68 69 67 67
68 73 77 81 82 78 74 58 28 24 23 27 28 28 25 24 24 27 38 42 44 47 46 45 45 45 48 49 53 51 56 54 56 54 53 58 63 63 65 65 66 67 69 67
72 72 76 80 82 84 75 54 30 25 25 29 29 28 27 26 26 29 36 41 43 43 41 42 43 41 43 48 48 48 49 49 51 51 53 57 57 59 59 59 62 67 66 65
72 77 76 77 83 80 67 49 33 26 23 25 29 27 27 28 27 29 32 38 39 43 42 40 41 42 42 43 42 45 43 47 48 48 49 52 53 53 54 55 57 59 61 61
67 80 78 78 83 82 68 45 37 31 26 29 30 30 29 28 29 29 31 36 39 40 42 41 41 42 44 44 43 42 37 39 43 44 42 45 47 48 51 52 53 54 54 54
60 84 85 81 84 82 55 50 46 40 37 26 31 32 32 30 30 32 33 36 38 39 40 40 39 38 39 41 42 30 31 35 36 39 42 45 47 48 49 50 50 52 52 51
47 77 88 86 85 74 54 53 55 55 45 32 37 36 37 33 32 32 34 36 36 36 37 35 34 35 39 42 41 27 33 36 39 40 42 44 45 45 45 44 45 44 48 50
38 68 91 91 89 81 66 54 51 45 48 41 39 39 40 37 35 35 34 31 30 30 32 34 35 37 39 40 30 31 37 40 41 41 41 41 41 43 44 44 45 45 47 49
33 61 87 96 91 91 78 67 61 51 46 44 48 39 40 42 40 37 39 37 38 37 38 37 38 40 41 28 28 31 36 37 40 43 42 40 41 42 45 47 48 49 49 50
42 50 81 97 95 95 83 75 64 56 47 44 51 45 41 40 42 42 40 41 42 42 40 40 45 40 27 28 29 30 35 37 38 40 41 43 44 45 47 47 46 44 42 40
57 55 76 97 96 98 91 74 66 55 52 46 49 52 40 39 41 43 40 43 43 45 44 47 51 49 37 32 34 33 37 39 41 41 41 42 40 37 34 30 29 30 29 28
65 64 76 96 98 98 98 86 75 65 54 50 53 51 38 39 41 42 43 44 45 46 47 51 55 43 40 38 38 39 41 41 41 41 40 36 33 31 30 30 27 24 24 24
79 75 86 97 97 97 94 77 71 64 57 53 51 54 45 45 45 47 47 47 48 48 56 53 48 42 44 43 43 43 42 40 40 40 36 33 32 32 29 26 25 24 24 25
87 82 89 97 97 88 78 68 63 58 60 60 56 57 53 53 56 55 56 54 55 60 61 56 47 44 46 45 46 44 41 40 39 36 35 34 32 27 26 26 27 27 27 29
89 86 88 91 83 77 73 71 68 65 65 63 63 62 57 62 63 60 62 65 65 60 56 51 43 45 48 48 47 43 39 36 37 38 36 30 27 27 28 28 28 27 28 31
95 87 85 76 78 80 81 73 73 71 70 64 60 65 65 66 64 65 60 57 55 51 54 47 47 51 51 48 44 37 35 37 39 35 30 28 26 26 25 24 23 24 30 35
96 84 70 69 71 75 77 79 73 75 70 68 66 65 64 71 71 62 58 58 51 49 50 49 50 50 49 46 40 37 39 39 34 31 29 27 24 22 22 23 26 29 33 38

GFSNW_prec_cthk_120.txt.gz
RH
54 43 48 52 67 76 91 94 97 94 67 44 44 46 45 45 48 52 55 52 51 43 43 47 52 57 58 57 65 69 66 77 78 74 83 88 98 95 88 85 90 90 94 98
70 72 72 78 87 88 90 92 86 77 44 47 48 44 46 47 47 50 51 50 52 47 46 48 46 49 46 51 55 61 63 67 74 71 76 82 89 87 79 86 87 92 91 98
72 79 84 82 86 80 63 46 46 47 45 44 44 44 46 46 46 46 50 50 49 45 44 42 42 43 43 44 49 52 52 61 71 82 89 91 96 83 75 72 87 93 96 96
75 79 83 86 74 57 22 24 35 37 43 41 44 44 46 46 44 44 48 48 47 47 45 47 43 38 39 44 53 48 52 59 66 73 77 78 86 89 83 80 82 86 93 91
73 76 79 83 62 34 20 22 27 32 34 38 42 38 46 45 45 45 47 50 48 47 49 48 45 45 48 57 55 54 58 62 64 65 68 70 80 81 76 76 77 75 76 78
69 74 75 71 66 57 28 20 22 24 33 36 38 35 41 42 42 44 45 48 49 49 49 46 45 46 52 58 59 58 60 59 63 70 67 62 70 81 82 82 82 77 75 76
65 70 75 75 78 62 24 18 18 20 29 32 33 31 32 39 40 42 44 46 47 52 53 51 49 52 53 55 56 59 58 58 58 63 57 71 74 76 79 81 81 82 78 71
67 68 73 75 78 65 37 20 17 19 27 28 28 26 30 35 38 41 43 45 45 49 52 54 52 51 53 50 50 55 58 56 56 57 62 67 71 75 74 73 79 78 76 73
62 68 69 73 71 63 58 29 20 18 21 24 24 24 27 31 35 40 42 45 47 51 52 53 53 51 48 49 47 49 54 54 56 56 58 58 63 69 71 70 71 71 72 73
62 66 70 72 75 67 66 38 27 19 20 21 22 21 24 26 31 36 40 43 47 49 50 51 47 45 49 48 47 45 48 49 52 48 55 51 54 62 63 60 68 72 71 68
58 66 69 71 74 71 62 58 37 24 21 21 21 21 22 22 25 32 36 43 44 48 49 44 42 41 43 46 46 47 45 50 51 52 51 50 54 54 56 59 64 65 66 67
46 63 69 72 74 75 68 66 57 34 23 23 22 22 22 21 21 26 37 40 41 44 43 40 40 39 41 41 40 44 46 43 43 42 41 48 53 51 52 54 56 60 63 61
28 53 68 73 75 78 74 73 61 42 28 28 26 24 24 23 23 24 34 39 41 41 40 39 39 38 37 37 37 40 40 41 42 42 41 48 50 50 49 49 51 53 53 54
20 33 61 76 78 77 80 74 60 44 32 28 27 25 25 24 25 26 31 37 40 41 41 39 38 37 37 36 36 38 36 39 38 38 39 44 44 45 47 46 45 48 48 49
25 35 49 71 82 80 78 71 58 43 36 31 30 26 25 25 26 27 31 34 40 41 42 39 39 38 40 39 39 34 31 32 33 31 30 33 36 41 41 43 44 43 43 43
33 37 47 61 79 83 85 77 55 44 43 36 32 28 30 28 28 30 32 35 39 40 41 39 39 37 38 37 37 24 26 29 30 30 33 35 37 39 40 43 42 43 42 39
39 42 48 55 70 84 86 71 58 50 49 44 43 37 34 32 29 31 35 37 40 40 41 40 38 36 36 39 34 22 26 29 31 33 36 38 39 40 40 40 39 38 36 36
43 45 50 55 61 78 89 83 58 57 57 51 48 44 41 37 34 32 33 37 40 41 38 35 34 36 38 37 25 26 28 31 34 36 37 37 37 38 39 39 40 39 39 40
46 47 51 53 56 66 85 88 73 62 64 62 55 54 46 41 38 35 35 35 35 35 34 32 35 36 38 24 24 26 28 30 32 36 38 39 37 35 37 38 40 42 43 44
49 51 54 56 54 62 75 94 87 79 65 61 56 51 49 44 41 39 40 39 39 44 38 38 41 37 27 27 25 25 28 32 34 36 39 38 38 39 40 42 42 42 37 30
56 57 57 58 57 63 72 84 88 81 72 63 59 53 51 52 44 39 39 40 42 44 39 41 41 41 30 29 29 29 31 35 36 37 39 38 39 42 40 35 30 29 28 26
60 64 64 66 67 70 73 74 78 72 66 62 63 65 49 48 49 41 40 42 45 44 44 47 46 34 34 34 33 33 36 38 38 38 38 38 38 35 33 31 30 26 24 24
69 72 74 76 79 77 76 66 64 68 62 62 65 65 58 52 53 49 43 45 45 44 51 45 36 36 38 38 38 39 41 43 43 39 37 36 35 34 32 28 25 25 26 27
75 77 76 79 78 63 50 44 46 58 61 67 70 69 64 61 56 57 54 44 47 54 56 46 38 41 43 44 43 43 44 44 42 36 35 35 35 32 27 27 28 26 25 24
83 81 80 72 56 58 52 47 48 61 67 68 71 71 69 66 59 57 57 55 58 49 46 45 43 44 46 46 47 47 46 42 36 34 35 36 31 29 29 28 25 22 21 22
91 88 79 68 64 65 62 57 56 66 74 73 72 74 74 64 58 59 52 49 49 47 53 46 45 48 51 50 50 48 45 40 36 36 38 33 32 31 27 24 21 21 23 26
89 82 72 69 68 67 67 64 62 72 77 78 77 75 70 66 65 57 52 51 46 50 51 48 48 51 53 53 51 47 42 39 41 40 35 34 32 28 24 22 21 24 25 28

GFSNW_prec_cthk_123.txt.gz
RH
73 74 76 79 84 87 88 86 80 68 44 36 37 44 42 42 47 52 51 49 46 43 44 49 55 61 57 51 60 69 69 76 87 80 83 89 96 94 86 91 95 95 95 98
76 74 73 70 77 72 61 51 51 45 34 39 38 39 41 43 46 49 46 47 47 44 44 50 41 43 42 46 54 59 66 69 85 77 75 77 94 91 88 91 96 96 91 97
75 73 68 63 49 42 37 34 36 32 34 33 36 40 42 42 43 46 45 45 45 41 43 36 41 39 41 47 52 52 61 70 77 85 88 91 93 93 90 90 95 94 97 98
74 74 70 55 38 31 23 27 30 29 34 33 35 38 41 42 43 44 43 43 45 44 43 40 40 38 47 49 50 50 55 66 72 75 79 87 81 85 84 95 97 95 99 98
69 73 64 52 39 26 22 24 26 27 28 31 34 35 38 42 42 43 43 42 42 43 44 42 39 41 49 53 52 56 56 59 65 67 71 74 77 76 77 82 86 86 87 96
67 74 76 69 54 35 24 20 22 25 28 32 30 30 35 38 40 41 43 43 42 44 41 40 39 44 50 53 54 55 59 57 56 64 59 62 68 77 79 75 74 75 80 84
57 62 72 76 68 42 25 22 22 26 27 29 30 27 31 36 38 40 40 42 44 46 42 41 44 46 47 47 49 50 51 53 53 58 50 65 65 67 72 74 71 68 66 65
49 57 60 69 75 55 34 26 23 24 26 27 24 25 27 33 35 38 39 40 42 45 46 45 43 41 43 43 44 47 49 50 51 58 56 57 61 61 64 65 71 71 68 63
45 53 57 59 67 59 53 32 26 24 25 24 23 22 25 31 33 36 39 41 43 45 47 48 47 42 40 40 40 41 47 49 52 49 55 53 54 59 58 58 62 66 69 65
39 47 54 58 59 66 60 49 31 25 25 22 22 22 23 25 31 35 38 40 44 46 48 48 42 39 40 40 39 38 42 43 47 48 52 46 50 54 54 60 64 59 63 65
35 41 50 58 61 60 66 53 47 32 27 24 21 21 22 23 26 32 37 40 43 46 47 43 39 37 36 38 35 37 38 40 42 43 44 48 46 49 53 56 56 59 59 60
24 32 41 53 60 65 63 61 56 54 32 27 23 22 20 21 22 26 34 43 42 44 44 40 37 36 33 34 34 35 38 36 38 35 38 40 43 44 45 47 50 52 55 57
26 25 39 43 53 63 69 66 68 69 47 31 26 26 23 22 20 21 29 36 42 42 43 41 38 36 33 32 32 32 32 33 34 35 33 37 42 44 44 43 46 45 46 48
28 29 28 40 52 57 69 74 71 69 58 39 31 26 25 25 23 24 25 31 37 41 43 42 40 37 34 32 31 31 31 32 32 32 31 34 37 38 40 41 41 42 44 45
35 34 34 39 45 54 63 70 67 67 61 44 39 30 26 26 26 25 27 29 37 42 43 42 41 38 38 36 35 28 25 24 29 27 26 27 28 34 36 38 39 40 41 41
41 40 43 44 50 53 58 62 68 66 67 48 44 36 31 28 27 28 30 32 36 39 43 41 39 38 38 37 32 20 20 22 24 26 26 29 30 32 35 36 38 39 39 38
48 47 48 48 54 57 59 52 54 64 65 55 48 46 39 34 32 32 32 34 37 39 43 41 40 39 39 38 33 20 19 21 25 28 29 31 31 32 35 36 38 36 37 35
55 51 53 54 56 56 60 61 52 57 62 63 55 53 43 41 38 36 33 36 39 41 43 40 38 39 39 36 22 22 21 23 26 29 30 30 32 34 36 37 36 37 37 36
60 59 60 61 57 56 57 63 66 61 64 65 61 59 51 48 46 41 35 35 38 39 41 40 37 33 36 22 19 22 23 24 25 30 31 32 33 36 36 35 36 37 38 38
65 65 62 62 60 57 56 65 66 60 61 67 65 62 61 56 50 45 40 36 38 42 37 37 37 32 25 24 24 22 24 27 29 30 33 33 34 35 33 36 38 39 39 35
72 68 66 63 64 62 61 64 63 58 51 51 63 65 67 64 65 55 45 46 42 44 39 41 42 36 26 23 25 26 28 30 30 30 32 33 34 34 35 38 39 32 27 26
66 66 66 64 68 67 64 62 55 51 46 40 48 62 71 72 65 58 52 48 45 46 41 44 46 32 26 27 29 30 33 33 34 34 34 34 34 35 37 35 31 28 26 22
68 69 67 68 65 68 65 59 53 46 41 40 41 51 63 74 78 65 58 57 52 42 48 45 33 29 31 31 34 37 38 38 38 37 37 36 34 33 33 32 30 25 25 25
68 68 70 68 66 59 49 43 43 40 38 39 43 47 55 71 78 79 69 57 55 57 53 43 30 30 34 37 40 42 42 42 40 38 38 35 33 33 33 30 28 29 27 23
70 71 69 63 49 47 44 43 41 42 44 48 52 53 55 72 80 77 71 69 64 51 46 40 36 40 42 45 46 46 44 44 43 42 38 35 34 34 32 32 32 28 24 21
75 71 67 61 60 54 52 55 57 52 55 60 61 61 65 71 80 76 70 62 55 48 45 44 48 53 53 50 49 49 48 48 47 41 38 36 36 34 35 33 29 25 23 24
74 70 65 66 64 62 62 64 69 72 73 71 69 70 63 68 74 72 63 60 49 46 44 46 54 66 60 54 54 54 54 52 46 41 39 39 37 36 33 29 26 25 25 27